<?xml version="1.0" encoding="UTF-8" standalone="no" ?>
<gpx xmlns="http://www.topografix.com/GPX/1/1" xmlns:xsi="http://www.w3.org/2001/XMLSchema-instance" xsi:schemaLocation="http://www.topografix.com/GPX/1/1 http://www.topografix.com/GPX/1/1/gpx.xsd" version="1.1" creator="VisuGPX - https://www.visugpx.com">
  <metadata>
    <name>Landevenec-MenezHom-Argol</name>
    <desc><![CDATA[Départ du pont de Térenez et direction le MenezHom, après direction Argol, parcours tactique attention au trou.]]></desc>
  </metadata>
  <trk>
    <name><![CDATA[Landévennec Vtt]]></name>
    <trkseg>
      <trkpt lat="48.27144" lon="-4.2625">
        <ele>43.799999237061</ele>
        <time>2017-01-08T08:48:53.000Z</time>
      </trkpt>
      <trkpt lat="48.27166" lon="-4.26239">
        <ele>52.599998474121</ele>
        <time>2017-01-08T08:49:04.000Z</time>
      </trkpt>
      <trkpt lat="48.27166" lon="-4.26238">
        <ele>52.799999237061</ele>
        <time>2017-01-08T08:49:06.000Z</time>
      </trkpt>
      <trkpt lat="48.27154" lon="-4.26241">
        <ele>48.599998474121</ele>
        <time>2017-01-08T08:49:13.000Z</time>
      </trkpt>
      <trkpt lat="48.27137" lon="-4.26236">
        <ele>44.400001525879</ele>
        <time>2017-01-08T08:49:19.000Z</time>
      </trkpt>
      <trkpt lat="48.27114" lon="-4.26235">
        <ele>38.400001525879</ele>
        <time>2017-01-08T08:49:25.000Z</time>
      </trkpt>
      <trkpt lat="48.2708" lon="-4.2624">
        <ele>32</ele>
        <time>2017-01-08T08:49:33.000Z</time>
      </trkpt>
      <trkpt lat="48.27076" lon="-4.26241">
        <ele>31.799999237061</ele>
        <time>2017-01-08T08:49:34.000Z</time>
      </trkpt>
      <trkpt lat="48.27042" lon="-4.26253">
        <ele>29.39999961853</ele>
        <time>2017-01-08T08:49:42.000Z</time>
      </trkpt>
      <trkpt lat="48.26995" lon="-4.26276">
        <ele>9</ele>
        <time>2017-01-08T08:49:53.000Z</time>
      </trkpt>
      <trkpt lat="48.26952" lon="-4.26303">
        <ele>63.799999237061</ele>
        <time>2017-01-08T08:50:02.000Z</time>
      </trkpt>
      <trkpt lat="48.26911" lon="-4.26331">
        <ele>63.599998474121</ele>
        <time>2017-01-08T08:50:12.000Z</time>
      </trkpt>
      <trkpt lat="48.26878" lon="-4.26355">
        <ele>62.400001525879</ele>
        <time>2017-01-08T08:50:20.000Z</time>
      </trkpt>
      <trkpt lat="48.26839" lon="-4.26389">
        <ele>25</ele>
        <time>2017-01-08T08:50:29.000Z</time>
      </trkpt>
      <trkpt lat="48.26799" lon="-4.26429">
        <ele>25.60000038147</ele>
        <time>2017-01-08T08:50:38.000Z</time>
      </trkpt>
      <trkpt lat="48.26768" lon="-4.26466">
        <ele>27</ele>
        <time>2017-01-08T08:50:45.000Z</time>
      </trkpt>
      <trkpt lat="48.26739" lon="-4.26515">
        <ele>39</ele>
        <time>2017-01-08T08:50:53.000Z</time>
      </trkpt>
      <trkpt lat="48.26719" lon="-4.26567">
        <ele>49.599998474121</ele>
        <time>2017-01-08T08:51:01.000Z</time>
      </trkpt>
      <trkpt lat="48.26711" lon="-4.26566">
        <ele>52.799999237061</ele>
        <time>2017-01-08T08:51:05.000Z</time>
      </trkpt>
      <trkpt lat="48.26709" lon="-4.26558">
        <ele>53.200000762939</ele>
        <time>2017-01-08T08:51:07.000Z</time>
      </trkpt>
      <trkpt lat="48.26709" lon="-4.26532">
        <ele>52</ele>
        <time>2017-01-08T08:51:12.000Z</time>
      </trkpt>
      <trkpt lat="48.26709" lon="-4.26489">
        <ele>49.799999237061</ele>
        <time>2017-01-08T08:51:19.000Z</time>
      </trkpt>
      <trkpt lat="48.26705" lon="-4.26441">
        <ele>47.400001525879</ele>
        <time>2017-01-08T08:51:24.000Z</time>
      </trkpt>
      <trkpt lat="48.26699" lon="-4.2639">
        <ele>46</ele>
        <time>2017-01-08T08:51:29.000Z</time>
      </trkpt>
      <trkpt lat="48.26688" lon="-4.26331">
        <ele>43.599998474121</ele>
        <time>2017-01-08T08:51:35.000Z</time>
      </trkpt>
      <trkpt lat="48.26685" lon="-4.26303">
        <ele>42.200000762939</ele>
        <time>2017-01-08T08:51:38.000Z</time>
      </trkpt>
      <trkpt lat="48.2668" lon="-4.26268">
        <ele>40.200000762939</ele>
        <time>2017-01-08T08:51:42.000Z</time>
      </trkpt>
      <trkpt lat="48.26678" lon="-4.26215">
        <ele>31.39999961853</ele>
        <time>2017-01-08T08:51:48.000Z</time>
      </trkpt>
      <trkpt lat="48.26679" lon="-4.2617">
        <ele>25</ele>
        <time>2017-01-08T08:51:53.000Z</time>
      </trkpt>
      <trkpt lat="48.26679" lon="-4.26162">
        <ele>24</ele>
        <time>2017-01-08T08:51:54.000Z</time>
      </trkpt>
      <trkpt lat="48.26682" lon="-4.26127">
        <ele>19.799999237061</ele>
        <time>2017-01-08T08:51:59.000Z</time>
      </trkpt>
      <trkpt lat="48.26676" lon="-4.26096">
        <ele>19.39999961853</ele>
        <time>2017-01-08T08:52:02.000Z</time>
      </trkpt>
      <trkpt lat="48.2667" lon="-4.26073">
        <ele>21.200000762939</ele>
        <time>2017-01-08T08:52:04.000Z</time>
      </trkpt>
      <trkpt lat="48.26645" lon="-4.26015">
        <ele>15</ele>
        <time>2017-01-08T08:52:10.000Z</time>
      </trkpt>
      <trkpt lat="48.26624" lon="-4.25982">
        <ele>14.199999809265</ele>
        <time>2017-01-08T08:52:15.000Z</time>
      </trkpt>
      <trkpt lat="48.2661" lon="-4.25964">
        <ele>11.60000038147</ele>
        <time>2017-01-08T08:52:18.000Z</time>
      </trkpt>
      <trkpt lat="48.26578" lon="-4.25943">
        <ele>13.199999809265</ele>
        <time>2017-01-08T08:52:24.000Z</time>
      </trkpt>
      <trkpt lat="48.26573" lon="-4.2594">
        <ele>14.800000190735</ele>
        <time>2017-01-08T08:52:25.000Z</time>
      </trkpt>
      <trkpt lat="48.26562" lon="-4.25931">
        <ele>17.799999237061</ele>
        <time>2017-01-08T08:52:27.000Z</time>
      </trkpt>
      <trkpt lat="48.26534" lon="-4.2589">
        <ele>21.39999961853</ele>
        <time>2017-01-08T08:52:34.000Z</time>
      </trkpt>
      <trkpt lat="48.26527" lon="-4.25876">
        <ele>20.200000762939</ele>
        <time>2017-01-08T08:52:36.000Z</time>
      </trkpt>
      <trkpt lat="48.2651" lon="-4.25822">
        <ele>21.39999961853</ele>
        <time>2017-01-08T08:52:42.000Z</time>
      </trkpt>
      <trkpt lat="48.26508" lon="-4.25811">
        <ele>22.200000762939</ele>
        <time>2017-01-08T08:52:43.000Z</time>
      </trkpt>
      <trkpt lat="48.26493" lon="-4.25776">
        <ele>20</ele>
        <time>2017-01-08T08:52:47.000Z</time>
      </trkpt>
      <trkpt lat="48.26485" lon="-4.25763">
        <ele>20</ele>
        <time>2017-01-08T08:52:49.000Z</time>
      </trkpt>
      <trkpt lat="48.26476" lon="-4.25753">
        <ele>20</ele>
        <time>2017-01-08T08:52:51.000Z</time>
      </trkpt>
      <trkpt lat="48.2646" lon="-4.25749">
        <ele>20</ele>
        <time>2017-01-08T08:52:55.000Z</time>
      </trkpt>
      <trkpt lat="48.26452" lon="-4.25746">
        <ele>20</ele>
        <time>2017-01-08T08:52:59.000Z</time>
      </trkpt>
      <trkpt lat="48.26442" lon="-4.25744">
        <ele>20</ele>
        <time>2017-01-08T08:53:06.000Z</time>
      </trkpt>
      <trkpt lat="48.26439" lon="-4.25743">
        <ele>20</ele>
        <time>2017-01-08T08:53:08.000Z</time>
      </trkpt>
      <trkpt lat="48.2643" lon="-4.25744">
        <ele>20</ele>
        <time>2017-01-08T08:53:13.000Z</time>
      </trkpt>
      <trkpt lat="48.26419" lon="-4.25742">
        <ele>21</ele>
        <time>2017-01-08T08:53:21.000Z</time>
      </trkpt>
      <trkpt lat="48.26411" lon="-4.25741">
        <ele>21.39999961853</ele>
        <time>2017-01-08T08:53:27.000Z</time>
      </trkpt>
      <trkpt lat="48.264" lon="-4.25738">
        <ele>21.799999237061</ele>
        <time>2017-01-08T08:53:34.000Z</time>
      </trkpt>
      <trkpt lat="48.26393" lon="-4.25738">
        <ele>22.200000762939</ele>
        <time>2017-01-08T08:53:39.000Z</time>
      </trkpt>
      <trkpt lat="48.26382" lon="-4.25736">
        <ele>22.200000762939</ele>
        <time>2017-01-08T08:53:45.000Z</time>
      </trkpt>
      <trkpt lat="48.26378" lon="-4.25737">
        <ele>22.200000762939</ele>
        <time>2017-01-08T08:53:47.000Z</time>
      </trkpt>
      <trkpt lat="48.26366" lon="-4.2574">
        <ele>22.200000762939</ele>
        <time>2017-01-08T08:53:54.000Z</time>
      </trkpt>
      <trkpt lat="48.26359" lon="-4.25753">
        <ele>22.799999237061</ele>
        <time>2017-01-08T08:54:00.000Z</time>
      </trkpt>
      <trkpt lat="48.26352" lon="-4.25776">
        <ele>23.799999237061</ele>
        <time>2017-01-08T08:54:07.000Z</time>
      </trkpt>
      <trkpt lat="48.2635" lon="-4.258">
        <ele>23</ele>
        <time>2017-01-08T08:54:11.000Z</time>
      </trkpt>
      <trkpt lat="48.26349" lon="-4.25824">
        <ele>22.200000762939</ele>
        <time>2017-01-08T08:54:14.000Z</time>
      </trkpt>
      <trkpt lat="48.2635" lon="-4.2587">
        <ele>21.60000038147</ele>
        <time>2017-01-08T08:54:18.000Z</time>
      </trkpt>
      <trkpt lat="48.26353" lon="-4.25893">
        <ele>21.799999237061</ele>
        <time>2017-01-08T08:54:20.000Z</time>
      </trkpt>
      <trkpt lat="48.26346" lon="-4.25932">
        <ele>21</ele>
        <time>2017-01-08T08:54:24.000Z</time>
      </trkpt>
      <trkpt lat="48.26332" lon="-4.25954">
        <ele>19.799999237061</ele>
        <time>2017-01-08T08:54:28.000Z</time>
      </trkpt>
      <trkpt lat="48.26317" lon="-4.25981">
        <ele>20</ele>
        <time>2017-01-08T08:54:34.000Z</time>
      </trkpt>
      <trkpt lat="48.26302" lon="-4.26009">
        <ele>19.799999237061</ele>
        <time>2017-01-08T08:54:41.000Z</time>
      </trkpt>
      <trkpt lat="48.26286" lon="-4.26037">
        <ele>20</ele>
        <time>2017-01-08T08:54:49.000Z</time>
      </trkpt>
      <trkpt lat="48.26269" lon="-4.26067">
        <ele>21.200000762939</ele>
        <time>2017-01-08T08:54:57.000Z</time>
      </trkpt>
      <trkpt lat="48.26256" lon="-4.26089">
        <ele>21.799999237061</ele>
        <time>2017-01-08T08:55:02.000Z</time>
      </trkpt>
      <trkpt lat="48.26242" lon="-4.2611">
        <ele>21.799999237061</ele>
        <time>2017-01-08T08:55:08.000Z</time>
      </trkpt>
      <trkpt lat="48.26233" lon="-4.2613">
        <ele>22.39999961853</ele>
        <time>2017-01-08T08:55:13.000Z</time>
      </trkpt>
      <trkpt lat="48.26221" lon="-4.26161">
        <ele>24</ele>
        <time>2017-01-08T08:55:20.000Z</time>
      </trkpt>
      <trkpt lat="48.26214" lon="-4.26185">
        <ele>26.39999961853</ele>
        <time>2017-01-08T08:55:25.000Z</time>
      </trkpt>
      <trkpt lat="48.26206" lon="-4.26217">
        <ele>27.799999237061</ele>
        <time>2017-01-08T08:55:32.000Z</time>
      </trkpt>
      <trkpt lat="48.26198" lon="-4.26254">
        <ele>28.39999961853</ele>
        <time>2017-01-08T08:55:40.000Z</time>
      </trkpt>
      <trkpt lat="48.26195" lon="-4.26286">
        <ele>30.200000762939</ele>
        <time>2017-01-08T08:55:46.000Z</time>
      </trkpt>
      <trkpt lat="48.26193" lon="-4.26305">
        <ele>30.39999961853</ele>
        <time>2017-01-08T08:55:50.000Z</time>
      </trkpt>
      <trkpt lat="48.26191" lon="-4.26337">
        <ele>31</ele>
        <time>2017-01-08T08:55:56.000Z</time>
      </trkpt>
      <trkpt lat="48.26188" lon="-4.26361">
        <ele>31.200000762939</ele>
        <time>2017-01-08T08:56:00.000Z</time>
      </trkpt>
      <trkpt lat="48.26183" lon="-4.26393">
        <ele>30</ele>
        <time>2017-01-08T08:56:05.000Z</time>
      </trkpt>
      <trkpt lat="48.26177" lon="-4.26433">
        <ele>28.60000038147</ele>
        <time>2017-01-08T08:56:11.000Z</time>
      </trkpt>
      <trkpt lat="48.26176" lon="-4.2644">
        <ele>28.39999961853</ele>
        <time>2017-01-08T08:56:12.000Z</time>
      </trkpt>
      <trkpt lat="48.26166" lon="-4.26495">
        <ele>27.60000038147</ele>
        <time>2017-01-08T08:56:20.000Z</time>
      </trkpt>
      <trkpt lat="48.26163" lon="-4.26508">
        <ele>27.39999961853</ele>
        <time>2017-01-08T08:56:22.000Z</time>
      </trkpt>
      <trkpt lat="48.26155" lon="-4.26549">
        <ele>27</ele>
        <time>2017-01-08T08:56:28.000Z</time>
      </trkpt>
      <trkpt lat="48.26144" lon="-4.26563">
        <ele>25.799999237061</ele>
        <time>2017-01-08T08:56:31.000Z</time>
      </trkpt>
      <trkpt lat="48.26126" lon="-4.26576">
        <ele>23.39999961853</ele>
        <time>2017-01-08T08:56:34.000Z</time>
      </trkpt>
      <trkpt lat="48.26118" lon="-4.26597">
        <ele>22.799999237061</ele>
        <time>2017-01-08T08:56:36.000Z</time>
      </trkpt>
      <trkpt lat="48.26099" lon="-4.26686">
        <ele>22.200000762939</ele>
        <time>2017-01-08T08:56:44.000Z</time>
      </trkpt>
      <trkpt lat="48.26082" lon="-4.2676">
        <ele>20.60000038147</ele>
        <time>2017-01-08T08:56:51.000Z</time>
      </trkpt>
      <trkpt lat="48.26059" lon="-4.26856">
        <ele>18.39999961853</ele>
        <time>2017-01-08T08:57:00.000Z</time>
      </trkpt>
      <trkpt lat="48.26041" lon="-4.26931">
        <ele>18</ele>
        <time>2017-01-08T08:57:07.000Z</time>
      </trkpt>
      <trkpt lat="48.26029" lon="-4.26984">
        <ele>18</ele>
        <time>2017-01-08T08:57:12.000Z</time>
      </trkpt>
      <trkpt lat="48.26015" lon="-4.27042">
        <ele>18.39999961853</ele>
        <time>2017-01-08T08:57:18.000Z</time>
      </trkpt>
      <trkpt lat="48.25996" lon="-4.27123">
        <ele>18.60000038147</ele>
        <time>2017-01-08T08:57:27.000Z</time>
      </trkpt>
      <trkpt lat="48.25978" lon="-4.27183">
        <ele>17</ele>
        <time>2017-01-08T08:57:34.000Z</time>
      </trkpt>
      <trkpt lat="48.2597" lon="-4.27209">
        <ele>16.799999237061</ele>
        <time>2017-01-08T08:57:37.000Z</time>
      </trkpt>
      <trkpt lat="48.25947" lon="-4.27269">
        <ele>17</ele>
        <time>2017-01-08T08:57:44.000Z</time>
      </trkpt>
      <trkpt lat="48.25926" lon="-4.27322">
        <ele>16.60000038147</ele>
        <time>2017-01-08T08:57:50.000Z</time>
      </trkpt>
      <trkpt lat="48.25907" lon="-4.27365">
        <ele>17.39999961853</ele>
        <time>2017-01-08T08:57:56.000Z</time>
      </trkpt>
      <trkpt lat="48.25904" lon="-4.27371">
        <ele>17.799999237061</ele>
        <time>2017-01-08T08:57:57.000Z</time>
      </trkpt>
      <trkpt lat="48.2589" lon="-4.27377">
        <ele>18.200000762939</ele>
        <time>2017-01-08T08:58:01.000Z</time>
      </trkpt>
      <trkpt lat="48.25886" lon="-4.27373">
        <ele>18.200000762939</ele>
        <time>2017-01-08T08:58:02.000Z</time>
      </trkpt>
      <trkpt lat="48.25855" lon="-4.27342">
        <ele>17.39999961853</ele>
        <time>2017-01-08T08:58:10.000Z</time>
      </trkpt>
      <trkpt lat="48.25832" lon="-4.27315">
        <ele>16</ele>
        <time>2017-01-08T08:58:16.000Z</time>
      </trkpt>
      <trkpt lat="48.25813" lon="-4.27285">
        <ele>14</ele>
        <time>2017-01-08T08:58:21.000Z</time>
      </trkpt>
      <trkpt lat="48.25787" lon="-4.27246">
        <ele>11.60000038147</ele>
        <time>2017-01-08T08:58:26.000Z</time>
      </trkpt>
      <trkpt lat="48.25774" lon="-4.2723">
        <ele>10.60000038147</ele>
        <time>2017-01-08T08:58:28.000Z</time>
      </trkpt>
      <trkpt lat="48.25723" lon="-4.27194">
        <ele>10</ele>
        <time>2017-01-08T08:58:34.000Z</time>
      </trkpt>
      <trkpt lat="48.25685" lon="-4.27169">
        <ele>11</ele>
        <time>2017-01-08T08:58:40.000Z</time>
      </trkpt>
      <trkpt lat="48.25651" lon="-4.27152">
        <ele>13.199999809265</ele>
        <time>2017-01-08T08:58:46.000Z</time>
      </trkpt>
      <trkpt lat="48.25618" lon="-4.2714">
        <ele>15</ele>
        <time>2017-01-08T08:58:53.000Z</time>
      </trkpt>
      <trkpt lat="48.25588" lon="-4.27129">
        <ele>17</ele>
        <time>2017-01-08T08:59:00.000Z</time>
      </trkpt>
      <trkpt lat="48.25584" lon="-4.27127">
        <ele>17.39999961853</ele>
        <time>2017-01-08T08:59:01.000Z</time>
      </trkpt>
      <trkpt lat="48.25576" lon="-4.27125">
        <ele>18.200000762939</ele>
        <time>2017-01-08T08:59:03.000Z</time>
      </trkpt>
      <trkpt lat="48.25554" lon="-4.27117">
        <ele>20.60000038147</ele>
        <time>2017-01-08T08:59:09.000Z</time>
      </trkpt>
      <trkpt lat="48.25535" lon="-4.27108">
        <ele>22.60000038147</ele>
        <time>2017-01-08T08:59:15.000Z</time>
      </trkpt>
      <trkpt lat="48.25515" lon="-4.27092">
        <ele>25</ele>
        <time>2017-01-08T08:59:22.000Z</time>
      </trkpt>
      <trkpt lat="48.25504" lon="-4.27072">
        <ele>26.60000038147</ele>
        <time>2017-01-08T08:59:28.000Z</time>
      </trkpt>
      <trkpt lat="48.25499" lon="-4.27055">
        <ele>27.39999961853</ele>
        <time>2017-01-08T08:59:33.000Z</time>
      </trkpt>
      <trkpt lat="48.2549" lon="-4.27029">
        <ele>30.200000762939</ele>
        <time>2017-01-08T08:59:40.000Z</time>
      </trkpt>
      <trkpt lat="48.25479" lon="-4.26991">
        <ele>32.599998474121</ele>
        <time>2017-01-08T08:59:50.000Z</time>
      </trkpt>
      <trkpt lat="48.25471" lon="-4.26969">
        <ele>34</ele>
        <time>2017-01-08T08:59:57.000Z</time>
      </trkpt>
      <trkpt lat="48.25463" lon="-4.26949">
        <ele>35.400001525879</ele>
        <time>2017-01-08T09:00:04.000Z</time>
      </trkpt>
      <trkpt lat="48.25453" lon="-4.26924">
        <ele>36.599998474121</ele>
        <time>2017-01-08T09:00:11.000Z</time>
      </trkpt>
      <trkpt lat="48.25443" lon="-4.26904">
        <ele>36.799999237061</ele>
        <time>2017-01-08T09:00:17.000Z</time>
      </trkpt>
      <trkpt lat="48.25435" lon="-4.2688">
        <ele>36.400001525879</ele>
        <time>2017-01-08T09:00:24.000Z</time>
      </trkpt>
      <trkpt lat="48.25429" lon="-4.26858">
        <ele>36</ele>
        <time>2017-01-08T09:00:31.000Z</time>
      </trkpt>
      <trkpt lat="48.25423" lon="-4.26832">
        <ele>35.799999237061</ele>
        <time>2017-01-08T09:00:38.000Z</time>
      </trkpt>
      <trkpt lat="48.25418" lon="-4.26804">
        <ele>35.400001525879</ele>
        <time>2017-01-08T09:00:45.000Z</time>
      </trkpt>
      <trkpt lat="48.25409" lon="-4.26761">
        <ele>35.799999237061</ele>
        <time>2017-01-08T09:00:54.000Z</time>
      </trkpt>
      <trkpt lat="48.25396" lon="-4.26723">
        <ele>37.599998474121</ele>
        <time>2017-01-08T09:01:03.000Z</time>
      </trkpt>
      <trkpt lat="48.25381" lon="-4.26703">
        <ele>38.400001525879</ele>
        <time>2017-01-08T09:01:11.000Z</time>
      </trkpt>
      <trkpt lat="48.25365" lon="-4.26689">
        <ele>40.200000762939</ele>
        <time>2017-01-08T09:01:18.000Z</time>
      </trkpt>
      <trkpt lat="48.25353" lon="-4.26674">
        <ele>41.599998474121</ele>
        <time>2017-01-08T09:01:24.000Z</time>
      </trkpt>
      <trkpt lat="48.25342" lon="-4.26648">
        <ele>43.200000762939</ele>
        <time>2017-01-08T09:01:32.000Z</time>
      </trkpt>
      <trkpt lat="48.25336" lon="-4.26628">
        <ele>44.200000762939</ele>
        <time>2017-01-08T09:01:38.000Z</time>
      </trkpt>
      <trkpt lat="48.25333" lon="-4.26605">
        <ele>44.799999237061</ele>
        <time>2017-01-08T09:01:45.000Z</time>
      </trkpt>
      <trkpt lat="48.25332" lon="-4.26581">
        <ele>44.799999237061</ele>
        <time>2017-01-08T09:01:51.000Z</time>
      </trkpt>
      <trkpt lat="48.25322" lon="-4.26566">
        <ele>46.200000762939</ele>
        <time>2017-01-08T09:01:56.000Z</time>
      </trkpt>
      <trkpt lat="48.2531" lon="-4.26547">
        <ele>48</ele>
        <time>2017-01-08T09:02:03.000Z</time>
      </trkpt>
      <trkpt lat="48.25303" lon="-4.26519">
        <ele>48.799999237061</ele>
        <time>2017-01-08T09:02:11.000Z</time>
      </trkpt>
      <trkpt lat="48.25299" lon="-4.26488">
        <ele>48.799999237061</ele>
        <time>2017-01-08T09:02:19.000Z</time>
      </trkpt>
      <trkpt lat="48.25297" lon="-4.26464">
        <ele>49.200000762939</ele>
        <time>2017-01-08T09:02:25.000Z</time>
      </trkpt>
      <trkpt lat="48.25291" lon="-4.26438">
        <ele>49.799999237061</ele>
        <time>2017-01-08T09:02:32.000Z</time>
      </trkpt>
      <trkpt lat="48.25283" lon="-4.26417">
        <ele>51.200000762939</ele>
        <time>2017-01-08T09:02:39.000Z</time>
      </trkpt>
      <trkpt lat="48.25275" lon="-4.26401">
        <ele>53.200000762939</ele>
        <time>2017-01-08T09:02:45.000Z</time>
      </trkpt>
      <trkpt lat="48.25267" lon="-4.26387">
        <ele>55.400001525879</ele>
        <time>2017-01-08T09:02:51.000Z</time>
      </trkpt>
      <trkpt lat="48.2526" lon="-4.26374">
        <ele>57.200000762939</ele>
        <time>2017-01-08T09:02:57.000Z</time>
      </trkpt>
      <trkpt lat="48.25251" lon="-4.26357">
        <ele>59</ele>
        <time>2017-01-08T09:03:05.000Z</time>
      </trkpt>
      <trkpt lat="48.25242" lon="-4.2634">
        <ele>60.599998474121</ele>
        <time>2017-01-08T09:03:13.000Z</time>
      </trkpt>
      <trkpt lat="48.25235" lon="-4.26328">
        <ele>61.799999237061</ele>
        <time>2017-01-08T09:03:19.000Z</time>
      </trkpt>
      <trkpt lat="48.25226" lon="-4.26312">
        <ele>63.200000762939</ele>
        <time>2017-01-08T09:03:28.000Z</time>
      </trkpt>
      <trkpt lat="48.25219" lon="-4.263">
        <ele>64</ele>
        <time>2017-01-08T09:03:34.000Z</time>
      </trkpt>
      <trkpt lat="48.25211" lon="-4.26285">
        <ele>64.800003051758</ele>
        <time>2017-01-08T09:03:41.000Z</time>
      </trkpt>
      <trkpt lat="48.25198" lon="-4.26264">
        <ele>66.400001525879</ele>
        <time>2017-01-08T09:03:51.000Z</time>
      </trkpt>
      <trkpt lat="48.25188" lon="-4.2625">
        <ele>67.599998474121</ele>
        <time>2017-01-08T09:03:58.000Z</time>
      </trkpt>
      <trkpt lat="48.25177" lon="-4.26233">
        <ele>68.599998474121</ele>
        <time>2017-01-08T09:04:05.000Z</time>
      </trkpt>
      <trkpt lat="48.25167" lon="-4.26219">
        <ele>69.400001525879</ele>
        <time>2017-01-08T09:04:11.000Z</time>
      </trkpt>
      <trkpt lat="48.25152" lon="-4.26196">
        <ele>70</ele>
        <time>2017-01-08T09:04:20.000Z</time>
      </trkpt>
      <trkpt lat="48.25142" lon="-4.26182">
        <ele>69.800003051758</ele>
        <time>2017-01-08T09:04:26.000Z</time>
      </trkpt>
      <trkpt lat="48.25128" lon="-4.26163">
        <ele>69.400001525879</ele>
        <time>2017-01-08T09:04:34.000Z</time>
      </trkpt>
      <trkpt lat="48.25116" lon="-4.26147">
        <ele>69.599998474121</ele>
        <time>2017-01-08T09:04:40.000Z</time>
      </trkpt>
      <trkpt lat="48.251" lon="-4.26126">
        <ele>70.199996948242</ele>
        <time>2017-01-08T09:04:46.000Z</time>
      </trkpt>
      <trkpt lat="48.25086" lon="-4.26114">
        <ele>69.800003051758</ele>
        <time>2017-01-08T09:04:49.000Z</time>
      </trkpt>
      <trkpt lat="48.25046" lon="-4.26099">
        <ele>66.800003051758</ele>
        <time>2017-01-08T09:04:55.000Z</time>
      </trkpt>
      <trkpt lat="48.25017" lon="-4.26091">
        <ele>66.599998474121</ele>
        <time>2017-01-08T09:04:59.000Z</time>
      </trkpt>
      <trkpt lat="48.25004" lon="-4.2609">
        <ele>66.599998474121</ele>
        <time>2017-01-08T09:05:01.000Z</time>
      </trkpt>
      <trkpt lat="48.24976" lon="-4.26095">
        <ele>65.800003051758</ele>
        <time>2017-01-08T09:05:06.000Z</time>
      </trkpt>
      <trkpt lat="48.24965" lon="-4.26093">
        <ele>65.400001525879</ele>
        <time>2017-01-08T09:05:08.000Z</time>
      </trkpt>
      <trkpt lat="48.24943" lon="-4.26109">
        <ele>65.400001525879</ele>
        <time>2017-01-08T09:05:12.000Z</time>
      </trkpt>
      <trkpt lat="48.24939" lon="-4.26118">
        <ele>65.599998474121</ele>
        <time>2017-01-08T09:05:13.000Z</time>
      </trkpt>
      <trkpt lat="48.24914" lon="-4.26145">
        <ele>65.599998474121</ele>
        <time>2017-01-08T09:05:18.000Z</time>
      </trkpt>
      <trkpt lat="48.24859" lon="-4.26164">
        <ele>64.400001525879</ele>
        <time>2017-01-08T09:05:25.000Z</time>
      </trkpt>
      <trkpt lat="48.24851" lon="-4.26166">
        <ele>64</ele>
        <time>2017-01-08T09:05:26.000Z</time>
      </trkpt>
      <trkpt lat="48.24813" lon="-4.26162">
        <ele>64.599998474121</ele>
        <time>2017-01-08T09:05:32.000Z</time>
      </trkpt>
      <trkpt lat="48.24791" lon="-4.26159">
        <ele>64.800003051758</ele>
        <time>2017-01-08T09:05:36.000Z</time>
      </trkpt>
      <trkpt lat="48.24768" lon="-4.26141">
        <ele>64.400001525879</ele>
        <time>2017-01-08T09:05:41.000Z</time>
      </trkpt>
      <trkpt lat="48.24764" lon="-4.26135">
        <ele>64</ele>
        <time>2017-01-08T09:05:42.000Z</time>
      </trkpt>
      <trkpt lat="48.24742" lon="-4.2608">
        <ele>64</ele>
        <time>2017-01-08T09:05:49.000Z</time>
      </trkpt>
      <trkpt lat="48.24726" lon="-4.26043">
        <ele>64.199996948242</ele>
        <time>2017-01-08T09:05:54.000Z</time>
      </trkpt>
      <trkpt lat="48.24709" lon="-4.26001">
        <ele>65.199996948242</ele>
        <time>2017-01-08T09:06:00.000Z</time>
      </trkpt>
      <trkpt lat="48.24703" lon="-4.25988">
        <ele>65.400001525879</ele>
        <time>2017-01-08T09:06:02.000Z</time>
      </trkpt>
      <trkpt lat="48.24684" lon="-4.25974">
        <ele>66</ele>
        <time>2017-01-08T09:06:07.000Z</time>
      </trkpt>
      <trkpt lat="48.24678" lon="-4.25975">
        <ele>66.400001525879</ele>
        <time>2017-01-08T09:06:09.000Z</time>
      </trkpt>
      <trkpt lat="48.24661" lon="-4.25982">
        <ele>68</ele>
        <time>2017-01-08T09:06:17.000Z</time>
      </trkpt>
      <trkpt lat="48.24647" lon="-4.25988">
        <ele>69.199996948242</ele>
        <time>2017-01-08T09:06:23.000Z</time>
      </trkpt>
      <trkpt lat="48.24637" lon="-4.25991">
        <ele>70.199996948242</ele>
        <time>2017-01-08T09:06:29.000Z</time>
      </trkpt>
      <trkpt lat="48.24627" lon="-4.25994">
        <ele>71</ele>
        <time>2017-01-08T09:06:35.000Z</time>
      </trkpt>
      <trkpt lat="48.24615" lon="-4.25996">
        <ele>72</ele>
        <time>2017-01-08T09:06:42.000Z</time>
      </trkpt>
      <trkpt lat="48.24612" lon="-4.2598">
        <ele>72</ele>
        <time>2017-01-08T09:06:47.000Z</time>
      </trkpt>
      <trkpt lat="48.24609" lon="-4.25952">
        <ele>72</ele>
        <time>2017-01-08T09:06:52.000Z</time>
      </trkpt>
      <trkpt lat="48.24605" lon="-4.25917">
        <ele>72.400001525879</ele>
        <time>2017-01-08T09:06:57.000Z</time>
      </trkpt>
      <trkpt lat="48.246" lon="-4.25851">
        <ele>73.199996948242</ele>
        <time>2017-01-08T09:07:05.000Z</time>
      </trkpt>
      <trkpt lat="48.24592" lon="-4.25792">
        <ele>72.599998474121</ele>
        <time>2017-01-08T09:07:13.000Z</time>
      </trkpt>
      <trkpt lat="48.24589" lon="-4.25778">
        <ele>73</ele>
        <time>2017-01-08T09:07:15.000Z</time>
      </trkpt>
      <trkpt lat="48.24587" lon="-4.25764">
        <ele>73.199996948242</ele>
        <time>2017-01-08T09:07:17.000Z</time>
      </trkpt>
      <trkpt lat="48.24579" lon="-4.25721">
        <ele>73.400001525879</ele>
        <time>2017-01-08T09:07:23.000Z</time>
      </trkpt>
      <trkpt lat="48.24568" lon="-4.25668">
        <ele>74</ele>
        <time>2017-01-08T09:07:31.000Z</time>
      </trkpt>
      <trkpt lat="48.24563" lon="-4.2564">
        <ele>74.199996948242</ele>
        <time>2017-01-08T09:07:35.000Z</time>
      </trkpt>
      <trkpt lat="48.24556" lon="-4.25598">
        <ele>74.199996948242</ele>
        <time>2017-01-08T09:07:41.000Z</time>
      </trkpt>
      <trkpt lat="48.24547" lon="-4.25544">
        <ele>75.599998474121</ele>
        <time>2017-01-08T09:07:49.000Z</time>
      </trkpt>
      <trkpt lat="48.24536" lon="-4.2549">
        <ele>77.599998474121</ele>
        <time>2017-01-08T09:07:57.000Z</time>
      </trkpt>
      <trkpt lat="48.24528" lon="-4.2544">
        <ele>78.599998474121</ele>
        <time>2017-01-08T09:08:04.000Z</time>
      </trkpt>
      <trkpt lat="48.24527" lon="-4.25397">
        <ele>78.599998474121</ele>
        <time>2017-01-08T09:08:09.000Z</time>
      </trkpt>
      <trkpt lat="48.24527" lon="-4.25345">
        <ele>77.599998474121</ele>
        <time>2017-01-08T09:08:14.000Z</time>
      </trkpt>
      <trkpt lat="48.24526" lon="-4.25272">
        <ele>74.599998474121</ele>
        <time>2017-01-08T09:08:20.000Z</time>
      </trkpt>
      <trkpt lat="48.24526" lon="-4.25201">
        <ele>66.599998474121</ele>
        <time>2017-01-08T09:08:26.000Z</time>
      </trkpt>
      <trkpt lat="48.24525" lon="-4.2514">
        <ele>63.200000762939</ele>
        <time>2017-01-08T09:08:31.000Z</time>
      </trkpt>
      <trkpt lat="48.24523" lon="-4.25035">
        <ele>61.400001525879</ele>
        <time>2017-01-08T09:08:40.000Z</time>
      </trkpt>
      <trkpt lat="48.24512" lon="-4.24994">
        <ele>62.400001525879</ele>
        <time>2017-01-08T09:08:44.000Z</time>
      </trkpt>
      <trkpt lat="48.2449" lon="-4.24975">
        <ele>63.799999237061</ele>
        <time>2017-01-08T09:08:48.000Z</time>
      </trkpt>
      <trkpt lat="48.24484" lon="-4.24974">
        <ele>64</ele>
        <time>2017-01-08T09:08:49.000Z</time>
      </trkpt>
      <trkpt lat="48.24447" lon="-4.24963">
        <ele>65.400001525879</ele>
        <time>2017-01-08T09:08:57.000Z</time>
      </trkpt>
      <trkpt lat="48.24416" lon="-4.2494">
        <ele>66.599998474121</ele>
        <time>2017-01-08T09:09:04.000Z</time>
      </trkpt>
      <trkpt lat="48.24388" lon="-4.24916">
        <ele>67.800003051758</ele>
        <time>2017-01-08T09:09:10.000Z</time>
      </trkpt>
      <trkpt lat="48.24378" lon="-4.24909">
        <ele>67.800003051758</ele>
        <time>2017-01-08T09:09:12.000Z</time>
      </trkpt>
      <trkpt lat="48.24342" lon="-4.24902">
        <ele>65.199996948242</ele>
        <time>2017-01-08T09:09:18.000Z</time>
      </trkpt>
      <trkpt lat="48.24305" lon="-4.24898">
        <ele>65.599998474121</ele>
        <time>2017-01-08T09:09:24.000Z</time>
      </trkpt>
      <trkpt lat="48.24271" lon="-4.24897">
        <ele>65.400001525879</ele>
        <time>2017-01-08T09:09:29.000Z</time>
      </trkpt>
      <trkpt lat="48.24259" lon="-4.24895">
        <ele>65</ele>
        <time>2017-01-08T09:09:31.000Z</time>
      </trkpt>
      <trkpt lat="48.24218" lon="-4.24888">
        <ele>63</ele>
        <time>2017-01-08T09:09:37.000Z</time>
      </trkpt>
      <trkpt lat="48.24198" lon="-4.24877">
        <ele>61.799999237061</ele>
        <time>2017-01-08T09:09:40.000Z</time>
      </trkpt>
      <trkpt lat="48.24176" lon="-4.24847">
        <ele>61.400001525879</ele>
        <time>2017-01-08T09:09:44.000Z</time>
      </trkpt>
      <trkpt lat="48.24176" lon="-4.24809">
        <ele>64.199996948242</ele>
        <time>2017-01-08T09:09:47.000Z</time>
      </trkpt>
      <trkpt lat="48.24191" lon="-4.24786">
        <ele>64.400001525879</ele>
        <time>2017-01-08T09:09:50.000Z</time>
      </trkpt>
      <trkpt lat="48.24209" lon="-4.24783">
        <ele>63.200000762939</ele>
        <time>2017-01-08T09:09:52.000Z</time>
      </trkpt>
      <trkpt lat="48.24282" lon="-4.24777">
        <ele>57.200000762939</ele>
        <time>2017-01-08T09:10:01.000Z</time>
      </trkpt>
      <trkpt lat="48.24301" lon="-4.24758">
        <ele>55.799999237061</ele>
        <time>2017-01-08T09:10:05.000Z</time>
      </trkpt>
      <trkpt lat="48.24297" lon="-4.24747">
        <ele>56.400001525879</ele>
        <time>2017-01-08T09:10:07.000Z</time>
      </trkpt>
      <trkpt lat="48.24284" lon="-4.24736">
        <ele>59</ele>
        <time>2017-01-08T09:10:12.000Z</time>
      </trkpt>
      <trkpt lat="48.2428" lon="-4.24734">
        <ele>59.799999237061</ele>
        <time>2017-01-08T09:10:14.000Z</time>
      </trkpt>
      <trkpt lat="48.24261" lon="-4.24725">
        <ele>63</ele>
        <time>2017-01-08T09:10:23.000Z</time>
      </trkpt>
      <trkpt lat="48.24246" lon="-4.24717">
        <ele>64.800003051758</ele>
        <time>2017-01-08T09:10:31.000Z</time>
      </trkpt>
      <trkpt lat="48.24236" lon="-4.24713">
        <ele>66.199996948242</ele>
        <time>2017-01-08T09:10:38.000Z</time>
      </trkpt>
      <trkpt lat="48.24227" lon="-4.24708">
        <ele>67.400001525879</ele>
        <time>2017-01-08T09:10:43.000Z</time>
      </trkpt>
      <trkpt lat="48.24216" lon="-4.24701">
        <ele>69</ele>
        <time>2017-01-08T09:10:50.000Z</time>
      </trkpt>
      <trkpt lat="48.24206" lon="-4.24696">
        <ele>70.400001525879</ele>
        <time>2017-01-08T09:10:56.000Z</time>
      </trkpt>
      <trkpt lat="48.24192" lon="-4.24688">
        <ele>72.400001525879</ele>
        <time>2017-01-08T09:11:05.000Z</time>
      </trkpt>
      <trkpt lat="48.24178" lon="-4.24678">
        <ele>74.199996948242</ele>
        <time>2017-01-08T09:11:14.000Z</time>
      </trkpt>
      <trkpt lat="48.24163" lon="-4.2467">
        <ele>74.599998474121</ele>
        <time>2017-01-08T09:11:23.000Z</time>
      </trkpt>
      <trkpt lat="48.24149" lon="-4.24659">
        <ele>75.199996948242</ele>
        <time>2017-01-08T09:11:32.000Z</time>
      </trkpt>
      <trkpt lat="48.24139" lon="-4.24648">
        <ele>76</ele>
        <time>2017-01-08T09:11:39.000Z</time>
      </trkpt>
      <trkpt lat="48.24134" lon="-4.24642">
        <ele>76.599998474121</ele>
        <time>2017-01-08T09:11:42.000Z</time>
      </trkpt>
      <trkpt lat="48.24121" lon="-4.24626">
        <ele>78.400001525879</ele>
        <time>2017-01-08T09:11:50.000Z</time>
      </trkpt>
      <trkpt lat="48.24107" lon="-4.24606">
        <ele>80.400001525879</ele>
        <time>2017-01-08T09:11:58.000Z</time>
      </trkpt>
      <trkpt lat="48.24094" lon="-4.24587">
        <ele>81.400001525879</ele>
        <time>2017-01-08T09:12:05.000Z</time>
      </trkpt>
      <trkpt lat="48.24081" lon="-4.24571">
        <ele>81.800003051758</ele>
        <time>2017-01-08T09:12:12.000Z</time>
      </trkpt>
      <trkpt lat="48.24065" lon="-4.24553">
        <ele>82.199996948242</ele>
        <time>2017-01-08T09:12:20.000Z</time>
      </trkpt>
      <trkpt lat="48.24054" lon="-4.24542">
        <ele>83</ele>
        <time>2017-01-08T09:12:25.000Z</time>
      </trkpt>
      <trkpt lat="48.24041" lon="-4.24529">
        <ele>83.800003051758</ele>
        <time>2017-01-08T09:12:31.000Z</time>
      </trkpt>
      <trkpt lat="48.24025" lon="-4.24514">
        <ele>84.400001525879</ele>
        <time>2017-01-08T09:12:38.000Z</time>
      </trkpt>
      <trkpt lat="48.24004" lon="-4.24494">
        <ele>85</ele>
        <time>2017-01-08T09:12:47.000Z</time>
      </trkpt>
      <trkpt lat="48.23989" lon="-4.24476">
        <ele>85.199996948242</ele>
        <time>2017-01-08T09:12:53.000Z</time>
      </trkpt>
      <trkpt lat="48.2396" lon="-4.24441">
        <ele>84.599998474121</ele>
        <time>2017-01-08T09:13:03.000Z</time>
      </trkpt>
      <trkpt lat="48.23938" lon="-4.24414">
        <ele>83.599998474121</ele>
        <time>2017-01-08T09:13:10.000Z</time>
      </trkpt>
      <trkpt lat="48.23914" lon="-4.24387">
        <ele>84.199996948242</ele>
        <time>2017-01-08T09:13:17.000Z</time>
      </trkpt>
      <trkpt lat="48.23883" lon="-4.24348">
        <ele>85.199996948242</ele>
        <time>2017-01-08T09:13:26.000Z</time>
      </trkpt>
      <trkpt lat="48.23851" lon="-4.24311">
        <ele>86.199996948242</ele>
        <time>2017-01-08T09:13:35.000Z</time>
      </trkpt>
      <trkpt lat="48.23827" lon="-4.24297">
        <ele>88.199996948242</ele>
        <time>2017-01-08T09:13:42.000Z</time>
      </trkpt>
      <trkpt lat="48.23805" lon="-4.24287">
        <ele>89.400001525879</ele>
        <time>2017-01-08T09:13:50.000Z</time>
      </trkpt>
      <trkpt lat="48.23789" lon="-4.24283">
        <ele>90.400001525879</ele>
        <time>2017-01-08T09:13:56.000Z</time>
      </trkpt>
      <trkpt lat="48.23775" lon="-4.24288">
        <ele>91.199996948242</ele>
        <time>2017-01-08T09:14:01.000Z</time>
      </trkpt>
      <trkpt lat="48.23764" lon="-4.24291">
        <ele>91.800003051758</ele>
        <time>2017-01-08T09:14:06.000Z</time>
      </trkpt>
      <trkpt lat="48.23748" lon="-4.24298">
        <ele>93.199996948242</ele>
        <time>2017-01-08T09:14:14.000Z</time>
      </trkpt>
      <trkpt lat="48.23732" lon="-4.24303">
        <ele>94.400001525879</ele>
        <time>2017-01-08T09:14:21.000Z</time>
      </trkpt>
      <trkpt lat="48.23715" lon="-4.24306">
        <ele>95.800003051758</ele>
        <time>2017-01-08T09:14:28.000Z</time>
      </trkpt>
      <trkpt lat="48.23701" lon="-4.24303">
        <ele>96.599998474121</ele>
        <time>2017-01-08T09:14:34.000Z</time>
      </trkpt>
      <trkpt lat="48.23689" lon="-4.243">
        <ele>97.599998474121</ele>
        <time>2017-01-08T09:14:40.000Z</time>
      </trkpt>
      <trkpt lat="48.23677" lon="-4.24296">
        <ele>98.400001525879</ele>
        <time>2017-01-08T09:14:46.000Z</time>
      </trkpt>
      <trkpt lat="48.23668" lon="-4.24289">
        <ele>99.400001525879</ele>
        <time>2017-01-08T09:14:51.000Z</time>
      </trkpt>
      <trkpt lat="48.23656" lon="-4.2428">
        <ele>100.59999847412</ele>
        <time>2017-01-08T09:14:58.000Z</time>
      </trkpt>
      <trkpt lat="48.23646" lon="-4.24274">
        <ele>101.59999847412</ele>
        <time>2017-01-08T09:15:04.000Z</time>
      </trkpt>
      <trkpt lat="48.23634" lon="-4.24268">
        <ele>103</ele>
        <time>2017-01-08T09:15:11.000Z</time>
      </trkpt>
      <trkpt lat="48.23624" lon="-4.24263">
        <ele>104.19999694824</ele>
        <time>2017-01-08T09:15:17.000Z</time>
      </trkpt>
      <trkpt lat="48.2361" lon="-4.24255">
        <ele>105.40000152588</ele>
        <time>2017-01-08T09:15:25.000Z</time>
      </trkpt>
      <trkpt lat="48.236" lon="-4.24248">
        <ele>106</ele>
        <time>2017-01-08T09:15:31.000Z</time>
      </trkpt>
      <trkpt lat="48.23589" lon="-4.24241">
        <ele>106.80000305176</ele>
        <time>2017-01-08T09:15:38.000Z</time>
      </trkpt>
      <trkpt lat="48.23579" lon="-4.24238">
        <ele>107.59999847412</ele>
        <time>2017-01-08T09:15:44.000Z</time>
      </trkpt>
      <trkpt lat="48.23569" lon="-4.24235">
        <ele>108.40000152588</ele>
        <time>2017-01-08T09:15:50.000Z</time>
      </trkpt>
      <trkpt lat="48.23567" lon="-4.24234">
        <ele>108.59999847412</ele>
        <time>2017-01-08T09:15:51.000Z</time>
      </trkpt>
      <trkpt lat="48.23559" lon="-4.24231">
        <ele>109.40000152588</ele>
        <time>2017-01-08T09:15:57.000Z</time>
      </trkpt>
      <trkpt lat="48.23546" lon="-4.24225">
        <ele>111.19999694824</ele>
        <time>2017-01-08T09:16:05.000Z</time>
      </trkpt>
      <trkpt lat="48.23535" lon="-4.24222">
        <ele>112.59999847412</ele>
        <time>2017-01-08T09:16:11.000Z</time>
      </trkpt>
      <trkpt lat="48.23531" lon="-4.24219">
        <ele>113.19999694824</ele>
        <time>2017-01-08T09:16:14.000Z</time>
      </trkpt>
      <trkpt lat="48.23518" lon="-4.24215">
        <ele>115</ele>
        <time>2017-01-08T09:16:21.000Z</time>
      </trkpt>
      <trkpt lat="48.23506" lon="-4.24209">
        <ele>116.40000152588</ele>
        <time>2017-01-08T09:16:29.000Z</time>
      </trkpt>
      <trkpt lat="48.23499" lon="-4.24204">
        <ele>116.80000305176</ele>
        <time>2017-01-08T09:16:34.000Z</time>
      </trkpt>
      <trkpt lat="48.23487" lon="-4.24202">
        <ele>117.59999847412</ele>
        <time>2017-01-08T09:16:42.000Z</time>
      </trkpt>
      <trkpt lat="48.23477" lon="-4.24197">
        <ele>118.19999694824</ele>
        <time>2017-01-08T09:16:47.000Z</time>
      </trkpt>
      <trkpt lat="48.23468" lon="-4.24189">
        <ele>118.59999847412</ele>
        <time>2017-01-08T09:16:53.000Z</time>
      </trkpt>
      <trkpt lat="48.2346" lon="-4.24185">
        <ele>119</ele>
        <time>2017-01-08T09:16:58.000Z</time>
      </trkpt>
      <trkpt lat="48.23446" lon="-4.24179">
        <ele>119.80000305176</ele>
        <time>2017-01-08T09:17:06.000Z</time>
      </trkpt>
      <trkpt lat="48.23435" lon="-4.24169">
        <ele>122</ele>
        <time>2017-01-08T09:17:13.000Z</time>
      </trkpt>
      <trkpt lat="48.23425" lon="-4.24161">
        <ele>124</ele>
        <time>2017-01-08T09:17:19.000Z</time>
      </trkpt>
      <trkpt lat="48.23411" lon="-4.24151">
        <ele>126.40000152588</ele>
        <time>2017-01-08T09:17:27.000Z</time>
      </trkpt>
      <trkpt lat="48.23399" lon="-4.24142">
        <ele>128.39999389648</ele>
        <time>2017-01-08T09:17:35.000Z</time>
      </trkpt>
      <trkpt lat="48.23385" lon="-4.24133">
        <ele>129.39999389648</ele>
        <time>2017-01-08T09:17:43.000Z</time>
      </trkpt>
      <trkpt lat="48.23374" lon="-4.24125">
        <ele>130.19999694824</ele>
        <time>2017-01-08T09:17:50.000Z</time>
      </trkpt>
      <trkpt lat="48.23361" lon="-4.24118">
        <ele>131</ele>
        <time>2017-01-08T09:17:57.000Z</time>
      </trkpt>
      <trkpt lat="48.23351" lon="-4.24114">
        <ele>131.60000610352</ele>
        <time>2017-01-08T09:18:02.000Z</time>
      </trkpt>
      <trkpt lat="48.23341" lon="-4.24107">
        <ele>132.19999694824</ele>
        <time>2017-01-08T09:18:08.000Z</time>
      </trkpt>
      <trkpt lat="48.23329" lon="-4.24099">
        <ele>132.60000610352</ele>
        <time>2017-01-08T09:18:15.000Z</time>
      </trkpt>
      <trkpt lat="48.23322" lon="-4.24092">
        <ele>133</ele>
        <time>2017-01-08T09:18:21.000Z</time>
      </trkpt>
      <trkpt lat="48.23311" lon="-4.24083">
        <ele>133.39999389648</ele>
        <time>2017-01-08T09:18:28.000Z</time>
      </trkpt>
      <trkpt lat="48.23296" lon="-4.24071">
        <ele>134</ele>
        <time>2017-01-08T09:18:36.000Z</time>
      </trkpt>
      <trkpt lat="48.23285" lon="-4.24064">
        <ele>134.80000305176</ele>
        <time>2017-01-08T09:18:42.000Z</time>
      </trkpt>
      <trkpt lat="48.2327" lon="-4.24053">
        <ele>135.80000305176</ele>
        <time>2017-01-08T09:18:50.000Z</time>
      </trkpt>
      <trkpt lat="48.23255" lon="-4.24042">
        <ele>136.80000305176</ele>
        <time>2017-01-08T09:18:58.000Z</time>
      </trkpt>
      <trkpt lat="48.23246" lon="-4.24037">
        <ele>137.39999389648</ele>
        <time>2017-01-08T09:19:03.000Z</time>
      </trkpt>
      <trkpt lat="48.23232" lon="-4.24026">
        <ele>138.60000610352</ele>
        <time>2017-01-08T09:19:10.000Z</time>
      </trkpt>
      <trkpt lat="48.23218" lon="-4.24015">
        <ele>140</ele>
        <time>2017-01-08T09:19:18.000Z</time>
      </trkpt>
      <trkpt lat="48.23206" lon="-4.24009">
        <ele>141.19999694824</ele>
        <time>2017-01-08T09:19:24.000Z</time>
      </trkpt>
      <trkpt lat="48.23193" lon="-4.23999">
        <ele>142.19999694824</ele>
        <time>2017-01-08T09:19:31.000Z</time>
      </trkpt>
      <trkpt lat="48.23182" lon="-4.23989">
        <ele>142.80000305176</ele>
        <time>2017-01-08T09:19:37.000Z</time>
      </trkpt>
      <trkpt lat="48.2318" lon="-4.23983">
        <ele>143</ele>
        <time>2017-01-08T09:19:39.000Z</time>
      </trkpt>
      <trkpt lat="48.23185" lon="-4.23971">
        <ele>142.60000610352</ele>
        <time>2017-01-08T09:19:43.000Z</time>
      </trkpt>
      <trkpt lat="48.23192" lon="-4.23956">
        <ele>142.19999694824</ele>
        <time>2017-01-08T09:19:48.000Z</time>
      </trkpt>
      <trkpt lat="48.23191" lon="-4.23956">
        <ele>142.19999694824</ele>
        <time>2017-01-08T09:19:50.000Z</time>
      </trkpt>
      <trkpt lat="48.23178" lon="-4.23945">
        <ele>143</ele>
        <time>2017-01-08T09:20:09.000Z</time>
      </trkpt>
      <trkpt lat="48.23176" lon="-4.23944">
        <ele>143.39999389648</ele>
        <time>2017-01-08T09:20:11.000Z</time>
      </trkpt>
      <trkpt lat="48.23166" lon="-4.23939">
        <ele>144.80000305176</ele>
        <time>2017-01-08T09:20:19.000Z</time>
      </trkpt>
      <trkpt lat="48.23155" lon="-4.23935">
        <ele>146.19999694824</ele>
        <time>2017-01-08T09:20:25.000Z</time>
      </trkpt>
      <trkpt lat="48.23145" lon="-4.23929">
        <ele>147.60000610352</ele>
        <time>2017-01-08T09:20:32.000Z</time>
      </trkpt>
      <trkpt lat="48.23137" lon="-4.23924">
        <ele>148.60000610352</ele>
        <time>2017-01-08T09:20:37.000Z</time>
      </trkpt>
      <trkpt lat="48.23126" lon="-4.23906">
        <ele>149.39999389648</ele>
        <time>2017-01-08T09:20:45.000Z</time>
      </trkpt>
      <trkpt lat="48.23122" lon="-4.23891">
        <ele>149.19999694824</ele>
        <time>2017-01-08T09:20:49.000Z</time>
      </trkpt>
      <trkpt lat="48.23117" lon="-4.23867">
        <ele>148.60000610352</ele>
        <time>2017-01-08T09:20:55.000Z</time>
      </trkpt>
      <trkpt lat="48.23113" lon="-4.23843">
        <ele>148.80000305176</ele>
        <time>2017-01-08T09:21:01.000Z</time>
      </trkpt>
      <trkpt lat="48.23107" lon="-4.23811">
        <ele>149</ele>
        <time>2017-01-08T09:21:07.000Z</time>
      </trkpt>
      <trkpt lat="48.23097" lon="-4.2377">
        <ele>149.19999694824</ele>
        <time>2017-01-08T09:21:13.000Z</time>
      </trkpt>
      <trkpt lat="48.23075" lon="-4.23732">
        <ele>149.19999694824</ele>
        <time>2017-01-08T09:21:20.000Z</time>
      </trkpt>
      <trkpt lat="48.23051" lon="-4.23699">
        <ele>147.19999694824</ele>
        <time>2017-01-08T09:21:27.000Z</time>
      </trkpt>
      <trkpt lat="48.23044" lon="-4.23691">
        <ele>146.80000305176</ele>
        <time>2017-01-08T09:21:29.000Z</time>
      </trkpt>
      <trkpt lat="48.23026" lon="-4.23674">
        <ele>146.80000305176</ele>
        <time>2017-01-08T09:21:34.000Z</time>
      </trkpt>
      <trkpt lat="48.22995" lon="-4.23662">
        <ele>148</ele>
        <time>2017-01-08T09:21:43.000Z</time>
      </trkpt>
      <trkpt lat="48.22981" lon="-4.23655">
        <ele>148.60000610352</ele>
        <time>2017-01-08T09:21:48.000Z</time>
      </trkpt>
      <trkpt lat="48.22973" lon="-4.23649">
        <ele>149.19999694824</ele>
        <time>2017-01-08T09:21:53.000Z</time>
      </trkpt>
      <trkpt lat="48.22964" lon="-4.23644">
        <ele>150.19999694824</ele>
        <time>2017-01-08T09:21:57.000Z</time>
      </trkpt>
      <trkpt lat="48.22946" lon="-4.23634">
        <ele>152.19999694824</ele>
        <time>2017-01-08T09:22:06.000Z</time>
      </trkpt>
      <trkpt lat="48.22934" lon="-4.23626">
        <ele>153.60000610352</ele>
        <time>2017-01-08T09:22:13.000Z</time>
      </trkpt>
      <trkpt lat="48.22925" lon="-4.23621">
        <ele>154.39999389648</ele>
        <time>2017-01-08T09:22:20.000Z</time>
      </trkpt>
      <trkpt lat="48.22924" lon="-4.23621">
        <ele>154.60000610352</ele>
        <time>2017-01-08T09:22:21.000Z</time>
      </trkpt>
      <trkpt lat="48.22917" lon="-4.23618">
        <ele>155.19999694824</ele>
        <time>2017-01-08T09:22:26.000Z</time>
      </trkpt>
      <trkpt lat="48.22904" lon="-4.23611">
        <ele>156.60000610352</ele>
        <time>2017-01-08T09:22:34.000Z</time>
      </trkpt>
      <trkpt lat="48.22892" lon="-4.23603">
        <ele>158</ele>
        <time>2017-01-08T09:22:41.000Z</time>
      </trkpt>
      <trkpt lat="48.22881" lon="-4.23593">
        <ele>159</ele>
        <time>2017-01-08T09:22:48.000Z</time>
      </trkpt>
      <trkpt lat="48.22874" lon="-4.23582">
        <ele>159.60000610352</ele>
        <time>2017-01-08T09:22:54.000Z</time>
      </trkpt>
      <trkpt lat="48.22865" lon="-4.23567">
        <ele>161</ele>
        <time>2017-01-08T09:23:01.000Z</time>
      </trkpt>
      <trkpt lat="48.22853" lon="-4.23545">
        <ele>162.80000305176</ele>
        <time>2017-01-08T09:23:10.000Z</time>
      </trkpt>
      <trkpt lat="48.22844" lon="-4.23531">
        <ele>164.19999694824</ele>
        <time>2017-01-08T09:23:17.000Z</time>
      </trkpt>
      <trkpt lat="48.22834" lon="-4.23522">
        <ele>165</ele>
        <time>2017-01-08T09:23:23.000Z</time>
      </trkpt>
      <trkpt lat="48.22822" lon="-4.23513">
        <ele>166.19999694824</ele>
        <time>2017-01-08T09:23:31.000Z</time>
      </trkpt>
      <trkpt lat="48.22812" lon="-4.23506">
        <ele>167.19999694824</ele>
        <time>2017-01-08T09:23:37.000Z</time>
      </trkpt>
      <trkpt lat="48.228" lon="-4.23498">
        <ele>168.19999694824</ele>
        <time>2017-01-08T09:23:44.000Z</time>
      </trkpt>
      <trkpt lat="48.22788" lon="-4.23492">
        <ele>169.39999389648</ele>
        <time>2017-01-08T09:23:51.000Z</time>
      </trkpt>
      <trkpt lat="48.22774" lon="-4.23479">
        <ele>171</ele>
        <time>2017-01-08T09:24:00.000Z</time>
      </trkpt>
      <trkpt lat="48.22765" lon="-4.23468">
        <ele>172</ele>
        <time>2017-01-08T09:24:07.000Z</time>
      </trkpt>
      <trkpt lat="48.22755" lon="-4.23457">
        <ele>173</ele>
        <time>2017-01-08T09:24:15.000Z</time>
      </trkpt>
      <trkpt lat="48.22747" lon="-4.23448">
        <ele>174.19999694824</ele>
        <time>2017-01-08T09:24:21.000Z</time>
      </trkpt>
      <trkpt lat="48.22736" lon="-4.23436">
        <ele>176.39999389648</ele>
        <time>2017-01-08T09:24:28.000Z</time>
      </trkpt>
      <trkpt lat="48.22728" lon="-4.23426">
        <ele>178</ele>
        <time>2017-01-08T09:24:34.000Z</time>
      </trkpt>
      <trkpt lat="48.22717" lon="-4.23415">
        <ele>180.19999694824</ele>
        <time>2017-01-08T09:24:41.000Z</time>
      </trkpt>
      <trkpt lat="48.22703" lon="-4.23402">
        <ele>182.39999389648</ele>
        <time>2017-01-08T09:24:50.000Z</time>
      </trkpt>
      <trkpt lat="48.22688" lon="-4.23386">
        <ele>184.39999389648</ele>
        <time>2017-01-08T09:24:59.000Z</time>
      </trkpt>
      <trkpt lat="48.22678" lon="-4.23372">
        <ele>186</ele>
        <time>2017-01-08T09:25:07.000Z</time>
      </trkpt>
      <trkpt lat="48.22675" lon="-4.23369">
        <ele>186.39999389648</ele>
        <time>2017-01-08T09:25:09.000Z</time>
      </trkpt>
      <trkpt lat="48.22665" lon="-4.23351">
        <ele>187.80000305176</ele>
        <time>2017-01-08T09:25:17.000Z</time>
      </trkpt>
      <trkpt lat="48.22657" lon="-4.23335">
        <ele>189</ele>
        <time>2017-01-08T09:25:25.000Z</time>
      </trkpt>
      <trkpt lat="48.22651" lon="-4.2333">
        <ele>189.80000305176</ele>
        <time>2017-01-08T09:25:29.000Z</time>
      </trkpt>
      <trkpt lat="48.22643" lon="-4.23335">
        <ele>190.60000610352</ele>
        <time>2017-01-08T09:25:35.000Z</time>
      </trkpt>
      <trkpt lat="48.22639" lon="-4.23348">
        <ele>190.60000610352</ele>
        <time>2017-01-08T09:25:40.000Z</time>
      </trkpt>
      <trkpt lat="48.22635" lon="-4.23366">
        <ele>190.80000305176</ele>
        <time>2017-01-08T09:25:46.000Z</time>
      </trkpt>
      <trkpt lat="48.22631" lon="-4.23387">
        <ele>191.19999694824</ele>
        <time>2017-01-08T09:25:53.000Z</time>
      </trkpt>
      <trkpt lat="48.22628" lon="-4.23411">
        <ele>191.39999389648</ele>
        <time>2017-01-08T09:26:00.000Z</time>
      </trkpt>
      <trkpt lat="48.22628" lon="-4.23438">
        <ele>191.19999694824</ele>
        <time>2017-01-08T09:26:07.000Z</time>
      </trkpt>
      <trkpt lat="48.22629" lon="-4.23472">
        <ele>190.39999389648</ele>
        <time>2017-01-08T09:26:13.000Z</time>
      </trkpt>
      <trkpt lat="48.22628" lon="-4.23501">
        <ele>189.80000305176</ele>
        <time>2017-01-08T09:26:19.000Z</time>
      </trkpt>
      <trkpt lat="48.22619" lon="-4.23533">
        <ele>190.39999389648</ele>
        <time>2017-01-08T09:26:26.000Z</time>
      </trkpt>
      <trkpt lat="48.22608" lon="-4.23564">
        <ele>192</ele>
        <time>2017-01-08T09:26:34.000Z</time>
      </trkpt>
      <trkpt lat="48.22597" lon="-4.23599">
        <ele>193.60000610352</ele>
        <time>2017-01-08T09:26:44.000Z</time>
      </trkpt>
      <trkpt lat="48.22592" lon="-4.23615">
        <ele>194.39999389648</ele>
        <time>2017-01-08T09:26:49.000Z</time>
      </trkpt>
      <trkpt lat="48.22581" lon="-4.23652">
        <ele>195.60000610352</ele>
        <time>2017-01-08T09:27:00.000Z</time>
      </trkpt>
      <trkpt lat="48.22576" lon="-4.23666">
        <ele>196</ele>
        <time>2017-01-08T09:27:06.000Z</time>
      </trkpt>
      <trkpt lat="48.22572" lon="-4.23679">
        <ele>196.60000610352</ele>
        <time>2017-01-08T09:27:11.000Z</time>
      </trkpt>
      <trkpt lat="48.22563" lon="-4.23704">
        <ele>197.60000610352</ele>
        <time>2017-01-08T09:27:19.000Z</time>
      </trkpt>
      <trkpt lat="48.22553" lon="-4.23732">
        <ele>199</ele>
        <time>2017-01-08T09:27:28.000Z</time>
      </trkpt>
      <trkpt lat="48.22547" lon="-4.2375">
        <ele>199.60000610352</ele>
        <time>2017-01-08T09:27:34.000Z</time>
      </trkpt>
      <trkpt lat="48.22539" lon="-4.23775">
        <ele>199.80000305176</ele>
        <time>2017-01-08T09:27:42.000Z</time>
      </trkpt>
      <trkpt lat="48.22534" lon="-4.23799">
        <ele>200.80000305176</ele>
        <time>2017-01-08T09:27:50.000Z</time>
      </trkpt>
      <trkpt lat="48.2253" lon="-4.23825">
        <ele>201.80000305176</ele>
        <time>2017-01-08T09:27:59.000Z</time>
      </trkpt>
      <trkpt lat="48.22528" lon="-4.23844">
        <ele>202.39999389648</ele>
        <time>2017-01-08T09:28:06.000Z</time>
      </trkpt>
      <trkpt lat="48.22525" lon="-4.23866">
        <ele>203.19999694824</ele>
        <time>2017-01-08T09:28:13.000Z</time>
      </trkpt>
      <trkpt lat="48.22523" lon="-4.23883">
        <ele>203.39999389648</ele>
        <time>2017-01-08T09:28:18.000Z</time>
      </trkpt>
      <trkpt lat="48.2252" lon="-4.23904">
        <ele>203.80000305176</ele>
        <time>2017-01-08T09:28:25.000Z</time>
      </trkpt>
      <trkpt lat="48.22517" lon="-4.23922">
        <ele>204.19999694824</ele>
        <time>2017-01-08T09:28:31.000Z</time>
      </trkpt>
      <trkpt lat="48.22513" lon="-4.23943">
        <ele>204.80000305176</ele>
        <time>2017-01-08T09:28:38.000Z</time>
      </trkpt>
      <trkpt lat="48.22506" lon="-4.23958">
        <ele>206</ele>
        <time>2017-01-08T09:28:45.000Z</time>
      </trkpt>
      <trkpt lat="48.22496" lon="-4.2397">
        <ele>207.39999389648</ele>
        <time>2017-01-08T09:28:53.000Z</time>
      </trkpt>
      <trkpt lat="48.22487" lon="-4.23985">
        <ele>208.60000610352</ele>
        <time>2017-01-08T09:29:00.000Z</time>
      </trkpt>
      <trkpt lat="48.22483" lon="-4.24">
        <ele>209.60000610352</ele>
        <time>2017-01-08T09:29:06.000Z</time>
      </trkpt>
      <trkpt lat="48.22481" lon="-4.24016">
        <ele>210.60000610352</ele>
        <time>2017-01-08T09:29:12.000Z</time>
      </trkpt>
      <trkpt lat="48.22481" lon="-4.2403">
        <ele>211.39999389648</ele>
        <time>2017-01-08T09:29:18.000Z</time>
      </trkpt>
      <trkpt lat="48.2248" lon="-4.24047">
        <ele>212.19999694824</ele>
        <time>2017-01-08T09:29:24.000Z</time>
      </trkpt>
      <trkpt lat="48.22478" lon="-4.2407">
        <ele>213.39999389648</ele>
        <time>2017-01-08T09:29:32.000Z</time>
      </trkpt>
      <trkpt lat="48.22475" lon="-4.24094">
        <ele>214.39999389648</ele>
        <time>2017-01-08T09:29:41.000Z</time>
      </trkpt>
      <trkpt lat="48.22474" lon="-4.24095">
        <ele>214.60000610352</ele>
        <time>2017-01-08T09:29:42.000Z</time>
      </trkpt>
      <trkpt lat="48.22466" lon="-4.24095">
        <ele>215.19999694824</ele>
        <time>2017-01-08T09:29:47.000Z</time>
      </trkpt>
      <trkpt lat="48.22463" lon="-4.24095">
        <ele>215.60000610352</ele>
        <time>2017-01-08T09:29:51.000Z</time>
      </trkpt>
      <trkpt lat="48.22452" lon="-4.24094">
        <ele>216.39999389648</ele>
        <time>2017-01-08T09:29:57.000Z</time>
      </trkpt>
      <trkpt lat="48.2244" lon="-4.24083">
        <ele>216.80000305176</ele>
        <time>2017-01-08T09:30:05.000Z</time>
      </trkpt>
      <trkpt lat="48.22429" lon="-4.24074">
        <ele>217.19999694824</ele>
        <time>2017-01-08T09:30:12.000Z</time>
      </trkpt>
      <trkpt lat="48.22419" lon="-4.24068">
        <ele>217.39999389648</ele>
        <time>2017-01-08T09:30:18.000Z</time>
      </trkpt>
      <trkpt lat="48.22409" lon="-4.24063">
        <ele>217.80000305176</ele>
        <time>2017-01-08T09:30:24.000Z</time>
      </trkpt>
      <trkpt lat="48.22394" lon="-4.24058">
        <ele>218.80000305176</ele>
        <time>2017-01-08T09:30:33.000Z</time>
      </trkpt>
      <trkpt lat="48.2238" lon="-4.24058">
        <ele>220.19999694824</ele>
        <time>2017-01-08T09:30:41.000Z</time>
      </trkpt>
      <trkpt lat="48.22367" lon="-4.24057">
        <ele>221.80000305176</ele>
        <time>2017-01-08T09:30:50.000Z</time>
      </trkpt>
      <trkpt lat="48.22354" lon="-4.24053">
        <ele>223</ele>
        <time>2017-01-08T09:30:58.000Z</time>
      </trkpt>
      <trkpt lat="48.22343" lon="-4.24051">
        <ele>224.19999694824</ele>
        <time>2017-01-08T09:31:06.000Z</time>
      </trkpt>
      <trkpt lat="48.22338" lon="-4.2405">
        <ele>224.39999389648</ele>
        <time>2017-01-08T09:31:09.000Z</time>
      </trkpt>
      <trkpt lat="48.22336" lon="-4.24048">
        <ele>224.60000610352</ele>
        <time>2017-01-08T09:31:13.000Z</time>
      </trkpt>
      <trkpt lat="48.22336" lon="-4.24048">
        <ele>224.60000610352</ele>
        <time>2017-01-08T09:31:14.000Z</time>
      </trkpt>
      <trkpt lat="48.22317" lon="-4.24046">
        <ele>225.80000305176</ele>
        <time>2017-01-08T09:31:47.000Z</time>
      </trkpt>
      <trkpt lat="48.22313" lon="-4.24044">
        <ele>226</ele>
        <time>2017-01-08T09:31:52.000Z</time>
      </trkpt>
      <trkpt lat="48.22311" lon="-4.24043">
        <ele>226</ele>
        <time>2017-01-08T09:31:57.000Z</time>
      </trkpt>
      <trkpt lat="48.22298" lon="-4.24043">
        <ele>226.80000305176</ele>
        <time>2017-01-08T09:32:04.000Z</time>
      </trkpt>
      <trkpt lat="48.22282" lon="-4.24041">
        <ele>227.80000305176</ele>
        <time>2017-01-08T09:32:10.000Z</time>
      </trkpt>
      <trkpt lat="48.22265" lon="-4.2404">
        <ele>228.80000305176</ele>
        <time>2017-01-08T09:32:17.000Z</time>
      </trkpt>
      <trkpt lat="48.22252" lon="-4.2404">
        <ele>229.60000610352</ele>
        <time>2017-01-08T09:32:24.000Z</time>
      </trkpt>
      <trkpt lat="48.22237" lon="-4.24037">
        <ele>231.19999694824</ele>
        <time>2017-01-08T09:32:32.000Z</time>
      </trkpt>
      <trkpt lat="48.22227" lon="-4.24033">
        <ele>232.19999694824</ele>
        <time>2017-01-08T09:32:38.000Z</time>
      </trkpt>
      <trkpt lat="48.22214" lon="-4.24023">
        <ele>233.80000305176</ele>
        <time>2017-01-08T09:32:47.000Z</time>
      </trkpt>
      <trkpt lat="48.22204" lon="-4.24017">
        <ele>235</ele>
        <time>2017-01-08T09:32:54.000Z</time>
      </trkpt>
      <trkpt lat="48.22195" lon="-4.24015">
        <ele>236</ele>
        <time>2017-01-08T09:33:01.000Z</time>
      </trkpt>
      <trkpt lat="48.22186" lon="-4.24012">
        <ele>237.19999694824</ele>
        <time>2017-01-08T09:33:07.000Z</time>
      </trkpt>
      <trkpt lat="48.22182" lon="-4.24011">
        <ele>237.80000305176</ele>
        <time>2017-01-08T09:33:10.000Z</time>
      </trkpt>
      <trkpt lat="48.22167" lon="-4.24012">
        <ele>240</ele>
        <time>2017-01-08T09:33:20.000Z</time>
      </trkpt>
      <trkpt lat="48.22154" lon="-4.24016">
        <ele>241.80000305176</ele>
        <time>2017-01-08T09:33:28.000Z</time>
      </trkpt>
      <trkpt lat="48.22141" lon="-4.24019">
        <ele>244</ele>
        <time>2017-01-08T09:33:36.000Z</time>
      </trkpt>
      <trkpt lat="48.22131" lon="-4.2402">
        <ele>245.60000610352</ele>
        <time>2017-01-08T09:33:42.000Z</time>
      </trkpt>
      <trkpt lat="48.22121" lon="-4.24026">
        <ele>246.80000305176</ele>
        <time>2017-01-08T09:33:50.000Z</time>
      </trkpt>
      <trkpt lat="48.22116" lon="-4.24026">
        <ele>247.60000610352</ele>
        <time>2017-01-08T09:33:54.000Z</time>
      </trkpt>
      <trkpt lat="48.22116" lon="-4.24026">
        <ele>247.60000610352</ele>
        <time>2017-01-08T09:33:57.000Z</time>
      </trkpt>
      <trkpt lat="48.22083" lon="-4.24051">
        <ele>250.39999389648</ele>
        <time>2017-01-08T09:34:36.000Z</time>
      </trkpt>
      <trkpt lat="48.22081" lon="-4.24052">
        <ele>250.60000610352</ele>
        <time>2017-01-08T09:34:40.000Z</time>
      </trkpt>
      <trkpt lat="48.22075" lon="-4.24057">
        <ele>250.80000305176</ele>
        <time>2017-01-08T09:34:48.000Z</time>
      </trkpt>
      <trkpt lat="48.22063" lon="-4.24066">
        <ele>251.39999389648</ele>
        <time>2017-01-08T09:34:55.000Z</time>
      </trkpt>
      <trkpt lat="48.2205" lon="-4.24078">
        <ele>251.80000305176</ele>
        <time>2017-01-08T09:35:03.000Z</time>
      </trkpt>
      <trkpt lat="48.22039" lon="-4.24085">
        <ele>252.39999389648</ele>
        <time>2017-01-08T09:35:09.000Z</time>
      </trkpt>
      <trkpt lat="48.22026" lon="-4.24094">
        <ele>253.19999694824</ele>
        <time>2017-01-08T09:35:16.000Z</time>
      </trkpt>
      <trkpt lat="48.22016" lon="-4.24101">
        <ele>253.80000305176</ele>
        <time>2017-01-08T09:35:22.000Z</time>
      </trkpt>
      <trkpt lat="48.22001" lon="-4.2411">
        <ele>254.19999694824</ele>
        <time>2017-01-08T09:35:30.000Z</time>
      </trkpt>
      <trkpt lat="48.21989" lon="-4.24117">
        <ele>254.19999694824</ele>
        <time>2017-01-08T09:35:34.000Z</time>
      </trkpt>
      <trkpt lat="48.21985" lon="-4.2412">
        <ele>254.19999694824</ele>
        <time>2017-01-08T09:35:36.000Z</time>
      </trkpt>
      <trkpt lat="48.21971" lon="-4.24123">
        <ele>254.80000305176</ele>
        <time>2017-01-08T09:35:44.000Z</time>
      </trkpt>
      <trkpt lat="48.21963" lon="-4.24126">
        <ele>255</ele>
        <time>2017-01-08T09:35:49.000Z</time>
      </trkpt>
      <trkpt lat="48.21951" lon="-4.24132">
        <ele>255.39999389648</ele>
        <time>2017-01-08T09:35:55.000Z</time>
      </trkpt>
      <trkpt lat="48.21934" lon="-4.24142">
        <ele>255.39999389648</ele>
        <time>2017-01-08T09:36:03.000Z</time>
      </trkpt>
      <trkpt lat="48.21923" lon="-4.24145">
        <ele>255.60000610352</ele>
        <time>2017-01-08T09:36:10.000Z</time>
      </trkpt>
      <trkpt lat="48.21911" lon="-4.24149">
        <ele>255.60000610352</ele>
        <time>2017-01-08T09:36:15.000Z</time>
      </trkpt>
      <trkpt lat="48.21893" lon="-4.2415">
        <ele>256.20001220703</ele>
        <time>2017-01-08T09:36:21.000Z</time>
      </trkpt>
      <trkpt lat="48.2188" lon="-4.24148">
        <ele>257.39999389648</ele>
        <time>2017-01-08T09:36:26.000Z</time>
      </trkpt>
      <trkpt lat="48.21859" lon="-4.24151">
        <ele>258.39999389648</ele>
        <time>2017-01-08T09:36:33.000Z</time>
      </trkpt>
      <trkpt lat="48.21846" lon="-4.24159">
        <ele>258.20001220703</ele>
        <time>2017-01-08T09:36:38.000Z</time>
      </trkpt>
      <trkpt lat="48.21831" lon="-4.24169">
        <ele>258</ele>
        <time>2017-01-08T09:36:44.000Z</time>
      </trkpt>
      <trkpt lat="48.21813" lon="-4.24175">
        <ele>258.79998779297</ele>
        <time>2017-01-08T09:36:50.000Z</time>
      </trkpt>
      <trkpt lat="48.21797" lon="-4.24183">
        <ele>258.79998779297</ele>
        <time>2017-01-08T09:36:54.000Z</time>
      </trkpt>
      <trkpt lat="48.21777" lon="-4.24196">
        <ele>258.60000610352</ele>
        <time>2017-01-08T09:37:00.000Z</time>
      </trkpt>
      <trkpt lat="48.21754" lon="-4.24205">
        <ele>259.79998779297</ele>
        <time>2017-01-08T09:37:06.000Z</time>
      </trkpt>
      <trkpt lat="48.21754" lon="-4.24205">
        <ele>259.79998779297</ele>
        <time>2017-01-08T09:37:11.000Z</time>
      </trkpt>
      <trkpt lat="48.21752" lon="-4.24206">
        <ele>260</ele>
        <time>2017-01-08T09:37:15.000Z</time>
      </trkpt>
      <trkpt lat="48.21745" lon="-4.2421">
        <ele>260.20001220703</ele>
        <time>2017-01-08T09:38:08.000Z</time>
      </trkpt>
      <trkpt lat="48.21728" lon="-4.2422">
        <ele>261.20001220703</ele>
        <time>2017-01-08T09:38:15.000Z</time>
      </trkpt>
      <trkpt lat="48.21715" lon="-4.24224">
        <ele>262.60000610352</ele>
        <time>2017-01-08T09:38:22.000Z</time>
      </trkpt>
      <trkpt lat="48.21714" lon="-4.24224">
        <ele>262.79998779297</ele>
        <time>2017-01-08T09:38:25.000Z</time>
      </trkpt>
      <trkpt lat="48.21707" lon="-4.24225">
        <ele>263.60000610352</ele>
        <time>2017-01-08T09:38:40.000Z</time>
      </trkpt>
      <trkpt lat="48.21704" lon="-4.24228">
        <ele>263.60000610352</ele>
        <time>2017-01-08T09:38:46.000Z</time>
      </trkpt>
      <trkpt lat="48.21689" lon="-4.24234">
        <ele>265</ele>
        <time>2017-01-08T09:38:53.000Z</time>
      </trkpt>
      <trkpt lat="48.21678" lon="-4.24235">
        <ele>266.39999389648</ele>
        <time>2017-01-08T09:38:58.000Z</time>
      </trkpt>
      <trkpt lat="48.21678" lon="-4.24235">
        <ele>266.39999389648</ele>
        <time>2017-01-08T09:39:01.000Z</time>
      </trkpt>
      <trkpt lat="48.21659" lon="-4.24232">
        <ele>270</ele>
        <time>2017-01-08T09:39:26.000Z</time>
      </trkpt>
      <trkpt lat="48.21642" lon="-4.24234">
        <ele>272.39999389648</ele>
        <time>2017-01-08T09:39:33.000Z</time>
      </trkpt>
      <trkpt lat="48.21631" lon="-4.24236">
        <ele>273.20001220703</ele>
        <time>2017-01-08T09:39:39.000Z</time>
      </trkpt>
      <trkpt lat="48.21613" lon="-4.24244">
        <ele>274</ele>
        <time>2017-01-08T09:39:48.000Z</time>
      </trkpt>
      <trkpt lat="48.21599" lon="-4.24252">
        <ele>274.60000610352</ele>
        <time>2017-01-08T09:39:54.000Z</time>
      </trkpt>
      <trkpt lat="48.21581" lon="-4.24262">
        <ele>274.39999389648</ele>
        <time>2017-01-08T09:40:01.000Z</time>
      </trkpt>
      <trkpt lat="48.21563" lon="-4.24279">
        <ele>273.39999389648</ele>
        <time>2017-01-08T09:40:08.000Z</time>
      </trkpt>
      <trkpt lat="48.21544" lon="-4.24291">
        <ele>273.39999389648</ele>
        <time>2017-01-08T09:40:14.000Z</time>
      </trkpt>
      <trkpt lat="48.21535" lon="-4.24296">
        <ele>273.20001220703</ele>
        <time>2017-01-08T09:40:17.000Z</time>
      </trkpt>
      <trkpt lat="48.21535" lon="-4.24296">
        <ele>273.20001220703</ele>
        <time>2017-01-08T09:40:17.000Z</time>
      </trkpt>
      <trkpt lat="48.2153" lon="-4.24299">
        <ele>273.39999389648</ele>
        <time>2017-01-08T09:40:19.000Z</time>
      </trkpt>
      <trkpt lat="48.21514" lon="-4.24306">
        <ele>273.39999389648</ele>
        <time>2017-01-08T09:40:25.000Z</time>
      </trkpt>
      <trkpt lat="48.21501" lon="-4.24309">
        <ele>273.60000610352</ele>
        <time>2017-01-08T09:40:29.000Z</time>
      </trkpt>
      <trkpt lat="48.21484" lon="-4.24308">
        <ele>274.39999389648</ele>
        <time>2017-01-08T09:40:34.000Z</time>
      </trkpt>
      <trkpt lat="48.21461" lon="-4.24301">
        <ele>274.20001220703</ele>
        <time>2017-01-08T09:40:40.000Z</time>
      </trkpt>
      <trkpt lat="48.21439" lon="-4.24288">
        <ele>274.20001220703</ele>
        <time>2017-01-08T09:40:46.000Z</time>
      </trkpt>
      <trkpt lat="48.21437" lon="-4.24284">
        <ele>274</ele>
        <time>2017-01-08T09:40:47.000Z</time>
      </trkpt>
      <trkpt lat="48.21435" lon="-4.24258">
        <ele>274.20001220703</ele>
        <time>2017-01-08T09:40:52.000Z</time>
      </trkpt>
      <trkpt lat="48.2143" lon="-4.2423">
        <ele>274</ele>
        <time>2017-01-08T09:40:57.000Z</time>
      </trkpt>
      <trkpt lat="48.21417" lon="-4.24218">
        <ele>273.79998779297</ele>
        <time>2017-01-08T09:41:01.000Z</time>
      </trkpt>
      <trkpt lat="48.21405" lon="-4.24211">
        <ele>273.20001220703</ele>
        <time>2017-01-08T09:41:04.000Z</time>
      </trkpt>
      <trkpt lat="48.21389" lon="-4.24192">
        <ele>271.60000610352</ele>
        <time>2017-01-08T09:41:08.000Z</time>
      </trkpt>
      <trkpt lat="48.21366" lon="-4.24147">
        <ele>270.20001220703</ele>
        <time>2017-01-08T09:41:15.000Z</time>
      </trkpt>
      <trkpt lat="48.21367" lon="-4.2413">
        <ele>270</ele>
        <time>2017-01-08T09:41:19.000Z</time>
      </trkpt>
      <trkpt lat="48.21372" lon="-4.24125">
        <ele>270.39999389648</ele>
        <time>2017-01-08T09:41:21.000Z</time>
      </trkpt>
      <trkpt lat="48.21397" lon="-4.2411">
        <ele>272.39999389648</ele>
        <time>2017-01-08T09:41:30.000Z</time>
      </trkpt>
      <trkpt lat="48.21414" lon="-4.24098">
        <ele>274</ele>
        <time>2017-01-08T09:41:38.000Z</time>
      </trkpt>
      <trkpt lat="48.21429" lon="-4.24086">
        <ele>275.60000610352</ele>
        <time>2017-01-08T09:41:45.000Z</time>
      </trkpt>
      <trkpt lat="48.21443" lon="-4.24078">
        <ele>276.79998779297</ele>
        <time>2017-01-08T09:41:52.000Z</time>
      </trkpt>
      <trkpt lat="48.2146" lon="-4.24063">
        <ele>278.39999389648</ele>
        <time>2017-01-08T09:42:01.000Z</time>
      </trkpt>
      <trkpt lat="48.21476" lon="-4.24051">
        <ele>280</ele>
        <time>2017-01-08T09:42:09.000Z</time>
      </trkpt>
      <trkpt lat="48.21486" lon="-4.24044">
        <ele>280.79998779297</ele>
        <time>2017-01-08T09:42:14.000Z</time>
      </trkpt>
      <trkpt lat="48.21497" lon="-4.24037">
        <ele>281.79998779297</ele>
        <time>2017-01-08T09:42:19.000Z</time>
      </trkpt>
      <trkpt lat="48.21507" lon="-4.2403">
        <ele>282.60000610352</ele>
        <time>2017-01-08T09:42:25.000Z</time>
      </trkpt>
      <trkpt lat="48.21519" lon="-4.2402">
        <ele>283.60000610352</ele>
        <time>2017-01-08T09:42:31.000Z</time>
      </trkpt>
      <trkpt lat="48.21522" lon="-4.24019">
        <ele>283.79998779297</ele>
        <time>2017-01-08T09:42:32.000Z</time>
      </trkpt>
      <trkpt lat="48.21536" lon="-4.24007">
        <ele>284.60000610352</ele>
        <time>2017-01-08T09:42:39.000Z</time>
      </trkpt>
      <trkpt lat="48.2155" lon="-4.23996">
        <ele>285.39999389648</ele>
        <time>2017-01-08T09:42:46.000Z</time>
      </trkpt>
      <trkpt lat="48.21557" lon="-4.23989">
        <ele>286</ele>
        <time>2017-01-08T09:42:51.000Z</time>
      </trkpt>
      <trkpt lat="48.21571" lon="-4.23972">
        <ele>287.20001220703</ele>
        <time>2017-01-08T09:42:59.000Z</time>
      </trkpt>
      <trkpt lat="48.21584" lon="-4.23954">
        <ele>288.20001220703</ele>
        <time>2017-01-08T09:43:07.000Z</time>
      </trkpt>
      <trkpt lat="48.21597" lon="-4.23939">
        <ele>289.39999389648</ele>
        <time>2017-01-08T09:43:14.000Z</time>
      </trkpt>
      <trkpt lat="48.21607" lon="-4.23925">
        <ele>290.39999389648</ele>
        <time>2017-01-08T09:43:20.000Z</time>
      </trkpt>
      <trkpt lat="48.21618" lon="-4.23908">
        <ele>291.79998779297</ele>
        <time>2017-01-08T09:43:27.000Z</time>
      </trkpt>
      <trkpt lat="48.21628" lon="-4.23896">
        <ele>292.79998779297</ele>
        <time>2017-01-08T09:43:33.000Z</time>
      </trkpt>
      <trkpt lat="48.21638" lon="-4.2388">
        <ele>294</ele>
        <time>2017-01-08T09:43:40.000Z</time>
      </trkpt>
      <trkpt lat="48.2165" lon="-4.23862">
        <ele>295.39999389648</ele>
        <time>2017-01-08T09:43:48.000Z</time>
      </trkpt>
      <trkpt lat="48.2166" lon="-4.23849">
        <ele>296</ele>
        <time>2017-01-08T09:43:54.000Z</time>
      </trkpt>
      <trkpt lat="48.21672" lon="-4.23831">
        <ele>297</ele>
        <time>2017-01-08T09:44:02.000Z</time>
      </trkpt>
      <trkpt lat="48.21689" lon="-4.2381">
        <ele>298.20001220703</ele>
        <time>2017-01-08T09:44:12.000Z</time>
      </trkpt>
      <trkpt lat="48.21696" lon="-4.23799">
        <ele>298.60000610352</ele>
        <time>2017-01-08T09:44:17.000Z</time>
      </trkpt>
      <trkpt lat="48.21712" lon="-4.23777">
        <ele>299.60000610352</ele>
        <time>2017-01-08T09:44:26.000Z</time>
      </trkpt>
      <trkpt lat="48.21722" lon="-4.23763">
        <ele>300.20001220703</ele>
        <time>2017-01-08T09:44:32.000Z</time>
      </trkpt>
      <trkpt lat="48.21732" lon="-4.23755">
        <ele>300.79998779297</ele>
        <time>2017-01-08T09:44:37.000Z</time>
      </trkpt>
      <trkpt lat="48.21749" lon="-4.23739">
        <ele>301.79998779297</ele>
        <time>2017-01-08T09:44:45.000Z</time>
      </trkpt>
      <trkpt lat="48.2176" lon="-4.23726">
        <ele>302.60000610352</ele>
        <time>2017-01-08T09:44:51.000Z</time>
      </trkpt>
      <trkpt lat="48.21771" lon="-4.23718">
        <ele>303.39999389648</ele>
        <time>2017-01-08T09:44:56.000Z</time>
      </trkpt>
      <trkpt lat="48.21783" lon="-4.23708">
        <ele>304.60000610352</ele>
        <time>2017-01-08T09:45:02.000Z</time>
      </trkpt>
      <trkpt lat="48.218" lon="-4.2369">
        <ele>306.20001220703</ele>
        <time>2017-01-08T09:45:11.000Z</time>
      </trkpt>
      <trkpt lat="48.2181" lon="-4.23681">
        <ele>307</ele>
        <time>2017-01-08T09:45:16.000Z</time>
      </trkpt>
      <trkpt lat="48.21826" lon="-4.23666">
        <ele>308.39999389648</ele>
        <time>2017-01-08T09:45:24.000Z</time>
      </trkpt>
      <trkpt lat="48.21838" lon="-4.23657">
        <ele>309.39999389648</ele>
        <time>2017-01-08T09:45:30.000Z</time>
      </trkpt>
      <trkpt lat="48.21851" lon="-4.23646">
        <ele>310.39999389648</ele>
        <time>2017-01-08T09:45:36.000Z</time>
      </trkpt>
      <trkpt lat="48.21868" lon="-4.23631">
        <ele>311.79998779297</ele>
        <time>2017-01-08T09:45:45.000Z</time>
      </trkpt>
      <trkpt lat="48.21881" lon="-4.23619">
        <ele>313</ele>
        <time>2017-01-08T09:45:53.000Z</time>
      </trkpt>
      <trkpt lat="48.21897" lon="-4.23605">
        <ele>314.60000610352</ele>
        <time>2017-01-08T09:46:02.000Z</time>
      </trkpt>
      <trkpt lat="48.21914" lon="-4.23589">
        <ele>316.79998779297</ele>
        <time>2017-01-08T09:46:11.000Z</time>
      </trkpt>
      <trkpt lat="48.21926" lon="-4.23577">
        <ele>318.39999389648</ele>
        <time>2017-01-08T09:46:18.000Z</time>
      </trkpt>
      <trkpt lat="48.21941" lon="-4.23563">
        <ele>319.60000610352</ele>
        <time>2017-01-08T09:46:26.000Z</time>
      </trkpt>
      <trkpt lat="48.21952" lon="-4.23552">
        <ele>320.39999389648</ele>
        <time>2017-01-08T09:46:32.000Z</time>
      </trkpt>
      <trkpt lat="48.21966" lon="-4.23536">
        <ele>321.60000610352</ele>
        <time>2017-01-08T09:46:41.000Z</time>
      </trkpt>
      <trkpt lat="48.21972" lon="-4.23527">
        <ele>322</ele>
        <time>2017-01-08T09:46:46.000Z</time>
      </trkpt>
      <trkpt lat="48.21975" lon="-4.23521">
        <ele>322.39999389648</ele>
        <time>2017-01-08T09:46:49.000Z</time>
      </trkpt>
      <trkpt lat="48.2198" lon="-4.23518">
        <ele>322.39999389648</ele>
        <time>2017-01-08T09:46:54.000Z</time>
      </trkpt>
      <trkpt lat="48.2198" lon="-4.23518">
        <ele>322.39999389648</ele>
        <time>2017-01-08T09:46:55.000Z</time>
      </trkpt>
      <trkpt lat="48.21966" lon="-4.23533">
        <ele>321.60000610352</ele>
        <time>2017-01-08T09:52:20.000Z</time>
      </trkpt>
      <trkpt lat="48.21935" lon="-4.23567">
        <ele>319.39999389648</ele>
        <time>2017-01-08T09:52:26.000Z</time>
      </trkpt>
      <trkpt lat="48.21899" lon="-4.23601">
        <ele>315</ele>
        <time>2017-01-08T09:52:31.000Z</time>
      </trkpt>
      <trkpt lat="48.21854" lon="-4.2364">
        <ele>310.79998779297</ele>
        <time>2017-01-08T09:52:36.000Z</time>
      </trkpt>
      <trkpt lat="48.2181" lon="-4.23681">
        <ele>307</ele>
        <time>2017-01-08T09:52:41.000Z</time>
      </trkpt>
      <trkpt lat="48.21762" lon="-4.23725">
        <ele>302.60000610352</ele>
        <time>2017-01-08T09:52:46.000Z</time>
      </trkpt>
      <trkpt lat="48.21704" lon="-4.23788">
        <ele>299.20001220703</ele>
        <time>2017-01-08T09:52:52.000Z</time>
      </trkpt>
      <trkpt lat="48.21643" lon="-4.23871">
        <ele>294.60000610352</ele>
        <time>2017-01-08T09:52:59.000Z</time>
      </trkpt>
      <trkpt lat="48.21586" lon="-4.2395">
        <ele>288.39999389648</ele>
        <time>2017-01-08T09:53:06.000Z</time>
      </trkpt>
      <trkpt lat="48.21544" lon="-4.23999">
        <ele>285.20001220703</ele>
        <time>2017-01-08T09:53:11.000Z</time>
      </trkpt>
      <trkpt lat="48.2149" lon="-4.24041">
        <ele>281.20001220703</ele>
        <time>2017-01-08T09:53:17.000Z</time>
      </trkpt>
      <trkpt lat="48.21458" lon="-4.24066">
        <ele>278.20001220703</ele>
        <time>2017-01-08T09:53:21.000Z</time>
      </trkpt>
      <trkpt lat="48.21405" lon="-4.24104">
        <ele>273.20001220703</ele>
        <time>2017-01-08T09:53:28.000Z</time>
      </trkpt>
      <trkpt lat="48.21363" lon="-4.24132">
        <ele>269.79998779297</ele>
        <time>2017-01-08T09:53:34.000Z</time>
      </trkpt>
      <trkpt lat="48.2136" lon="-4.24135">
        <ele>269.39999389648</ele>
        <time>2017-01-08T09:53:35.000Z</time>
      </trkpt>
      <trkpt lat="48.21358" lon="-4.24148">
        <ele>269.39999389648</ele>
        <time>2017-01-08T09:53:39.000Z</time>
      </trkpt>
      <trkpt lat="48.2136" lon="-4.24154">
        <ele>269.79998779297</ele>
        <time>2017-01-08T09:53:41.000Z</time>
      </trkpt>
      <trkpt lat="48.21371" lon="-4.24169">
        <ele>270.79998779297</ele>
        <time>2017-01-08T09:53:46.000Z</time>
      </trkpt>
      <trkpt lat="48.21379" lon="-4.24183">
        <ele>271.20001220703</ele>
        <time>2017-01-08T09:53:50.000Z</time>
      </trkpt>
      <trkpt lat="48.21391" lon="-4.24207">
        <ele>272.20001220703</ele>
        <time>2017-01-08T09:53:56.000Z</time>
      </trkpt>
      <trkpt lat="48.21407" lon="-4.24219">
        <ele>273.39999389648</ele>
        <time>2017-01-08T09:54:01.000Z</time>
      </trkpt>
      <trkpt lat="48.21422" lon="-4.24227">
        <ele>273.79998779297</ele>
        <time>2017-01-08T09:54:07.000Z</time>
      </trkpt>
      <trkpt lat="48.2143" lon="-4.24245">
        <ele>274</ele>
        <time>2017-01-08T09:54:12.000Z</time>
      </trkpt>
      <trkpt lat="48.21433" lon="-4.24266">
        <ele>274.20001220703</ele>
        <time>2017-01-08T09:54:17.000Z</time>
      </trkpt>
      <trkpt lat="48.2143" lon="-4.24295">
        <ele>274.20001220703</ele>
        <time>2017-01-08T09:54:23.000Z</time>
      </trkpt>
      <trkpt lat="48.21423" lon="-4.24328">
        <ele>274.60000610352</ele>
        <time>2017-01-08T09:54:30.000Z</time>
      </trkpt>
      <trkpt lat="48.21417" lon="-4.24354">
        <ele>274.79998779297</ele>
        <time>2017-01-08T09:54:36.000Z</time>
      </trkpt>
      <trkpt lat="48.21411" lon="-4.24382">
        <ele>276.39999389648</ele>
        <time>2017-01-08T09:54:41.000Z</time>
      </trkpt>
      <trkpt lat="48.2141" lon="-4.24402">
        <ele>277.39999389648</ele>
        <time>2017-01-08T09:54:46.000Z</time>
      </trkpt>
      <trkpt lat="48.21411" lon="-4.24427">
        <ele>278.60000610352</ele>
        <time>2017-01-08T09:54:52.000Z</time>
      </trkpt>
      <trkpt lat="48.21406" lon="-4.24438">
        <ele>279.20001220703</ele>
        <time>2017-01-08T09:54:56.000Z</time>
      </trkpt>
      <trkpt lat="48.21394" lon="-4.24439">
        <ele>279.60000610352</ele>
        <time>2017-01-08T09:55:01.000Z</time>
      </trkpt>
      <trkpt lat="48.21378" lon="-4.2444">
        <ele>280</ele>
        <time>2017-01-08T09:55:07.000Z</time>
      </trkpt>
      <trkpt lat="48.21359" lon="-4.24438">
        <ele>280.20001220703</ele>
        <time>2017-01-08T09:55:14.000Z</time>
      </trkpt>
      <trkpt lat="48.21345" lon="-4.24437">
        <ele>280.20001220703</ele>
        <time>2017-01-08T09:55:20.000Z</time>
      </trkpt>
      <trkpt lat="48.21326" lon="-4.2444">
        <ele>279.60000610352</ele>
        <time>2017-01-08T09:55:27.000Z</time>
      </trkpt>
      <trkpt lat="48.21316" lon="-4.24452">
        <ele>280.20001220703</ele>
        <time>2017-01-08T09:55:33.000Z</time>
      </trkpt>
      <trkpt lat="48.21304" lon="-4.24469">
        <ele>281.20001220703</ele>
        <time>2017-01-08T09:55:41.000Z</time>
      </trkpt>
      <trkpt lat="48.21292" lon="-4.24488">
        <ele>282.39999389648</ele>
        <time>2017-01-08T09:55:49.000Z</time>
      </trkpt>
      <trkpt lat="48.21281" lon="-4.24501">
        <ele>283.20001220703</ele>
        <time>2017-01-08T09:55:56.000Z</time>
      </trkpt>
      <trkpt lat="48.21266" lon="-4.24514">
        <ele>283.79998779297</ele>
        <time>2017-01-08T09:56:04.000Z</time>
      </trkpt>
      <trkpt lat="48.21251" lon="-4.2453">
        <ele>284.20001220703</ele>
        <time>2017-01-08T09:56:11.000Z</time>
      </trkpt>
      <trkpt lat="48.2124" lon="-4.24552">
        <ele>284.79998779297</ele>
        <time>2017-01-08T09:56:18.000Z</time>
      </trkpt>
      <trkpt lat="48.21233" lon="-4.24577">
        <ele>285.79998779297</ele>
        <time>2017-01-08T09:56:26.000Z</time>
      </trkpt>
      <trkpt lat="48.21227" lon="-4.24601">
        <ele>286.79998779297</ele>
        <time>2017-01-08T09:56:33.000Z</time>
      </trkpt>
      <trkpt lat="48.21221" lon="-4.24624">
        <ele>287.39999389648</ele>
        <time>2017-01-08T09:56:40.000Z</time>
      </trkpt>
      <trkpt lat="48.21212" lon="-4.24645">
        <ele>287.20001220703</ele>
        <time>2017-01-08T09:56:47.000Z</time>
      </trkpt>
      <trkpt lat="48.21204" lon="-4.24669">
        <ele>287.20001220703</ele>
        <time>2017-01-08T09:56:54.000Z</time>
      </trkpt>
      <trkpt lat="48.21208" lon="-4.24688">
        <ele>288.20001220703</ele>
        <time>2017-01-08T09:56:59.000Z</time>
      </trkpt>
      <trkpt lat="48.21216" lon="-4.24715">
        <ele>288.20001220703</ele>
        <time>2017-01-08T09:57:06.000Z</time>
      </trkpt>
      <trkpt lat="48.21221" lon="-4.24738">
        <ele>287.60000610352</ele>
        <time>2017-01-08T09:57:13.000Z</time>
      </trkpt>
      <trkpt lat="48.21222" lon="-4.2474">
        <ele>287.60000610352</ele>
        <time>2017-01-08T09:57:14.000Z</time>
      </trkpt>
      <trkpt lat="48.21213" lon="-4.2475">
        <ele>286.39999389648</ele>
        <time>2017-01-08T09:57:19.000Z</time>
      </trkpt>
      <trkpt lat="48.21198" lon="-4.24767">
        <ele>284.39999389648</ele>
        <time>2017-01-08T09:57:24.000Z</time>
      </trkpt>
      <trkpt lat="48.21187" lon="-4.2478">
        <ele>283</ele>
        <time>2017-01-08T09:57:31.000Z</time>
      </trkpt>
      <trkpt lat="48.21184" lon="-4.24793">
        <ele>281</ele>
        <time>2017-01-08T09:57:36.000Z</time>
      </trkpt>
      <trkpt lat="48.21183" lon="-4.24795">
        <ele>280.60000610352</ele>
        <time>2017-01-08T09:57:37.000Z</time>
      </trkpt>
      <trkpt lat="48.21177" lon="-4.248">
        <ele>279.20001220703</ele>
        <time>2017-01-08T09:57:41.000Z</time>
      </trkpt>
      <trkpt lat="48.21176" lon="-4.24801">
        <ele>278.79998779297</ele>
        <time>2017-01-08T09:57:44.000Z</time>
      </trkpt>
      <trkpt lat="48.21161" lon="-4.24836">
        <ele>272.20001220703</ele>
        <time>2017-01-08T09:58:19.000Z</time>
      </trkpt>
      <trkpt lat="48.21158" lon="-4.24842">
        <ele>271</ele>
        <time>2017-01-08T09:58:26.000Z</time>
      </trkpt>
      <trkpt lat="48.21155" lon="-4.24848">
        <ele>269.79998779297</ele>
        <time>2017-01-08T09:58:32.000Z</time>
      </trkpt>
      <trkpt lat="48.21154" lon="-4.24854">
        <ele>269</ele>
        <time>2017-01-08T09:58:38.000Z</time>
      </trkpt>
      <trkpt lat="48.21152" lon="-4.2486">
        <ele>267.79998779297</ele>
        <time>2017-01-08T09:58:47.000Z</time>
      </trkpt>
      <trkpt lat="48.21151" lon="-4.2486">
        <ele>267.60000610352</ele>
        <time>2017-01-08T09:58:50.000Z</time>
      </trkpt>
      <trkpt lat="48.21137" lon="-4.2489">
        <ele>264</ele>
        <time>2017-01-08T09:59:22.000Z</time>
      </trkpt>
      <trkpt lat="48.21123" lon="-4.24918">
        <ele>260.60000610352</ele>
        <time>2017-01-08T09:59:28.000Z</time>
      </trkpt>
      <trkpt lat="48.211" lon="-4.24955">
        <ele>254.80000305176</ele>
        <time>2017-01-08T09:59:35.000Z</time>
      </trkpt>
      <trkpt lat="48.21076" lon="-4.24994">
        <ele>250.19999694824</ele>
        <time>2017-01-08T09:59:43.000Z</time>
      </trkpt>
      <trkpt lat="48.21074" lon="-4.24998">
        <ele>249.80000305176</ele>
        <time>2017-01-08T09:59:44.000Z</time>
      </trkpt>
      <trkpt lat="48.21065" lon="-4.25016">
        <ele>247.80000305176</ele>
        <time>2017-01-08T09:59:48.000Z</time>
      </trkpt>
      <trkpt lat="48.21049" lon="-4.25044">
        <ele>245.60000610352</ele>
        <time>2017-01-08T09:59:54.000Z</time>
      </trkpt>
      <trkpt lat="48.21035" lon="-4.25069">
        <ele>244.19999694824</ele>
        <time>2017-01-08T09:59:59.000Z</time>
      </trkpt>
      <trkpt lat="48.21013" lon="-4.25107">
        <ele>242.19999694824</ele>
        <time>2017-01-08T10:00:05.000Z</time>
      </trkpt>
      <trkpt lat="48.20992" lon="-4.25159">
        <ele>239.39999389648</ele>
        <time>2017-01-08T10:00:11.000Z</time>
      </trkpt>
      <trkpt lat="48.20982" lon="-4.25183">
        <ele>238</ele>
        <time>2017-01-08T10:00:14.000Z</time>
      </trkpt>
      <trkpt lat="48.20955" lon="-4.25238">
        <ele>233.60000610352</ele>
        <time>2017-01-08T10:00:22.000Z</time>
      </trkpt>
      <trkpt lat="48.20929" lon="-4.25283">
        <ele>229.60000610352</ele>
        <time>2017-01-08T10:00:28.000Z</time>
      </trkpt>
      <trkpt lat="48.20905" lon="-4.25324">
        <ele>227.19999694824</ele>
        <time>2017-01-08T10:00:33.000Z</time>
      </trkpt>
      <trkpt lat="48.20891" lon="-4.25348">
        <ele>225.60000610352</ele>
        <time>2017-01-08T10:00:36.000Z</time>
      </trkpt>
      <trkpt lat="48.20879" lon="-4.25374">
        <ele>223.80000305176</ele>
        <time>2017-01-08T10:00:39.000Z</time>
      </trkpt>
      <trkpt lat="48.20866" lon="-4.25403">
        <ele>221.80000305176</ele>
        <time>2017-01-08T10:00:43.000Z</time>
      </trkpt>
      <trkpt lat="48.20854" lon="-4.25452">
        <ele>217.80000305176</ele>
        <time>2017-01-08T10:00:49.000Z</time>
      </trkpt>
      <trkpt lat="48.2085" lon="-4.25468">
        <ele>216.60000610352</ele>
        <time>2017-01-08T10:00:51.000Z</time>
      </trkpt>
      <trkpt lat="48.20847" lon="-4.25496">
        <ele>214</ele>
        <time>2017-01-08T10:00:56.000Z</time>
      </trkpt>
      <trkpt lat="48.20847" lon="-4.25504">
        <ele>213.39999389648</ele>
        <time>2017-01-08T10:00:57.000Z</time>
      </trkpt>
      <trkpt lat="48.20851" lon="-4.25548">
        <ele>209</ele>
        <time>2017-01-08T10:01:02.000Z</time>
      </trkpt>
      <trkpt lat="48.20857" lon="-4.25582">
        <ele>205.80000305176</ele>
        <time>2017-01-08T10:01:06.000Z</time>
      </trkpt>
      <trkpt lat="48.20861" lon="-4.25597">
        <ele>204.19999694824</ele>
        <time>2017-01-08T10:01:10.000Z</time>
      </trkpt>
      <trkpt lat="48.20863" lon="-4.2561">
        <ele>203</ele>
        <time>2017-01-08T10:01:15.000Z</time>
      </trkpt>
      <trkpt lat="48.20861" lon="-4.25618">
        <ele>202.39999389648</ele>
        <time>2017-01-08T10:01:18.000Z</time>
      </trkpt>
      <trkpt lat="48.20839" lon="-4.25642">
        <ele>202</ele>
        <time>2017-01-08T10:01:26.000Z</time>
      </trkpt>
      <trkpt lat="48.20832" lon="-4.25648">
        <ele>202</ele>
        <time>2017-01-08T10:01:28.000Z</time>
      </trkpt>
      <trkpt lat="48.20827" lon="-4.25666">
        <ele>200.80000305176</ele>
        <time>2017-01-08T10:01:31.000Z</time>
      </trkpt>
      <trkpt lat="48.20834" lon="-4.25682">
        <ele>199.39999389648</ele>
        <time>2017-01-08T10:01:33.000Z</time>
      </trkpt>
      <trkpt lat="48.20865" lon="-4.25747">
        <ele>194.39999389648</ele>
        <time>2017-01-08T10:01:39.000Z</time>
      </trkpt>
      <trkpt lat="48.20889" lon="-4.25813">
        <ele>190.19999694824</ele>
        <time>2017-01-08T10:01:44.000Z</time>
      </trkpt>
      <trkpt lat="48.20906" lon="-4.25882">
        <ele>186.60000610352</ele>
        <time>2017-01-08T10:01:49.000Z</time>
      </trkpt>
      <trkpt lat="48.20919" lon="-4.25954">
        <ele>185</ele>
        <time>2017-01-08T10:01:54.000Z</time>
      </trkpt>
      <trkpt lat="48.20928" lon="-4.26027">
        <ele>180.19999694824</ele>
        <time>2017-01-08T10:01:59.000Z</time>
      </trkpt>
      <trkpt lat="48.20943" lon="-4.26114">
        <ele>174.60000610352</ele>
        <time>2017-01-08T10:02:05.000Z</time>
      </trkpt>
      <trkpt lat="48.20945" lon="-4.26127">
        <ele>174.19999694824</ele>
        <time>2017-01-08T10:02:06.000Z</time>
      </trkpt>
      <trkpt lat="48.20963" lon="-4.26161">
        <ele>173</ele>
        <time>2017-01-08T10:02:10.000Z</time>
      </trkpt>
      <trkpt lat="48.20977" lon="-4.26161">
        <ele>172.60000610352</ele>
        <time>2017-01-08T10:02:12.000Z</time>
      </trkpt>
      <trkpt lat="48.21014" lon="-4.26147">
        <ele>171.80000305176</ele>
        <time>2017-01-08T10:02:18.000Z</time>
      </trkpt>
      <trkpt lat="48.21047" lon="-4.26132">
        <ele>171.80000305176</ele>
        <time>2017-01-08T10:02:25.000Z</time>
      </trkpt>
      <trkpt lat="48.21081" lon="-4.26119">
        <ele>172</ele>
        <time>2017-01-08T10:02:32.000Z</time>
      </trkpt>
      <trkpt lat="48.2112" lon="-4.26104">
        <ele>170.60000610352</ele>
        <time>2017-01-08T10:02:40.000Z</time>
      </trkpt>
      <trkpt lat="48.2113" lon="-4.261">
        <ele>170</ele>
        <time>2017-01-08T10:02:42.000Z</time>
      </trkpt>
      <trkpt lat="48.21163" lon="-4.2609">
        <ele>168.19999694824</ele>
        <time>2017-01-08T10:02:48.000Z</time>
      </trkpt>
      <trkpt lat="48.21177" lon="-4.26089">
        <ele>167.60000610352</ele>
        <time>2017-01-08T10:02:50.000Z</time>
      </trkpt>
      <trkpt lat="48.21194" lon="-4.26086">
        <ele>165.19999694824</ele>
        <time>2017-01-08T10:02:54.000Z</time>
      </trkpt>
      <trkpt lat="48.21199" lon="-4.2607">
        <ele>164</ele>
        <time>2017-01-08T10:02:57.000Z</time>
      </trkpt>
      <trkpt lat="48.212" lon="-4.26053">
        <ele>163.60000610352</ele>
        <time>2017-01-08T10:02:59.000Z</time>
      </trkpt>
      <trkpt lat="48.21193" lon="-4.2599">
        <ele>162</ele>
        <time>2017-01-08T10:03:05.000Z</time>
      </trkpt>
      <trkpt lat="48.21189" lon="-4.25917">
        <ele>160.60000610352</ele>
        <time>2017-01-08T10:03:11.000Z</time>
      </trkpt>
      <trkpt lat="48.21191" lon="-4.2587">
        <ele>159.19999694824</ele>
        <time>2017-01-08T10:03:15.000Z</time>
      </trkpt>
      <trkpt lat="48.21204" lon="-4.25808">
        <ele>160.19999694824</ele>
        <time>2017-01-08T10:03:20.000Z</time>
      </trkpt>
      <trkpt lat="48.21234" lon="-4.25748">
        <ele>161.39999389648</ele>
        <time>2017-01-08T10:03:26.000Z</time>
      </trkpt>
      <trkpt lat="48.21239" lon="-4.2574">
        <ele>161.80000305176</ele>
        <time>2017-01-08T10:03:27.000Z</time>
      </trkpt>
      <trkpt lat="48.21251" lon="-4.25727">
        <ele>161.80000305176</ele>
        <time>2017-01-08T10:03:29.000Z</time>
      </trkpt>
      <trkpt lat="48.2128" lon="-4.25719">
        <ele>160</ele>
        <time>2017-01-08T10:03:34.000Z</time>
      </trkpt>
      <trkpt lat="48.21289" lon="-4.2573">
        <ele>158</ele>
        <time>2017-01-08T10:03:36.000Z</time>
      </trkpt>
      <trkpt lat="48.21324" lon="-4.25758">
        <ele>152.60000610352</ele>
        <time>2017-01-08T10:03:41.000Z</time>
      </trkpt>
      <trkpt lat="48.21365" lon="-4.25765">
        <ele>148</ele>
        <time>2017-01-08T10:03:45.000Z</time>
      </trkpt>
      <trkpt lat="48.21405" lon="-4.25755">
        <ele>144.80000305176</ele>
        <time>2017-01-08T10:03:49.000Z</time>
      </trkpt>
      <trkpt lat="48.21432" lon="-4.25731">
        <ele>143.39999389648</ele>
        <time>2017-01-08T10:03:52.000Z</time>
      </trkpt>
      <trkpt lat="48.2144" lon="-4.25721">
        <ele>143.19999694824</ele>
        <time>2017-01-08T10:03:53.000Z</time>
      </trkpt>
      <trkpt lat="48.21462" lon="-4.25688">
        <ele>142.80000305176</ele>
        <time>2017-01-08T10:03:56.000Z</time>
      </trkpt>
      <trkpt lat="48.21496" lon="-4.25665">
        <ele>141</ele>
        <time>2017-01-08T10:04:00.000Z</time>
      </trkpt>
      <trkpt lat="48.21522" lon="-4.2567">
        <ele>137.80000305176</ele>
        <time>2017-01-08T10:04:03.000Z</time>
      </trkpt>
      <trkpt lat="48.21539" lon="-4.25681">
        <ele>136</ele>
        <time>2017-01-08T10:04:05.000Z</time>
      </trkpt>
      <trkpt lat="48.21593" lon="-4.25719">
        <ele>130.19999694824</ele>
        <time>2017-01-08T10:04:11.000Z</time>
      </trkpt>
      <trkpt lat="48.21627" lon="-4.25732">
        <ele>128.19999694824</ele>
        <time>2017-01-08T10:04:15.000Z</time>
      </trkpt>
      <trkpt lat="48.21675" lon="-4.25741">
        <ele>126.80000305176</ele>
        <time>2017-01-08T10:04:21.000Z</time>
      </trkpt>
      <trkpt lat="48.21723" lon="-4.25747">
        <ele>126</ele>
        <time>2017-01-08T10:04:27.000Z</time>
      </trkpt>
      <trkpt lat="48.21767" lon="-4.25754">
        <ele>126.19999694824</ele>
        <time>2017-01-08T10:04:33.000Z</time>
      </trkpt>
      <trkpt lat="48.2181" lon="-4.25762">
        <ele>125.80000305176</ele>
        <time>2017-01-08T10:04:39.000Z</time>
      </trkpt>
      <trkpt lat="48.21841" lon="-4.2577">
        <ele>125.40000152588</ele>
        <time>2017-01-08T10:04:44.000Z</time>
      </trkpt>
      <trkpt lat="48.2185" lon="-4.25773">
        <ele>125.59999847412</ele>
        <time>2017-01-08T10:04:46.000Z</time>
      </trkpt>
      <trkpt lat="48.21864" lon="-4.25776">
        <ele>126</ele>
        <time>2017-01-08T10:04:50.000Z</time>
      </trkpt>
      <trkpt lat="48.21892" lon="-4.25784">
        <ele>127</ele>
        <time>2017-01-08T10:04:59.000Z</time>
      </trkpt>
      <trkpt lat="48.21905" lon="-4.25798">
        <ele>127</ele>
        <time>2017-01-08T10:05:05.000Z</time>
      </trkpt>
      <trkpt lat="48.21908" lon="-4.2582">
        <ele>126</ele>
        <time>2017-01-08T10:05:09.000Z</time>
      </trkpt>
      <trkpt lat="48.21904" lon="-4.25852">
        <ele>124.40000152588</ele>
        <time>2017-01-08T10:05:13.000Z</time>
      </trkpt>
      <trkpt lat="48.21894" lon="-4.25905">
        <ele>122</ele>
        <time>2017-01-08T10:05:18.000Z</time>
      </trkpt>
      <trkpt lat="48.21884" lon="-4.25974">
        <ele>119.59999847412</ele>
        <time>2017-01-08T10:05:23.000Z</time>
      </trkpt>
      <trkpt lat="48.21883" lon="-4.25987">
        <ele>119.19999694824</ele>
        <time>2017-01-08T10:05:24.000Z</time>
      </trkpt>
      <trkpt lat="48.21894" lon="-4.26043">
        <ele>117.40000152588</ele>
        <time>2017-01-08T10:05:29.000Z</time>
      </trkpt>
      <trkpt lat="48.21907" lon="-4.26056">
        <ele>117.40000152588</ele>
        <time>2017-01-08T10:05:31.000Z</time>
      </trkpt>
      <trkpt lat="48.21919" lon="-4.26067">
        <ele>117.40000152588</ele>
        <time>2017-01-08T10:05:33.000Z</time>
      </trkpt>
      <trkpt lat="48.21926" lon="-4.26092">
        <ele>116.59999847412</ele>
        <time>2017-01-08T10:05:37.000Z</time>
      </trkpt>
      <trkpt lat="48.21912" lon="-4.26116">
        <ele>115.40000152588</ele>
        <time>2017-01-08T10:05:40.000Z</time>
      </trkpt>
      <trkpt lat="48.21905" lon="-4.2612">
        <ele>115</ele>
        <time>2017-01-08T10:05:41.000Z</time>
      </trkpt>
      <trkpt lat="48.21889" lon="-4.26126">
        <ele>114.40000152588</ele>
        <time>2017-01-08T10:05:43.000Z</time>
      </trkpt>
      <trkpt lat="48.21849" lon="-4.26153">
        <ele>112.19999694824</ele>
        <time>2017-01-08T10:05:49.000Z</time>
      </trkpt>
      <trkpt lat="48.21831" lon="-4.26192">
        <ele>109.59999847412</ele>
        <time>2017-01-08T10:05:53.000Z</time>
      </trkpt>
      <trkpt lat="48.21806" lon="-4.26268">
        <ele>105</ele>
        <time>2017-01-08T10:05:59.000Z</time>
      </trkpt>
      <trkpt lat="48.21782" lon="-4.26351">
        <ele>99.599998474121</ele>
        <time>2017-01-08T10:06:05.000Z</time>
      </trkpt>
      <trkpt lat="48.21754" lon="-4.26454">
        <ele>95</ele>
        <time>2017-01-08T10:06:12.000Z</time>
      </trkpt>
      <trkpt lat="48.21736" lon="-4.26527">
        <ele>93.599998474121</ele>
        <time>2017-01-08T10:06:17.000Z</time>
      </trkpt>
      <trkpt lat="48.2173" lon="-4.26562">
        <ele>93</ele>
        <time>2017-01-08T10:06:20.000Z</time>
      </trkpt>
      <trkpt lat="48.21728" lon="-4.2663">
        <ele>90.400001525879</ele>
        <time>2017-01-08T10:06:24.000Z</time>
      </trkpt>
      <trkpt lat="48.21738" lon="-4.267">
        <ele>87.800003051758</ele>
        <time>2017-01-08T10:06:29.000Z</time>
      </trkpt>
      <trkpt lat="48.21745" lon="-4.26725">
        <ele>87.199996948242</ele>
        <time>2017-01-08T10:06:31.000Z</time>
      </trkpt>
      <trkpt lat="48.2177" lon="-4.26801">
        <ele>84</ele>
        <time>2017-01-08T10:06:37.000Z</time>
      </trkpt>
      <trkpt lat="48.21777" lon="-4.26859">
        <ele>83.199996948242</ele>
        <time>2017-01-08T10:06:41.000Z</time>
      </trkpt>
      <trkpt lat="48.21772" lon="-4.26898">
        <ele>82.599998474121</ele>
        <time>2017-01-08T10:06:44.000Z</time>
      </trkpt>
      <trkpt lat="48.2176" lon="-4.26969">
        <ele>83.199996948242</ele>
        <time>2017-01-08T10:06:50.000Z</time>
      </trkpt>
      <trkpt lat="48.21754" lon="-4.27012">
        <ele>85.599998474121</ele>
        <time>2017-01-08T10:06:55.000Z</time>
      </trkpt>
      <trkpt lat="48.21752" lon="-4.2703">
        <ele>86.599998474121</ele>
        <time>2017-01-08T10:06:57.000Z</time>
      </trkpt>
      <trkpt lat="48.21749" lon="-4.27066">
        <ele>86.599998474121</ele>
        <time>2017-01-08T10:07:01.000Z</time>
      </trkpt>
      <trkpt lat="48.21744" lon="-4.27124">
        <ele>86.400001525879</ele>
        <time>2017-01-08T10:07:08.000Z</time>
      </trkpt>
      <trkpt lat="48.2174" lon="-4.27176">
        <ele>85.599998474121</ele>
        <time>2017-01-08T10:07:14.000Z</time>
      </trkpt>
      <trkpt lat="48.21739" lon="-4.27195">
        <ele>85.199996948242</ele>
        <time>2017-01-08T10:07:16.000Z</time>
      </trkpt>
      <trkpt lat="48.2173" lon="-4.27268">
        <ele>84</ele>
        <time>2017-01-08T10:07:24.000Z</time>
      </trkpt>
      <trkpt lat="48.21717" lon="-4.27323">
        <ele>84.400001525879</ele>
        <time>2017-01-08T10:07:30.000Z</time>
      </trkpt>
      <trkpt lat="48.217" lon="-4.27393">
        <ele>83.400001525879</ele>
        <time>2017-01-08T10:07:38.000Z</time>
      </trkpt>
      <trkpt lat="48.21693" lon="-4.27418">
        <ele>82.800003051758</ele>
        <time>2017-01-08T10:07:41.000Z</time>
      </trkpt>
      <trkpt lat="48.21688" lon="-4.27455">
        <ele>81.199996948242</ele>
        <time>2017-01-08T10:07:45.000Z</time>
      </trkpt>
      <trkpt lat="48.21686" lon="-4.27475">
        <ele>80</ele>
        <time>2017-01-08T10:07:47.000Z</time>
      </trkpt>
      <trkpt lat="48.21672" lon="-4.27534">
        <ele>78.400001525879</ele>
        <time>2017-01-08T10:07:53.000Z</time>
      </trkpt>
      <trkpt lat="48.2166" lon="-4.27582">
        <ele>78.599998474121</ele>
        <time>2017-01-08T10:07:59.000Z</time>
      </trkpt>
      <trkpt lat="48.21655" lon="-4.27606">
        <ele>78.800003051758</ele>
        <time>2017-01-08T10:08:02.000Z</time>
      </trkpt>
      <trkpt lat="48.21643" lon="-4.27675">
        <ele>78</ele>
        <time>2017-01-08T10:08:11.000Z</time>
      </trkpt>
      <trkpt lat="48.21634" lon="-4.27724">
        <ele>77.400001525879</ele>
        <time>2017-01-08T10:08:19.000Z</time>
      </trkpt>
      <trkpt lat="48.21628" lon="-4.27746">
        <ele>77.400001525879</ele>
        <time>2017-01-08T10:08:23.000Z</time>
      </trkpt>
      <trkpt lat="48.2161" lon="-4.27783">
        <ele>79.199996948242</ele>
        <time>2017-01-08T10:08:31.000Z</time>
      </trkpt>
      <trkpt lat="48.21595" lon="-4.27801">
        <ele>80.400001525879</ele>
        <time>2017-01-08T10:08:36.000Z</time>
      </trkpt>
      <trkpt lat="48.21572" lon="-4.27819">
        <ele>80.800003051758</ele>
        <time>2017-01-08T10:08:43.000Z</time>
      </trkpt>
      <trkpt lat="48.21551" lon="-4.27823">
        <ele>82</ele>
        <time>2017-01-08T10:08:49.000Z</time>
      </trkpt>
      <trkpt lat="48.21529" lon="-4.27823">
        <ele>84</ele>
        <time>2017-01-08T10:08:56.000Z</time>
      </trkpt>
      <trkpt lat="48.21511" lon="-4.27823">
        <ele>85.400001525879</ele>
        <time>2017-01-08T10:09:02.000Z</time>
      </trkpt>
      <trkpt lat="48.21491" lon="-4.27821">
        <ele>85.800003051758</ele>
        <time>2017-01-08T10:09:09.000Z</time>
      </trkpt>
      <trkpt lat="48.2147" lon="-4.27821">
        <ele>86</ele>
        <time>2017-01-08T10:09:16.000Z</time>
      </trkpt>
      <trkpt lat="48.21443" lon="-4.27821">
        <ele>86.400001525879</ele>
        <time>2017-01-08T10:09:23.000Z</time>
      </trkpt>
      <trkpt lat="48.21413" lon="-4.2782">
        <ele>85.800003051758</ele>
        <time>2017-01-08T10:09:29.000Z</time>
      </trkpt>
      <trkpt lat="48.21407" lon="-4.2782">
        <ele>85.599998474121</ele>
        <time>2017-01-08T10:09:30.000Z</time>
      </trkpt>
      <trkpt lat="48.21369" lon="-4.2782">
        <ele>83.599998474121</ele>
        <time>2017-01-08T10:09:36.000Z</time>
      </trkpt>
      <trkpt lat="48.2132" lon="-4.27824">
        <ele>81.199996948242</ele>
        <time>2017-01-08T10:09:43.000Z</time>
      </trkpt>
      <trkpt lat="48.21312" lon="-4.27827">
        <ele>80.800003051758</ele>
        <time>2017-01-08T10:09:44.000Z</time>
      </trkpt>
      <trkpt lat="48.21285" lon="-4.27849">
        <ele>78.599998474121</ele>
        <time>2017-01-08T10:09:48.000Z</time>
      </trkpt>
      <trkpt lat="48.21272" lon="-4.27865">
        <ele>77.199996948242</ele>
        <time>2017-01-08T10:09:50.000Z</time>
      </trkpt>
      <trkpt lat="48.21252" lon="-4.27906">
        <ele>75.199996948242</ele>
        <time>2017-01-08T10:09:54.000Z</time>
      </trkpt>
      <trkpt lat="48.2123" lon="-4.28009">
        <ele>70.599998474121</ele>
        <time>2017-01-08T10:10:02.000Z</time>
      </trkpt>
      <trkpt lat="48.21228" lon="-4.28019">
        <ele>70</ele>
        <time>2017-01-08T10:10:03.000Z</time>
      </trkpt>
      <trkpt lat="48.21228" lon="-4.28045">
        <ele>69</ele>
        <time>2017-01-08T10:10:07.000Z</time>
      </trkpt>
      <trkpt lat="48.21233" lon="-4.28068">
        <ele>68.199996948242</ele>
        <time>2017-01-08T10:10:11.000Z</time>
      </trkpt>
      <trkpt lat="48.21231" lon="-4.28076">
        <ele>68</ele>
        <time>2017-01-08T10:10:12.000Z</time>
      </trkpt>
      <trkpt lat="48.21225" lon="-4.28093">
        <ele>67.199996948242</ele>
        <time>2017-01-08T10:10:14.000Z</time>
      </trkpt>
      <trkpt lat="48.21194" lon="-4.28156">
        <ele>65.199996948242</ele>
        <time>2017-01-08T10:10:21.000Z</time>
      </trkpt>
      <trkpt lat="48.21189" lon="-4.28165">
        <ele>64.800003051758</ele>
        <time>2017-01-08T10:10:22.000Z</time>
      </trkpt>
      <trkpt lat="48.21151" lon="-4.28214">
        <ele>62.200000762939</ele>
        <time>2017-01-08T10:10:28.000Z</time>
      </trkpt>
      <trkpt lat="48.21122" lon="-4.28264">
        <ele>59.799999237061</ele>
        <time>2017-01-08T10:10:33.000Z</time>
      </trkpt>
      <trkpt lat="48.21111" lon="-4.28285">
        <ele>59</ele>
        <time>2017-01-08T10:10:35.000Z</time>
      </trkpt>
      <trkpt lat="48.21085" lon="-4.28364">
        <ele>58.799999237061</ele>
        <time>2017-01-08T10:10:42.000Z</time>
      </trkpt>
      <trkpt lat="48.21063" lon="-4.28438">
        <ele>57.400001525879</ele>
        <time>2017-01-08T10:10:49.000Z</time>
      </trkpt>
      <trkpt lat="48.21047" lon="-4.28486">
        <ele>57.400001525879</ele>
        <time>2017-01-08T10:10:54.000Z</time>
      </trkpt>
      <trkpt lat="48.21031" lon="-4.28537">
        <ele>57.400001525879</ele>
        <time>2017-01-08T10:11:00.000Z</time>
      </trkpt>
      <trkpt lat="48.21029" lon="-4.28545">
        <ele>57.400001525879</ele>
        <time>2017-01-08T10:11:01.000Z</time>
      </trkpt>
      <trkpt lat="48.21015" lon="-4.28561">
        <ele>57</ele>
        <time>2017-01-08T10:11:05.000Z</time>
      </trkpt>
      <trkpt lat="48.21" lon="-4.28552">
        <ele>56.799999237061</ele>
        <time>2017-01-08T10:11:08.000Z</time>
      </trkpt>
      <trkpt lat="48.20971" lon="-4.28536">
        <ele>55.599998474121</ele>
        <time>2017-01-08T10:11:14.000Z</time>
      </trkpt>
      <trkpt lat="48.20935" lon="-4.28518">
        <ele>54</ele>
        <time>2017-01-08T10:11:21.000Z</time>
      </trkpt>
      <trkpt lat="48.20911" lon="-4.28515">
        <ele>53.400001525879</ele>
        <time>2017-01-08T10:11:25.000Z</time>
      </trkpt>
      <trkpt lat="48.20883" lon="-4.28523">
        <ele>52.799999237061</ele>
        <time>2017-01-08T10:11:29.000Z</time>
      </trkpt>
      <trkpt lat="48.20846" lon="-4.28539">
        <ele>52.200000762939</ele>
        <time>2017-01-08T10:11:35.000Z</time>
      </trkpt>
      <trkpt lat="48.208" lon="-4.28555">
        <ele>51</ele>
        <time>2017-01-08T10:11:42.000Z</time>
      </trkpt>
      <trkpt lat="48.20759" lon="-4.28561">
        <ele>49.599998474121</ele>
        <time>2017-01-08T10:11:48.000Z</time>
      </trkpt>
      <trkpt lat="48.20713" lon="-4.28562">
        <ele>48.200000762939</ele>
        <time>2017-01-08T10:11:54.000Z</time>
      </trkpt>
      <trkpt lat="48.20681" lon="-4.28559">
        <ele>47.400001525879</ele>
        <time>2017-01-08T10:11:58.000Z</time>
      </trkpt>
      <trkpt lat="48.20644" lon="-4.2854">
        <ele>46.200000762939</ele>
        <time>2017-01-08T10:12:03.000Z</time>
      </trkpt>
      <trkpt lat="48.20589" lon="-4.28495">
        <ele>44</ele>
        <time>2017-01-08T10:12:11.000Z</time>
      </trkpt>
      <trkpt lat="48.20576" lon="-4.28483">
        <ele>43.599998474121</ele>
        <time>2017-01-08T10:12:13.000Z</time>
      </trkpt>
      <trkpt lat="48.2056" lon="-4.28481">
        <ele>43.400001525879</ele>
        <time>2017-01-08T10:12:16.000Z</time>
      </trkpt>
      <trkpt lat="48.20553" lon="-4.28492">
        <ele>43.599998474121</ele>
        <time>2017-01-08T10:12:18.000Z</time>
      </trkpt>
      <trkpt lat="48.20535" lon="-4.2854">
        <ele>44.599998474121</ele>
        <time>2017-01-08T10:12:26.000Z</time>
      </trkpt>
      <trkpt lat="48.20521" lon="-4.28576">
        <ele>45.799999237061</ele>
        <time>2017-01-08T10:12:33.000Z</time>
      </trkpt>
      <trkpt lat="48.20509" lon="-4.28605">
        <ele>46.599998474121</ele>
        <time>2017-01-08T10:12:40.000Z</time>
      </trkpt>
      <trkpt lat="48.205" lon="-4.28628">
        <ele>47.200000762939</ele>
        <time>2017-01-08T10:12:46.000Z</time>
      </trkpt>
      <trkpt lat="48.20492" lon="-4.28649">
        <ele>47.599998474121</ele>
        <time>2017-01-08T10:12:52.000Z</time>
      </trkpt>
      <trkpt lat="48.20482" lon="-4.28673">
        <ele>48</ele>
        <time>2017-01-08T10:12:58.000Z</time>
      </trkpt>
      <trkpt lat="48.20466" lon="-4.2871">
        <ele>48.599998474121</ele>
        <time>2017-01-08T10:13:06.000Z</time>
      </trkpt>
      <trkpt lat="48.20448" lon="-4.28753">
        <ele>49</ele>
        <time>2017-01-08T10:13:14.000Z</time>
      </trkpt>
      <trkpt lat="48.20428" lon="-4.28804">
        <ele>49.200000762939</ele>
        <time>2017-01-08T10:13:22.000Z</time>
      </trkpt>
      <trkpt lat="48.2041" lon="-4.28855">
        <ele>48.599998474121</ele>
        <time>2017-01-08T10:13:29.000Z</time>
      </trkpt>
      <trkpt lat="48.20395" lon="-4.28914">
        <ele>47</ele>
        <time>2017-01-08T10:13:36.000Z</time>
      </trkpt>
      <trkpt lat="48.20379" lon="-4.28971">
        <ele>44.400001525879</ele>
        <time>2017-01-08T10:13:42.000Z</time>
      </trkpt>
      <trkpt lat="48.20364" lon="-4.28989">
        <ele>43.200000762939</ele>
        <time>2017-01-08T10:13:46.000Z</time>
      </trkpt>
      <trkpt lat="48.20353" lon="-4.28981">
        <ele>43</ele>
        <time>2017-01-08T10:13:48.000Z</time>
      </trkpt>
      <trkpt lat="48.20332" lon="-4.28962">
        <ele>42.200000762939</ele>
        <time>2017-01-08T10:13:52.000Z</time>
      </trkpt>
      <trkpt lat="48.20315" lon="-4.28963">
        <ele>40.200000762939</ele>
        <time>2017-01-08T10:13:55.000Z</time>
      </trkpt>
      <trkpt lat="48.20305" lon="-4.28976">
        <ele>39</ele>
        <time>2017-01-08T10:13:57.000Z</time>
      </trkpt>
      <trkpt lat="48.20272" lon="-4.29041">
        <ele>34.599998474121</ele>
        <time>2017-01-08T10:14:04.000Z</time>
      </trkpt>
      <trkpt lat="48.20231" lon="-4.29117">
        <ele>29</ele>
        <time>2017-01-08T10:14:11.000Z</time>
      </trkpt>
      <trkpt lat="48.20218" lon="-4.29138">
        <ele>27.39999961853</ele>
        <time>2017-01-08T10:14:13.000Z</time>
      </trkpt>
      <trkpt lat="48.20203" lon="-4.29146">
        <ele>26</ele>
        <time>2017-01-08T10:14:16.000Z</time>
      </trkpt>
      <trkpt lat="48.202" lon="-4.29143">
        <ele>25.799999237061</ele>
        <time>2017-01-08T10:14:17.000Z</time>
      </trkpt>
      <trkpt lat="48.20177" lon="-4.29147">
        <ele>23.60000038147</ele>
        <time>2017-01-08T10:14:21.000Z</time>
      </trkpt>
      <trkpt lat="48.20167" lon="-4.29164">
        <ele>23.39999961853</ele>
        <time>2017-01-08T10:14:23.000Z</time>
      </trkpt>
      <trkpt lat="48.20133" lon="-4.29219">
        <ele>22.200000762939</ele>
        <time>2017-01-08T10:14:29.000Z</time>
      </trkpt>
      <trkpt lat="48.20109" lon="-4.29233">
        <ele>21.60000038147</ele>
        <time>2017-01-08T10:14:32.000Z</time>
      </trkpt>
      <trkpt lat="48.201" lon="-4.29234">
        <ele>21.60000038147</ele>
        <time>2017-01-08T10:14:33.000Z</time>
      </trkpt>
      <trkpt lat="48.20065" lon="-4.29251">
        <ele>24</ele>
        <time>2017-01-08T10:14:38.000Z</time>
      </trkpt>
      <trkpt lat="48.20045" lon="-4.2928">
        <ele>24.799999237061</ele>
        <time>2017-01-08T10:14:42.000Z</time>
      </trkpt>
      <trkpt lat="48.20038" lon="-4.29298">
        <ele>23.60000038147</ele>
        <time>2017-01-08T10:14:44.000Z</time>
      </trkpt>
      <trkpt lat="48.20024" lon="-4.29348">
        <ele>20.200000762939</ele>
        <time>2017-01-08T10:14:49.000Z</time>
      </trkpt>
      <trkpt lat="48.20019" lon="-4.29386">
        <ele>19.200000762939</ele>
        <time>2017-01-08T10:14:53.000Z</time>
      </trkpt>
      <trkpt lat="48.2001" lon="-4.294">
        <ele>19.200000762939</ele>
        <time>2017-01-08T10:14:57.000Z</time>
      </trkpt>
      <trkpt lat="48.20002" lon="-4.29386">
        <ele>19.39999961853</ele>
        <time>2017-01-08T10:15:00.000Z</time>
      </trkpt>
      <trkpt lat="48.19983" lon="-4.29354">
        <ele>22.60000038147</ele>
        <time>2017-01-08T10:15:08.000Z</time>
      </trkpt>
      <trkpt lat="48.19963" lon="-4.29337">
        <ele>25.39999961853</ele>
        <time>2017-01-08T10:15:16.000Z</time>
      </trkpt>
      <trkpt lat="48.19938" lon="-4.2932">
        <ele>28.60000038147</ele>
        <time>2017-01-08T10:15:25.000Z</time>
      </trkpt>
      <trkpt lat="48.19919" lon="-4.29308">
        <ele>31</ele>
        <time>2017-01-08T10:15:32.000Z</time>
      </trkpt>
      <trkpt lat="48.19899" lon="-4.29299">
        <ele>33.400001525879</ele>
        <time>2017-01-08T10:15:39.000Z</time>
      </trkpt>
      <trkpt lat="48.19884" lon="-4.29299">
        <ele>34.400001525879</ele>
        <time>2017-01-08T10:15:44.000Z</time>
      </trkpt>
      <trkpt lat="48.19871" lon="-4.29312">
        <ele>34</ele>
        <time>2017-01-08T10:15:49.000Z</time>
      </trkpt>
      <trkpt lat="48.19846" lon="-4.29343">
        <ele>33</ele>
        <time>2017-01-08T10:15:57.000Z</time>
      </trkpt>
      <trkpt lat="48.19838" lon="-4.29352">
        <ele>32.799999237061</ele>
        <time>2017-01-08T10:15:59.000Z</time>
      </trkpt>
      <trkpt lat="48.19811" lon="-4.29385">
        <ele>33.200000762939</ele>
        <time>2017-01-08T10:16:05.000Z</time>
      </trkpt>
      <trkpt lat="48.19796" lon="-4.29408">
        <ele>33</ele>
        <time>2017-01-08T10:16:08.000Z</time>
      </trkpt>
      <trkpt lat="48.19775" lon="-4.29472">
        <ele>30</ele>
        <time>2017-01-08T10:16:14.000Z</time>
      </trkpt>
      <trkpt lat="48.19773" lon="-4.29485">
        <ele>29.39999961853</ele>
        <time>2017-01-08T10:16:15.000Z</time>
      </trkpt>
      <trkpt lat="48.19771" lon="-4.29562">
        <ele>27</ele>
        <time>2017-01-08T10:16:21.000Z</time>
      </trkpt>
      <trkpt lat="48.19778" lon="-4.29624">
        <ele>26.60000038147</ele>
        <time>2017-01-08T10:16:26.000Z</time>
      </trkpt>
      <trkpt lat="48.19785" lon="-4.29711">
        <ele>25.39999961853</ele>
        <time>2017-01-08T10:16:33.000Z</time>
      </trkpt>
      <trkpt lat="48.19782" lon="-4.29804">
        <ele>24</ele>
        <time>2017-01-08T10:16:41.000Z</time>
      </trkpt>
      <trkpt lat="48.19776" lon="-4.29869">
        <ele>22.799999237061</ele>
        <time>2017-01-08T10:16:47.000Z</time>
      </trkpt>
      <trkpt lat="48.19763" lon="-4.29921">
        <ele>20</ele>
        <time>2017-01-08T10:16:52.000Z</time>
      </trkpt>
      <trkpt lat="48.19759" lon="-4.29931">
        <ele>19.60000038147</ele>
        <time>2017-01-08T10:16:53.000Z</time>
      </trkpt>
      <trkpt lat="48.1975" lon="-4.2995">
        <ele>18.799999237061</ele>
        <time>2017-01-08T10:16:55.000Z</time>
      </trkpt>
      <trkpt lat="48.19715" lon="-4.29995">
        <ele>18.39999961853</ele>
        <time>2017-01-08T10:17:01.000Z</time>
      </trkpt>
      <trkpt lat="48.19672" lon="-4.3005">
        <ele>17.200000762939</ele>
        <time>2017-01-08T10:17:08.000Z</time>
      </trkpt>
      <trkpt lat="48.19608" lon="-4.30124">
        <ele>12</ele>
        <time>2017-01-08T10:17:18.000Z</time>
      </trkpt>
      <trkpt lat="48.19592" lon="-4.30153">
        <ele>10.60000038147</ele>
        <time>2017-01-08T10:17:21.000Z</time>
      </trkpt>
      <trkpt lat="48.19587" lon="-4.30202">
        <ele>8</ele>
        <time>2017-01-08T10:17:25.000Z</time>
      </trkpt>
      <trkpt lat="48.19593" lon="-4.30239">
        <ele>7</ele>
        <time>2017-01-08T10:17:28.000Z</time>
      </trkpt>
      <trkpt lat="48.19605" lon="-4.30305">
        <ele>6</ele>
        <time>2017-01-08T10:17:34.000Z</time>
      </trkpt>
      <trkpt lat="48.1961" lon="-4.30325">
        <ele>5.8000001907349</ele>
        <time>2017-01-08T10:17:36.000Z</time>
      </trkpt>
      <trkpt lat="48.19628" lon="-4.30348">
        <ele>7.1999998092651</ele>
        <time>2017-01-08T10:17:40.000Z</time>
      </trkpt>
      <trkpt lat="48.19637" lon="-4.30354">
        <ele>8.3999996185303</ele>
        <time>2017-01-08T10:17:42.000Z</time>
      </trkpt>
      <trkpt lat="48.19647" lon="-4.30366">
        <ele>9.6000003814697</ele>
        <time>2017-01-08T10:17:47.000Z</time>
      </trkpt>
      <trkpt lat="48.19649" lon="-4.30375">
        <ele>10</ele>
        <time>2017-01-08T10:17:52.000Z</time>
      </trkpt>
      <trkpt lat="48.19652" lon="-4.30391">
        <ele>10.60000038147</ele>
        <time>2017-01-08T10:17:58.000Z</time>
      </trkpt>
      <trkpt lat="48.19655" lon="-4.30415">
        <ele>11.800000190735</ele>
        <time>2017-01-08T10:18:04.000Z</time>
      </trkpt>
      <trkpt lat="48.19658" lon="-4.30438">
        <ele>13</ele>
        <time>2017-01-08T10:18:11.000Z</time>
      </trkpt>
      <trkpt lat="48.19656" lon="-4.30452">
        <ele>13.199999809265</ele>
        <time>2017-01-08T10:18:16.000Z</time>
      </trkpt>
      <trkpt lat="48.19657" lon="-4.30467">
        <ele>13.39999961853</ele>
        <time>2017-01-08T10:18:21.000Z</time>
      </trkpt>
      <trkpt lat="48.19657" lon="-4.30486">
        <ele>14.39999961853</ele>
        <time>2017-01-08T10:18:27.000Z</time>
      </trkpt>
      <trkpt lat="48.19658" lon="-4.30503">
        <ele>15.800000190735</ele>
        <time>2017-01-08T10:18:33.000Z</time>
      </trkpt>
      <trkpt lat="48.19658" lon="-4.30521">
        <ele>16.799999237061</ele>
        <time>2017-01-08T10:18:39.000Z</time>
      </trkpt>
      <trkpt lat="48.1966" lon="-4.30538">
        <ele>17.60000038147</ele>
        <time>2017-01-08T10:18:45.000Z</time>
      </trkpt>
      <trkpt lat="48.19662" lon="-4.30559">
        <ele>18.200000762939</ele>
        <time>2017-01-08T10:18:52.000Z</time>
      </trkpt>
      <trkpt lat="48.19664" lon="-4.30577">
        <ele>19.39999961853</ele>
        <time>2017-01-08T10:18:59.000Z</time>
      </trkpt>
      <trkpt lat="48.19669" lon="-4.30593">
        <ele>21</ele>
        <time>2017-01-08T10:19:05.000Z</time>
      </trkpt>
      <trkpt lat="48.19676" lon="-4.30609">
        <ele>23.39999961853</ele>
        <time>2017-01-08T10:19:12.000Z</time>
      </trkpt>
      <trkpt lat="48.1969" lon="-4.30621">
        <ele>25.60000038147</ele>
        <time>2017-01-08T10:19:20.000Z</time>
      </trkpt>
      <trkpt lat="48.19693" lon="-4.30625">
        <ele>26</ele>
        <time>2017-01-08T10:19:22.000Z</time>
      </trkpt>
      <trkpt lat="48.19693" lon="-4.30638">
        <ele>26.200000762939</ele>
        <time>2017-01-08T10:19:26.000Z</time>
      </trkpt>
      <trkpt lat="48.19692" lon="-4.30657">
        <ele>26.39999961853</ele>
        <time>2017-01-08T10:19:32.000Z</time>
      </trkpt>
      <trkpt lat="48.19697" lon="-4.30674">
        <ele>27.200000762939</ele>
        <time>2017-01-08T10:19:37.000Z</time>
      </trkpt>
      <trkpt lat="48.19709" lon="-4.30698">
        <ele>29.60000038147</ele>
        <time>2017-01-08T10:19:45.000Z</time>
      </trkpt>
      <trkpt lat="48.19722" lon="-4.30724">
        <ele>30.799999237061</ele>
        <time>2017-01-08T10:19:54.000Z</time>
      </trkpt>
      <trkpt lat="48.19729" lon="-4.30741">
        <ele>31.39999961853</ele>
        <time>2017-01-08T10:19:59.000Z</time>
      </trkpt>
      <trkpt lat="48.19738" lon="-4.30761">
        <ele>32.599998474121</ele>
        <time>2017-01-08T10:20:06.000Z</time>
      </trkpt>
      <trkpt lat="48.1974" lon="-4.30765">
        <ele>32.799999237061</ele>
        <time>2017-01-08T10:20:08.000Z</time>
      </trkpt>
      <trkpt lat="48.19743" lon="-4.30766">
        <ele>33.200000762939</ele>
        <time>2017-01-08T10:20:12.000Z</time>
      </trkpt>
      <trkpt lat="48.1975" lon="-4.3079">
        <ele>33.200000762939</ele>
        <time>2017-01-08T10:21:00.000Z</time>
      </trkpt>
      <trkpt lat="48.19765" lon="-4.3082">
        <ele>33.599998474121</ele>
        <time>2017-01-08T10:21:06.000Z</time>
      </trkpt>
      <trkpt lat="48.19786" lon="-4.30856">
        <ele>32.400001525879</ele>
        <time>2017-01-08T10:21:12.000Z</time>
      </trkpt>
      <trkpt lat="48.1981" lon="-4.30893">
        <ele>30.39999961853</ele>
        <time>2017-01-08T10:21:17.000Z</time>
      </trkpt>
      <trkpt lat="48.19846" lon="-4.30946">
        <ele>31</ele>
        <time>2017-01-08T10:21:23.000Z</time>
      </trkpt>
      <trkpt lat="48.19879" lon="-4.30999">
        <ele>29.200000762939</ele>
        <time>2017-01-08T10:21:29.000Z</time>
      </trkpt>
      <trkpt lat="48.19892" lon="-4.31021">
        <ele>29.200000762939</ele>
        <time>2017-01-08T10:21:32.000Z</time>
      </trkpt>
      <trkpt lat="48.1991" lon="-4.31049">
        <ele>29.60000038147</ele>
        <time>2017-01-08T10:21:38.000Z</time>
      </trkpt>
      <trkpt lat="48.19927" lon="-4.31078">
        <ele>29.39999961853</ele>
        <time>2017-01-08T10:21:43.000Z</time>
      </trkpt>
      <trkpt lat="48.19963" lon="-4.31126">
        <ele>27.799999237061</ele>
        <time>2017-01-08T10:21:51.000Z</time>
      </trkpt>
      <trkpt lat="48.19994" lon="-4.31163">
        <ele>26.200000762939</ele>
        <time>2017-01-08T10:21:57.000Z</time>
      </trkpt>
      <trkpt lat="48.20028" lon="-4.3121">
        <ele>25.39999961853</ele>
        <time>2017-01-08T10:22:04.000Z</time>
      </trkpt>
      <trkpt lat="48.2005" lon="-4.31243">
        <ele>25.799999237061</ele>
        <time>2017-01-08T10:22:10.000Z</time>
      </trkpt>
      <trkpt lat="48.20053" lon="-4.31247">
        <ele>25.799999237061</ele>
        <time>2017-01-08T10:22:11.000Z</time>
      </trkpt>
      <trkpt lat="48.20071" lon="-4.31275">
        <ele>26.60000038147</ele>
        <time>2017-01-08T10:22:18.000Z</time>
      </trkpt>
      <trkpt lat="48.2009" lon="-4.31303">
        <ele>26.39999961853</ele>
        <time>2017-01-08T10:22:26.000Z</time>
      </trkpt>
      <trkpt lat="48.20111" lon="-4.31334">
        <ele>26.200000762939</ele>
        <time>2017-01-08T10:22:34.000Z</time>
      </trkpt>
      <trkpt lat="48.20127" lon="-4.31357">
        <ele>26.39999961853</ele>
        <time>2017-01-08T10:22:40.000Z</time>
      </trkpt>
      <trkpt lat="48.20145" lon="-4.31383">
        <ele>24.799999237061</ele>
        <time>2017-01-08T10:22:47.000Z</time>
      </trkpt>
      <trkpt lat="48.20162" lon="-4.31408">
        <ele>25</ele>
        <time>2017-01-08T10:22:54.000Z</time>
      </trkpt>
      <trkpt lat="48.2018" lon="-4.31431">
        <ele>26.39999961853</ele>
        <time>2017-01-08T10:23:01.000Z</time>
      </trkpt>
      <trkpt lat="48.20199" lon="-4.3145">
        <ele>28</ele>
        <time>2017-01-08T10:23:08.000Z</time>
      </trkpt>
      <trkpt lat="48.20219" lon="-4.31467">
        <ele>29</ele>
        <time>2017-01-08T10:23:15.000Z</time>
      </trkpt>
      <trkpt lat="48.20241" lon="-4.31486">
        <ele>30</ele>
        <time>2017-01-08T10:23:23.000Z</time>
      </trkpt>
      <trkpt lat="48.20262" lon="-4.31504">
        <ele>30.60000038147</ele>
        <time>2017-01-08T10:23:31.000Z</time>
      </trkpt>
      <trkpt lat="48.20285" lon="-4.31523">
        <ele>31</ele>
        <time>2017-01-08T10:23:40.000Z</time>
      </trkpt>
      <trkpt lat="48.20303" lon="-4.31537">
        <ele>31.60000038147</ele>
        <time>2017-01-08T10:23:46.000Z</time>
      </trkpt>
      <trkpt lat="48.20323" lon="-4.31546">
        <ele>32.599998474121</ele>
        <time>2017-01-08T10:23:53.000Z</time>
      </trkpt>
      <trkpt lat="48.20342" lon="-4.31554">
        <ele>33.599998474121</ele>
        <time>2017-01-08T10:23:59.000Z</time>
      </trkpt>
      <trkpt lat="48.20361" lon="-4.3156">
        <ele>34</ele>
        <time>2017-01-08T10:24:05.000Z</time>
      </trkpt>
      <trkpt lat="48.20378" lon="-4.31567">
        <ele>33.400001525879</ele>
        <time>2017-01-08T10:24:11.000Z</time>
      </trkpt>
      <trkpt lat="48.20394" lon="-4.31584">
        <ele>31.799999237061</ele>
        <time>2017-01-08T10:24:16.000Z</time>
      </trkpt>
      <trkpt lat="48.20405" lon="-4.316">
        <ele>30.60000038147</ele>
        <time>2017-01-08T10:24:19.000Z</time>
      </trkpt>
      <trkpt lat="48.20421" lon="-4.31651">
        <ele>26.39999961853</ele>
        <time>2017-01-08T10:24:25.000Z</time>
      </trkpt>
      <trkpt lat="48.20431" lon="-4.31686">
        <ele>21.60000038147</ele>
        <time>2017-01-08T10:24:28.000Z</time>
      </trkpt>
      <trkpt lat="48.20443" lon="-4.31775">
        <ele>13.39999961853</ele>
        <time>2017-01-08T10:24:34.000Z</time>
      </trkpt>
      <trkpt lat="48.20446" lon="-4.31802">
        <ele>13</ele>
        <time>2017-01-08T10:24:36.000Z</time>
      </trkpt>
      <trkpt lat="48.20439" lon="-4.3183">
        <ele>11.39999961853</ele>
        <time>2017-01-08T10:24:40.000Z</time>
      </trkpt>
      <trkpt lat="48.20428" lon="-4.3187">
        <ele>9.1999998092651</ele>
        <time>2017-01-08T10:24:46.000Z</time>
      </trkpt>
      <trkpt lat="48.20423" lon="-4.3189">
        <ele>9.6000003814697</ele>
        <time>2017-01-08T10:24:50.000Z</time>
      </trkpt>
      <trkpt lat="48.20418" lon="-4.31909">
        <ele>10</ele>
        <time>2017-01-08T10:24:55.000Z</time>
      </trkpt>
      <trkpt lat="48.20412" lon="-4.31929">
        <ele>10.39999961853</ele>
        <time>2017-01-08T10:25:00.000Z</time>
      </trkpt>
      <trkpt lat="48.20408" lon="-4.31961">
        <ele>10.800000190735</ele>
        <time>2017-01-08T10:25:05.000Z</time>
      </trkpt>
      <trkpt lat="48.20409" lon="-4.31981">
        <ele>10.39999961853</ele>
        <time>2017-01-08T10:25:08.000Z</time>
      </trkpt>
      <trkpt lat="48.20415" lon="-4.31995">
        <ele>10</ele>
        <time>2017-01-08T10:25:12.000Z</time>
      </trkpt>
      <trkpt lat="48.20415" lon="-4.31998">
        <ele>10</ele>
        <time>2017-01-08T10:25:13.000Z</time>
      </trkpt>
      <trkpt lat="48.20416" lon="-4.32029">
        <ele>9.1999998092651</ele>
        <time>2017-01-08T10:25:19.000Z</time>
      </trkpt>
      <trkpt lat="48.20419" lon="-4.32047">
        <ele>7.8000001907349</ele>
        <time>2017-01-08T10:25:23.000Z</time>
      </trkpt>
      <trkpt lat="48.20419" lon="-4.32054">
        <ele>7.4000000953674</ele>
        <time>2017-01-08T10:25:25.000Z</time>
      </trkpt>
      <trkpt lat="48.20417" lon="-4.32064">
        <ele>6.8000001907349</ele>
        <time>2017-01-08T10:25:29.000Z</time>
      </trkpt>
      <trkpt lat="48.20421" lon="-4.32084">
        <ele>5.5999999046326</ele>
        <time>2017-01-08T10:25:33.000Z</time>
      </trkpt>
      <trkpt lat="48.20416" lon="-4.32104">
        <ele>4.1999998092651</ele>
        <time>2017-01-08T10:25:37.000Z</time>
      </trkpt>
      <trkpt lat="48.20408" lon="-4.3212">
        <ele>3.7999999523163</ele>
        <time>2017-01-08T10:25:40.000Z</time>
      </trkpt>
      <trkpt lat="48.20399" lon="-4.32152">
        <ele>5.5999999046326</ele>
        <time>2017-01-08T10:25:45.000Z</time>
      </trkpt>
      <trkpt lat="48.20382" lon="-4.32184">
        <ele>7.8000001907349</ele>
        <time>2017-01-08T10:25:54.000Z</time>
      </trkpt>
      <trkpt lat="48.20371" lon="-4.32195">
        <ele>8</ele>
        <time>2017-01-08T10:25:59.000Z</time>
      </trkpt>
      <trkpt lat="48.20362" lon="-4.32205">
        <ele>8</ele>
        <time>2017-01-08T10:26:05.000Z</time>
      </trkpt>
      <trkpt lat="48.20354" lon="-4.32218">
        <ele>8.6000003814697</ele>
        <time>2017-01-08T10:26:11.000Z</time>
      </trkpt>
      <trkpt lat="48.20347" lon="-4.32229">
        <ele>9</ele>
        <time>2017-01-08T10:26:17.000Z</time>
      </trkpt>
      <trkpt lat="48.20336" lon="-4.32246">
        <ele>9.1999998092651</ele>
        <time>2017-01-08T10:26:25.000Z</time>
      </trkpt>
      <trkpt lat="48.20325" lon="-4.32257">
        <ele>9.1999998092651</ele>
        <time>2017-01-08T10:26:32.000Z</time>
      </trkpt>
      <trkpt lat="48.20314" lon="-4.32271">
        <ele>9.1999998092651</ele>
        <time>2017-01-08T10:26:39.000Z</time>
      </trkpt>
      <trkpt lat="48.20305" lon="-4.32285">
        <ele>9.3999996185303</ele>
        <time>2017-01-08T10:26:46.000Z</time>
      </trkpt>
      <trkpt lat="48.20297" lon="-4.32299">
        <ele>9.6000003814697</ele>
        <time>2017-01-08T10:26:52.000Z</time>
      </trkpt>
      <trkpt lat="48.2029" lon="-4.32316">
        <ele>9.8000001907349</ele>
        <time>2017-01-08T10:26:59.000Z</time>
      </trkpt>
      <trkpt lat="48.20285" lon="-4.32334">
        <ele>10.39999961853</ele>
        <time>2017-01-08T10:27:06.000Z</time>
      </trkpt>
      <trkpt lat="48.20281" lon="-4.32359">
        <ele>12.800000190735</ele>
        <time>2017-01-08T10:27:14.000Z</time>
      </trkpt>
      <trkpt lat="48.2028" lon="-4.32378">
        <ele>14.39999961853</ele>
        <time>2017-01-08T10:27:21.000Z</time>
      </trkpt>
      <trkpt lat="48.2028" lon="-4.32391">
        <ele>15.199999809265</ele>
        <time>2017-01-08T10:27:26.000Z</time>
      </trkpt>
      <trkpt lat="48.20281" lon="-4.32402">
        <ele>16</ele>
        <time>2017-01-08T10:27:31.000Z</time>
      </trkpt>
      <trkpt lat="48.20284" lon="-4.32413">
        <ele>17.200000762939</ele>
        <time>2017-01-08T10:27:36.000Z</time>
      </trkpt>
      <trkpt lat="48.20291" lon="-4.3243">
        <ele>19.60000038147</ele>
        <time>2017-01-08T10:27:44.000Z</time>
      </trkpt>
      <trkpt lat="48.20299" lon="-4.32447">
        <ele>22.60000038147</ele>
        <time>2017-01-08T10:27:52.000Z</time>
      </trkpt>
      <trkpt lat="48.20307" lon="-4.32461">
        <ele>24.799999237061</ele>
        <time>2017-01-08T10:27:58.000Z</time>
      </trkpt>
      <trkpt lat="48.20318" lon="-4.3248">
        <ele>27.60000038147</ele>
        <time>2017-01-08T10:28:04.000Z</time>
      </trkpt>
      <trkpt lat="48.2033" lon="-4.325">
        <ele>29.60000038147</ele>
        <time>2017-01-08T10:28:11.000Z</time>
      </trkpt>
      <trkpt lat="48.20339" lon="-4.32514">
        <ele>31</ele>
        <time>2017-01-08T10:28:17.000Z</time>
      </trkpt>
      <trkpt lat="48.20345" lon="-4.32528">
        <ele>32</ele>
        <time>2017-01-08T10:28:21.000Z</time>
      </trkpt>
      <trkpt lat="48.20357" lon="-4.32546">
        <ele>32</ele>
        <time>2017-01-08T10:28:26.000Z</time>
      </trkpt>
      <trkpt lat="48.20377" lon="-4.32578">
        <ele>31.60000038147</ele>
        <time>2017-01-08T10:28:32.000Z</time>
      </trkpt>
      <trkpt lat="48.20396" lon="-4.32602">
        <ele>29.200000762939</ele>
        <time>2017-01-08T10:28:36.000Z</time>
      </trkpt>
      <trkpt lat="48.2043" lon="-4.32645">
        <ele>23.200000762939</ele>
        <time>2017-01-08T10:28:41.000Z</time>
      </trkpt>
      <trkpt lat="48.20444" lon="-4.32666">
        <ele>20.39999961853</ele>
        <time>2017-01-08T10:28:43.000Z</time>
      </trkpt>
      <trkpt lat="48.20467" lon="-4.32725">
        <ele>15.60000038147</ele>
        <time>2017-01-08T10:28:48.000Z</time>
      </trkpt>
      <trkpt lat="48.20484" lon="-4.32737">
        <ele>15.800000190735</ele>
        <time>2017-01-08T10:28:51.000Z</time>
      </trkpt>
      <trkpt lat="48.2049" lon="-4.32734">
        <ele>16.60000038147</ele>
        <time>2017-01-08T10:28:52.000Z</time>
      </trkpt>
      <trkpt lat="48.20527" lon="-4.3271">
        <ele>21.200000762939</ele>
        <time>2017-01-08T10:29:00.000Z</time>
      </trkpt>
      <trkpt lat="48.20551" lon="-4.32697">
        <ele>23</ele>
        <time>2017-01-08T10:29:07.000Z</time>
      </trkpt>
      <trkpt lat="48.20567" lon="-4.32689">
        <ele>24</ele>
        <time>2017-01-08T10:29:12.000Z</time>
      </trkpt>
      <trkpt lat="48.20564" lon="-4.32688">
        <ele>24</ele>
        <time>2017-01-08T10:29:16.000Z</time>
      </trkpt>
      <trkpt lat="48.20552" lon="-4.32697">
        <ele>23</ele>
        <time>2017-01-08T10:29:21.000Z</time>
      </trkpt>
      <trkpt lat="48.2055" lon="-4.32701">
        <ele>22.60000038147</ele>
        <time>2017-01-08T10:29:23.000Z</time>
      </trkpt>
      <trkpt lat="48.2055" lon="-4.32704">
        <ele>22.60000038147</ele>
        <time>2017-01-08T10:29:27.000Z</time>
      </trkpt>
      <trkpt lat="48.20559" lon="-4.32693">
        <ele>23.39999961853</ele>
        <time>2017-01-08T10:29:38.000Z</time>
      </trkpt>
      <trkpt lat="48.20564" lon="-4.32691">
        <ele>23.799999237061</ele>
        <time>2017-01-08T10:29:40.000Z</time>
      </trkpt>
      <trkpt lat="48.20587" lon="-4.32687">
        <ele>25.200000762939</ele>
        <time>2017-01-08T10:29:47.000Z</time>
      </trkpt>
      <trkpt lat="48.20613" lon="-4.32697">
        <ele>25.39999961853</ele>
        <time>2017-01-08T10:29:55.000Z</time>
      </trkpt>
      <trkpt lat="48.20635" lon="-4.3272">
        <ele>24.799999237061</ele>
        <time>2017-01-08T10:30:01.000Z</time>
      </trkpt>
      <trkpt lat="48.20662" lon="-4.3275">
        <ele>25</ele>
        <time>2017-01-08T10:30:08.000Z</time>
      </trkpt>
      <trkpt lat="48.20684" lon="-4.32774">
        <ele>25.39999961853</ele>
        <time>2017-01-08T10:30:14.000Z</time>
      </trkpt>
      <trkpt lat="48.20701" lon="-4.32774">
        <ele>26.200000762939</ele>
        <time>2017-01-08T10:30:18.000Z</time>
      </trkpt>
      <trkpt lat="48.20707" lon="-4.32766">
        <ele>26.799999237061</ele>
        <time>2017-01-08T10:30:20.000Z</time>
      </trkpt>
      <trkpt lat="48.20726" lon="-4.32739">
        <ele>28.200000762939</ele>
        <time>2017-01-08T10:30:28.000Z</time>
      </trkpt>
      <trkpt lat="48.20743" lon="-4.3272">
        <ele>29.60000038147</ele>
        <time>2017-01-08T10:30:36.000Z</time>
      </trkpt>
      <trkpt lat="48.20758" lon="-4.32711">
        <ele>30.39999961853</ele>
        <time>2017-01-08T10:30:42.000Z</time>
      </trkpt>
      <trkpt lat="48.20777" lon="-4.32695">
        <ele>31.60000038147</ele>
        <time>2017-01-08T10:30:50.000Z</time>
      </trkpt>
      <trkpt lat="48.20793" lon="-4.32675">
        <ele>33.400001525879</ele>
        <time>2017-01-08T10:30:58.000Z</time>
      </trkpt>
      <trkpt lat="48.20807" lon="-4.32653">
        <ele>35.200000762939</ele>
        <time>2017-01-08T10:31:06.000Z</time>
      </trkpt>
      <trkpt lat="48.20819" lon="-4.32635">
        <ele>36.599998474121</ele>
        <time>2017-01-08T10:31:13.000Z</time>
      </trkpt>
      <trkpt lat="48.20826" lon="-4.32623">
        <ele>37.599998474121</ele>
        <time>2017-01-08T10:31:18.000Z</time>
      </trkpt>
      <trkpt lat="48.20837" lon="-4.32607">
        <ele>38.799999237061</ele>
        <time>2017-01-08T10:31:25.000Z</time>
      </trkpt>
      <trkpt lat="48.20853" lon="-4.32585">
        <ele>40.200000762939</ele>
        <time>2017-01-08T10:31:34.000Z</time>
      </trkpt>
      <trkpt lat="48.2087" lon="-4.32563">
        <ele>41.400001525879</ele>
        <time>2017-01-08T10:31:43.000Z</time>
      </trkpt>
      <trkpt lat="48.20882" lon="-4.32545">
        <ele>42.400001525879</ele>
        <time>2017-01-08T10:31:50.000Z</time>
      </trkpt>
      <trkpt lat="48.20895" lon="-4.32527">
        <ele>43.200000762939</ele>
        <time>2017-01-08T10:31:57.000Z</time>
      </trkpt>
      <trkpt lat="48.20908" lon="-4.3251">
        <ele>44</ele>
        <time>2017-01-08T10:32:04.000Z</time>
      </trkpt>
      <trkpt lat="48.20925" lon="-4.32488">
        <ele>45</ele>
        <time>2017-01-08T10:32:13.000Z</time>
      </trkpt>
      <trkpt lat="48.20941" lon="-4.3247">
        <ele>45.599998474121</ele>
        <time>2017-01-08T10:32:21.000Z</time>
      </trkpt>
      <trkpt lat="48.20959" lon="-4.32452">
        <ele>46.200000762939</ele>
        <time>2017-01-08T10:32:28.000Z</time>
      </trkpt>
      <trkpt lat="48.20979" lon="-4.32433">
        <ele>46.799999237061</ele>
        <time>2017-01-08T10:32:36.000Z</time>
      </trkpt>
      <trkpt lat="48.20994" lon="-4.32417">
        <ele>47.200000762939</ele>
        <time>2017-01-08T10:32:42.000Z</time>
      </trkpt>
      <trkpt lat="48.21018" lon="-4.32397">
        <ele>47.400001525879</ele>
        <time>2017-01-08T10:32:48.000Z</time>
      </trkpt>
      <trkpt lat="48.21046" lon="-4.32366">
        <ele>47.200000762939</ele>
        <time>2017-01-08T10:32:54.000Z</time>
      </trkpt>
      <trkpt lat="48.21062" lon="-4.32347">
        <ele>47.400001525879</ele>
        <time>2017-01-08T10:32:57.000Z</time>
      </trkpt>
      <trkpt lat="48.21088" lon="-4.32329">
        <ele>47.400001525879</ele>
        <time>2017-01-08T10:33:01.000Z</time>
      </trkpt>
      <trkpt lat="48.21132" lon="-4.32322">
        <ele>47.599998474121</ele>
        <time>2017-01-08T10:33:08.000Z</time>
      </trkpt>
      <trkpt lat="48.21163" lon="-4.32327">
        <ele>46.599998474121</ele>
        <time>2017-01-08T10:33:14.000Z</time>
      </trkpt>
      <trkpt lat="48.2119" lon="-4.3233">
        <ele>46.200000762939</ele>
        <time>2017-01-08T10:33:20.000Z</time>
      </trkpt>
      <trkpt lat="48.21194" lon="-4.3233">
        <ele>46.200000762939</ele>
        <time>2017-01-08T10:33:21.000Z</time>
      </trkpt>
      <trkpt lat="48.21229" lon="-4.32325">
        <ele>46.599998474121</ele>
        <time>2017-01-08T10:33:29.000Z</time>
      </trkpt>
      <trkpt lat="48.21259" lon="-4.3231">
        <ele>47.599998474121</ele>
        <time>2017-01-08T10:33:36.000Z</time>
      </trkpt>
      <trkpt lat="48.2128" lon="-4.3229">
        <ele>48.799999237061</ele>
        <time>2017-01-08T10:33:42.000Z</time>
      </trkpt>
      <trkpt lat="48.21283" lon="-4.32287">
        <ele>49</ele>
        <time>2017-01-08T10:33:43.000Z</time>
      </trkpt>
      <trkpt lat="48.2131" lon="-4.3224">
        <ele>50.799999237061</ele>
        <time>2017-01-08T10:33:54.000Z</time>
      </trkpt>
      <trkpt lat="48.21334" lon="-4.32201">
        <ele>52</ele>
        <time>2017-01-08T10:34:03.000Z</time>
      </trkpt>
      <trkpt lat="48.21356" lon="-4.32161">
        <ele>52.799999237061</ele>
        <time>2017-01-08T10:34:12.000Z</time>
      </trkpt>
      <trkpt lat="48.21374" lon="-4.32123">
        <ele>53.400001525879</ele>
        <time>2017-01-08T10:34:19.000Z</time>
      </trkpt>
      <trkpt lat="48.2139" lon="-4.32092">
        <ele>54</ele>
        <time>2017-01-08T10:34:25.000Z</time>
      </trkpt>
      <trkpt lat="48.21392" lon="-4.32088">
        <ele>54</ele>
        <time>2017-01-08T10:34:26.000Z</time>
      </trkpt>
      <trkpt lat="48.21411" lon="-4.32066">
        <ele>54.400001525879</ele>
        <time>2017-01-08T10:34:32.000Z</time>
      </trkpt>
      <trkpt lat="48.2143" lon="-4.3204">
        <ele>54.799999237061</ele>
        <time>2017-01-08T10:34:39.000Z</time>
      </trkpt>
      <trkpt lat="48.21443" lon="-4.32023">
        <ele>55.599998474121</ele>
        <time>2017-01-08T10:34:44.000Z</time>
      </trkpt>
      <trkpt lat="48.21462" lon="-4.32004">
        <ele>56.799999237061</ele>
        <time>2017-01-08T10:34:51.000Z</time>
      </trkpt>
      <trkpt lat="48.21467" lon="-4.31999">
        <ele>57</ele>
        <time>2017-01-08T10:34:53.000Z</time>
      </trkpt>
      <trkpt lat="48.21471" lon="-4.31994">
        <ele>57.400001525879</ele>
        <time>2017-01-08T10:34:56.000Z</time>
      </trkpt>
      <trkpt lat="48.21484" lon="-4.31998">
        <ele>57.400001525879</ele>
        <time>2017-01-08T10:35:01.000Z</time>
      </trkpt>
      <trkpt lat="48.21507" lon="-4.32017">
        <ele>57.400001525879</ele>
        <time>2017-01-08T10:35:07.000Z</time>
      </trkpt>
      <trkpt lat="48.21539" lon="-4.32045">
        <ele>57.599998474121</ele>
        <time>2017-01-08T10:35:14.000Z</time>
      </trkpt>
      <trkpt lat="48.21558" lon="-4.32062">
        <ele>57.799999237061</ele>
        <time>2017-01-08T10:35:20.000Z</time>
      </trkpt>
      <trkpt lat="48.21578" lon="-4.3208">
        <ele>59</ele>
        <time>2017-01-08T10:35:27.000Z</time>
      </trkpt>
      <trkpt lat="48.21595" lon="-4.32094">
        <ele>60</ele>
        <time>2017-01-08T10:35:33.000Z</time>
      </trkpt>
      <trkpt lat="48.21616" lon="-4.32114">
        <ele>61.200000762939</ele>
        <time>2017-01-08T10:35:41.000Z</time>
      </trkpt>
      <trkpt lat="48.21635" lon="-4.32131">
        <ele>62.799999237061</ele>
        <time>2017-01-08T10:35:49.000Z</time>
      </trkpt>
      <trkpt lat="48.21658" lon="-4.32148">
        <ele>64.599998474121</ele>
        <time>2017-01-08T10:35:58.000Z</time>
      </trkpt>
      <trkpt lat="48.21678" lon="-4.32157">
        <ele>66</ele>
        <time>2017-01-08T10:36:05.000Z</time>
      </trkpt>
      <trkpt lat="48.21698" lon="-4.32158">
        <ele>67.199996948242</ele>
        <time>2017-01-08T10:36:12.000Z</time>
      </trkpt>
      <trkpt lat="48.21726" lon="-4.32154">
        <ele>68.800003051758</ele>
        <time>2017-01-08T10:36:21.000Z</time>
      </trkpt>
      <trkpt lat="48.21752" lon="-4.3215">
        <ele>70</ele>
        <time>2017-01-08T10:36:29.000Z</time>
      </trkpt>
      <trkpt lat="48.21782" lon="-4.32144">
        <ele>71</ele>
        <time>2017-01-08T10:36:38.000Z</time>
      </trkpt>
      <trkpt lat="48.21812" lon="-4.32138">
        <ele>72.199996948242</ele>
        <time>2017-01-08T10:36:47.000Z</time>
      </trkpt>
      <trkpt lat="48.2184" lon="-4.32134">
        <ele>73</ele>
        <time>2017-01-08T10:36:55.000Z</time>
      </trkpt>
      <trkpt lat="48.21866" lon="-4.32134">
        <ele>74.199996948242</ele>
        <time>2017-01-08T10:37:03.000Z</time>
      </trkpt>
      <trkpt lat="48.21898" lon="-4.32142">
        <ele>75.800003051758</ele>
        <time>2017-01-08T10:37:13.000Z</time>
      </trkpt>
      <trkpt lat="48.21928" lon="-4.3215">
        <ele>77.400001525879</ele>
        <time>2017-01-08T10:37:23.000Z</time>
      </trkpt>
      <trkpt lat="48.21949" lon="-4.32159">
        <ele>78.599998474121</ele>
        <time>2017-01-08T10:37:30.000Z</time>
      </trkpt>
      <trkpt lat="48.21971" lon="-4.32173">
        <ele>80</ele>
        <time>2017-01-08T10:37:38.000Z</time>
      </trkpt>
      <trkpt lat="48.21998" lon="-4.32193">
        <ele>82</ele>
        <time>2017-01-08T10:37:48.000Z</time>
      </trkpt>
      <trkpt lat="48.22027" lon="-4.32214">
        <ele>84</ele>
        <time>2017-01-08T10:37:59.000Z</time>
      </trkpt>
      <trkpt lat="48.22052" lon="-4.32234">
        <ele>85.400001525879</ele>
        <time>2017-01-08T10:38:08.000Z</time>
      </trkpt>
      <trkpt lat="48.22084" lon="-4.32257">
        <ele>87.199996948242</ele>
        <time>2017-01-08T10:38:19.000Z</time>
      </trkpt>
      <trkpt lat="48.22113" lon="-4.32278">
        <ele>88.800003051758</ele>
        <time>2017-01-08T10:38:29.000Z</time>
      </trkpt>
      <trkpt lat="48.2214" lon="-4.32298">
        <ele>90</ele>
        <time>2017-01-08T10:38:38.000Z</time>
      </trkpt>
      <trkpt lat="48.22163" lon="-4.32314">
        <ele>91</ele>
        <time>2017-01-08T10:38:46.000Z</time>
      </trkpt>
      <trkpt lat="48.22185" lon="-4.3232">
        <ele>92.199996948242</ele>
        <time>2017-01-08T10:38:53.000Z</time>
      </trkpt>
      <trkpt lat="48.22213" lon="-4.32324">
        <ele>93.199996948242</ele>
        <time>2017-01-08T10:39:01.000Z</time>
      </trkpt>
      <trkpt lat="48.22233" lon="-4.32327">
        <ele>94.199996948242</ele>
        <time>2017-01-08T10:39:07.000Z</time>
      </trkpt>
      <trkpt lat="48.22258" lon="-4.32329">
        <ele>95.400001525879</ele>
        <time>2017-01-08T10:39:14.000Z</time>
      </trkpt>
      <trkpt lat="48.22284" lon="-4.32332">
        <ele>96.599998474121</ele>
        <time>2017-01-08T10:39:22.000Z</time>
      </trkpt>
      <trkpt lat="48.22317" lon="-4.32335">
        <ele>98</ele>
        <time>2017-01-08T10:39:32.000Z</time>
      </trkpt>
      <trkpt lat="48.22348" lon="-4.32337">
        <ele>99</ele>
        <time>2017-01-08T10:39:42.000Z</time>
      </trkpt>
      <trkpt lat="48.22366" lon="-4.32339">
        <ele>99.800003051758</ele>
        <time>2017-01-08T10:39:48.000Z</time>
      </trkpt>
      <trkpt lat="48.22388" lon="-4.32338">
        <ele>100.59999847412</ele>
        <time>2017-01-08T10:39:55.000Z</time>
      </trkpt>
      <trkpt lat="48.22421" lon="-4.32337">
        <ele>101.80000305176</ele>
        <time>2017-01-08T10:40:05.000Z</time>
      </trkpt>
      <trkpt lat="48.22449" lon="-4.3234">
        <ele>103</ele>
        <time>2017-01-08T10:40:13.000Z</time>
      </trkpt>
      <trkpt lat="48.22476" lon="-4.32346">
        <ele>103.59999847412</ele>
        <time>2017-01-08T10:40:21.000Z</time>
      </trkpt>
      <trkpt lat="48.22506" lon="-4.32343">
        <ele>104.40000152588</ele>
        <time>2017-01-08T10:40:30.000Z</time>
      </trkpt>
      <trkpt lat="48.22542" lon="-4.32336">
        <ele>105.80000305176</ele>
        <time>2017-01-08T10:40:40.000Z</time>
      </trkpt>
      <trkpt lat="48.22575" lon="-4.32329">
        <ele>106.80000305176</ele>
        <time>2017-01-08T10:40:49.000Z</time>
      </trkpt>
      <trkpt lat="48.22605" lon="-4.32318">
        <ele>107.80000305176</ele>
        <time>2017-01-08T10:40:58.000Z</time>
      </trkpt>
      <trkpt lat="48.22626" lon="-4.3231">
        <ele>108.40000152588</ele>
        <time>2017-01-08T10:41:04.000Z</time>
      </trkpt>
      <trkpt lat="48.22653" lon="-4.323">
        <ele>109</ele>
        <time>2017-01-08T10:41:12.000Z</time>
      </trkpt>
      <trkpt lat="48.22669" lon="-4.32305">
        <ele>109.40000152588</ele>
        <time>2017-01-08T10:41:17.000Z</time>
      </trkpt>
      <trkpt lat="48.22689" lon="-4.32334">
        <ele>109.19999694824</ele>
        <time>2017-01-08T10:41:24.000Z</time>
      </trkpt>
      <trkpt lat="48.22717" lon="-4.32376">
        <ele>108.40000152588</ele>
        <time>2017-01-08T10:41:33.000Z</time>
      </trkpt>
      <trkpt lat="48.22732" lon="-4.32403">
        <ele>108</ele>
        <time>2017-01-08T10:41:38.000Z</time>
      </trkpt>
      <trkpt lat="48.22749" lon="-4.32408">
        <ele>108</ele>
        <time>2017-01-08T10:41:42.000Z</time>
      </trkpt>
      <trkpt lat="48.22751" lon="-4.32387">
        <ele>108</ele>
        <time>2017-01-08T10:41:45.000Z</time>
      </trkpt>
      <trkpt lat="48.22743" lon="-4.32335">
        <ele>108.59999847412</ele>
        <time>2017-01-08T10:41:51.000Z</time>
      </trkpt>
      <trkpt lat="48.22736" lon="-4.32278">
        <ele>109.40000152588</ele>
        <time>2017-01-08T10:41:59.000Z</time>
      </trkpt>
      <trkpt lat="48.22743" lon="-4.32256">
        <ele>110.19999694824</ele>
        <time>2017-01-08T10:42:03.000Z</time>
      </trkpt>
      <trkpt lat="48.22753" lon="-4.32252">
        <ele>110.19999694824</ele>
        <time>2017-01-08T10:42:05.000Z</time>
      </trkpt>
      <trkpt lat="48.22796" lon="-4.32236">
        <ele>110.19999694824</ele>
        <time>2017-01-08T10:42:14.000Z</time>
      </trkpt>
      <trkpt lat="48.22838" lon="-4.32215">
        <ele>110.59999847412</ele>
        <time>2017-01-08T10:42:23.000Z</time>
      </trkpt>
      <trkpt lat="48.22885" lon="-4.32188">
        <ele>110.40000152588</ele>
        <time>2017-01-08T10:42:33.000Z</time>
      </trkpt>
      <trkpt lat="48.22925" lon="-4.3216">
        <ele>110.40000152588</ele>
        <time>2017-01-08T10:42:41.000Z</time>
      </trkpt>
      <trkpt lat="48.22972" lon="-4.32127">
        <ele>110.40000152588</ele>
        <time>2017-01-08T10:42:50.000Z</time>
      </trkpt>
      <trkpt lat="48.23027" lon="-4.32089">
        <ele>110</ele>
        <time>2017-01-08T10:43:00.000Z</time>
      </trkpt>
      <trkpt lat="48.23081" lon="-4.32052">
        <ele>109</ele>
        <time>2017-01-08T10:43:09.000Z</time>
      </trkpt>
      <trkpt lat="48.2313" lon="-4.32018">
        <ele>109.80000305176</ele>
        <time>2017-01-08T10:43:18.000Z</time>
      </trkpt>
      <trkpt lat="48.23139" lon="-4.32011">
        <ele>110</ele>
        <time>2017-01-08T10:43:20.000Z</time>
      </trkpt>
      <trkpt lat="48.23179" lon="-4.31984">
        <ele>111.19999694824</ele>
        <time>2017-01-08T10:43:29.000Z</time>
      </trkpt>
      <trkpt lat="48.23203" lon="-4.31967">
        <ele>112.40000152588</ele>
        <time>2017-01-08T10:43:35.000Z</time>
      </trkpt>
      <trkpt lat="48.23224" lon="-4.31952">
        <ele>113.40000152588</ele>
        <time>2017-01-08T10:43:40.000Z</time>
      </trkpt>
      <trkpt lat="48.2325" lon="-4.31934">
        <ele>114.59999847412</ele>
        <time>2017-01-08T10:43:46.000Z</time>
      </trkpt>
      <trkpt lat="48.23257" lon="-4.31928">
        <ele>115</ele>
        <time>2017-01-08T10:43:48.000Z</time>
      </trkpt>
      <trkpt lat="48.23287" lon="-4.31907">
        <ele>115.40000152588</ele>
        <time>2017-01-08T10:43:55.000Z</time>
      </trkpt>
      <trkpt lat="48.2331" lon="-4.31892">
        <ele>115.59999847412</ele>
        <time>2017-01-08T10:44:00.000Z</time>
      </trkpt>
      <trkpt lat="48.23341" lon="-4.31868">
        <ele>116</ele>
        <time>2017-01-08T10:44:07.000Z</time>
      </trkpt>
      <trkpt lat="48.23379" lon="-4.31842">
        <ele>115.59999847412</ele>
        <time>2017-01-08T10:44:15.000Z</time>
      </trkpt>
      <trkpt lat="48.23415" lon="-4.31819">
        <ele>115</ele>
        <time>2017-01-08T10:44:23.000Z</time>
      </trkpt>
      <trkpt lat="48.23443" lon="-4.318">
        <ele>114.80000305176</ele>
        <time>2017-01-08T10:44:29.000Z</time>
      </trkpt>
      <trkpt lat="48.23465" lon="-4.31783">
        <ele>115</ele>
        <time>2017-01-08T10:44:34.000Z</time>
      </trkpt>
      <trkpt lat="48.23489" lon="-4.31769">
        <ele>115</ele>
        <time>2017-01-08T10:44:39.000Z</time>
      </trkpt>
      <trkpt lat="48.23517" lon="-4.31746">
        <ele>115.19999694824</ele>
        <time>2017-01-08T10:44:45.000Z</time>
      </trkpt>
      <trkpt lat="48.2354" lon="-4.31722">
        <ele>114</ele>
        <time>2017-01-08T10:44:50.000Z</time>
      </trkpt>
      <trkpt lat="48.23571" lon="-4.31678">
        <ele>112.19999694824</ele>
        <time>2017-01-08T10:44:58.000Z</time>
      </trkpt>
      <trkpt lat="48.23578" lon="-4.31664">
        <ele>111.59999847412</ele>
        <time>2017-01-08T10:45:00.000Z</time>
      </trkpt>
      <trkpt lat="48.23614" lon="-4.31606">
        <ele>109.80000305176</ele>
        <time>2017-01-08T10:45:09.000Z</time>
      </trkpt>
      <trkpt lat="48.23648" lon="-4.31546">
        <ele>108.80000305176</ele>
        <time>2017-01-08T10:45:18.000Z</time>
      </trkpt>
      <trkpt lat="48.23669" lon="-4.31507">
        <ele>108.19999694824</ele>
        <time>2017-01-08T10:45:24.000Z</time>
      </trkpt>
      <trkpt lat="48.23695" lon="-4.31466">
        <ele>107.40000152588</ele>
        <time>2017-01-08T10:45:30.000Z</time>
      </trkpt>
      <trkpt lat="48.23727" lon="-4.31432">
        <ele>105.80000305176</ele>
        <time>2017-01-08T10:45:36.000Z</time>
      </trkpt>
      <trkpt lat="48.23769" lon="-4.31405">
        <ele>103.59999847412</ele>
        <time>2017-01-08T10:45:42.000Z</time>
      </trkpt>
      <trkpt lat="48.23813" lon="-4.31393">
        <ele>101.19999694824</ele>
        <time>2017-01-08T10:45:48.000Z</time>
      </trkpt>
      <trkpt lat="48.2386" lon="-4.31394">
        <ele>99</ele>
        <time>2017-01-08T10:45:54.000Z</time>
      </trkpt>
      <trkpt lat="48.2392" lon="-4.31396">
        <ele>96</ele>
        <time>2017-01-08T10:46:01.000Z</time>
      </trkpt>
      <trkpt lat="48.23928" lon="-4.31397">
        <ele>95.599998474121</ele>
        <time>2017-01-08T10:46:02.000Z</time>
      </trkpt>
      <trkpt lat="48.24004" lon="-4.31413">
        <ele>93.199996948242</ele>
        <time>2017-01-08T10:46:11.000Z</time>
      </trkpt>
      <trkpt lat="48.24057" lon="-4.31428">
        <ele>90</ele>
        <time>2017-01-08T10:46:17.000Z</time>
      </trkpt>
      <trkpt lat="48.24122" lon="-4.31452">
        <ele>87</ele>
        <time>2017-01-08T10:46:24.000Z</time>
      </trkpt>
      <trkpt lat="48.24181" lon="-4.31482">
        <ele>84.599998474121</ele>
        <time>2017-01-08T10:46:30.000Z</time>
      </trkpt>
      <trkpt lat="48.24246" lon="-4.31526">
        <ele>81.599998474121</ele>
        <time>2017-01-08T10:46:37.000Z</time>
      </trkpt>
      <trkpt lat="48.24295" lon="-4.31568">
        <ele>79.400001525879</ele>
        <time>2017-01-08T10:46:43.000Z</time>
      </trkpt>
      <trkpt lat="48.24338" lon="-4.31598">
        <ele>78.199996948242</ele>
        <time>2017-01-08T10:46:49.000Z</time>
      </trkpt>
      <trkpt lat="48.24378" lon="-4.31612">
        <ele>77.199996948242</ele>
        <time>2017-01-08T10:46:54.000Z</time>
      </trkpt>
      <trkpt lat="48.24435" lon="-4.31618">
        <ele>75.800003051758</ele>
        <time>2017-01-08T10:47:01.000Z</time>
      </trkpt>
      <trkpt lat="48.24475" lon="-4.31623">
        <ele>74.400001525879</ele>
        <time>2017-01-08T10:47:06.000Z</time>
      </trkpt>
      <trkpt lat="48.24531" lon="-4.31638">
        <ele>72.800003051758</ele>
        <time>2017-01-08T10:47:13.000Z</time>
      </trkpt>
      <trkpt lat="48.24539" lon="-4.31641">
        <ele>72.599998474121</ele>
        <time>2017-01-08T10:47:14.000Z</time>
      </trkpt>
      <trkpt lat="48.24576" lon="-4.31661">
        <ele>73</ele>
        <time>2017-01-08T10:47:20.000Z</time>
      </trkpt>
      <trkpt lat="48.24593" lon="-4.31668">
        <ele>73.199996948242</ele>
        <time>2017-01-08T10:47:23.000Z</time>
      </trkpt>
      <trkpt lat="48.24607" lon="-4.31652">
        <ele>73</ele>
        <time>2017-01-08T10:47:27.000Z</time>
      </trkpt>
      <trkpt lat="48.24607" lon="-4.31642">
        <ele>72.800003051758</ele>
        <time>2017-01-08T10:47:28.000Z</time>
      </trkpt>
      <trkpt lat="48.24608" lon="-4.31622">
        <ele>72.400001525879</ele>
        <time>2017-01-08T10:47:30.000Z</time>
      </trkpt>
      <trkpt lat="48.24619" lon="-4.31585">
        <ele>71.599998474121</ele>
        <time>2017-01-08T10:47:34.000Z</time>
      </trkpt>
      <trkpt lat="48.24626" lon="-4.31561">
        <ele>71.400001525879</ele>
        <time>2017-01-08T10:47:37.000Z</time>
      </trkpt>
      <trkpt lat="48.24642" lon="-4.3151">
        <ele>70.800003051758</ele>
        <time>2017-01-08T10:47:43.000Z</time>
      </trkpt>
      <trkpt lat="48.24659" lon="-4.31469">
        <ele>70.199996948242</ele>
        <time>2017-01-08T10:47:48.000Z</time>
      </trkpt>
      <trkpt lat="48.24663" lon="-4.31461">
        <ele>70.199996948242</ele>
        <time>2017-01-08T10:47:49.000Z</time>
      </trkpt>
      <trkpt lat="48.24676" lon="-4.31445">
        <ele>70</ele>
        <time>2017-01-08T10:47:53.000Z</time>
      </trkpt>
      <trkpt lat="48.24676" lon="-4.31448">
        <ele>70</ele>
        <time>2017-01-08T10:47:56.000Z</time>
      </trkpt>
      <trkpt lat="48.24671" lon="-4.31454">
        <ele>70</ele>
        <time>2017-01-08T10:47:59.000Z</time>
      </trkpt>
      <trkpt lat="48.24676" lon="-4.31468">
        <ele>70.199996948242</ele>
        <time>2017-01-08T10:48:04.000Z</time>
      </trkpt>
      <trkpt lat="48.24687" lon="-4.31476">
        <ele>70</ele>
        <time>2017-01-08T10:48:07.000Z</time>
      </trkpt>
      <trkpt lat="48.24703" lon="-4.31484">
        <ele>69.599998474121</ele>
        <time>2017-01-08T10:48:10.000Z</time>
      </trkpt>
      <trkpt lat="48.24731" lon="-4.31474">
        <ele>68.400001525879</ele>
        <time>2017-01-08T10:48:15.000Z</time>
      </trkpt>
      <trkpt lat="48.24751" lon="-4.31467">
        <ele>67.599998474121</ele>
        <time>2017-01-08T10:48:18.000Z</time>
      </trkpt>
      <trkpt lat="48.24789" lon="-4.31465">
        <ele>65.199996948242</ele>
        <time>2017-01-08T10:48:24.000Z</time>
      </trkpt>
      <trkpt lat="48.24837" lon="-4.31462">
        <ele>62</ele>
        <time>2017-01-08T10:48:31.000Z</time>
      </trkpt>
      <trkpt lat="48.24878" lon="-4.31455">
        <ele>59.599998474121</ele>
        <time>2017-01-08T10:48:37.000Z</time>
      </trkpt>
      <trkpt lat="48.24887" lon="-4.31453">
        <ele>59.200000762939</ele>
        <time>2017-01-08T10:48:39.000Z</time>
      </trkpt>
      <trkpt lat="48.24896" lon="-4.3144">
        <ele>58.799999237061</ele>
        <time>2017-01-08T10:48:43.000Z</time>
      </trkpt>
      <trkpt lat="48.24896" lon="-4.31436">
        <ele>58.799999237061</ele>
        <time>2017-01-08T10:48:44.000Z</time>
      </trkpt>
      <trkpt lat="48.24896" lon="-4.31402">
        <ele>59.200000762939</ele>
        <time>2017-01-08T10:48:50.000Z</time>
      </trkpt>
      <trkpt lat="48.24894" lon="-4.31359">
        <ele>59.200000762939</ele>
        <time>2017-01-08T10:48:56.000Z</time>
      </trkpt>
      <trkpt lat="48.24892" lon="-4.31336">
        <ele>59</ele>
        <time>2017-01-08T10:48:59.000Z</time>
      </trkpt>
      <trkpt lat="48.24887" lon="-4.3131">
        <ele>59</ele>
        <time>2017-01-08T10:49:03.000Z</time>
      </trkpt>
      <trkpt lat="48.2488" lon="-4.31285">
        <ele>59.400001525879</ele>
        <time>2017-01-08T10:49:07.000Z</time>
      </trkpt>
      <trkpt lat="48.24872" lon="-4.31261">
        <ele>60</ele>
        <time>2017-01-08T10:49:11.000Z</time>
      </trkpt>
      <trkpt lat="48.24867" lon="-4.31242">
        <ele>60.200000762939</ele>
        <time>2017-01-08T10:49:14.000Z</time>
      </trkpt>
      <trkpt lat="48.24869" lon="-4.31216">
        <ele>60.200000762939</ele>
        <time>2017-01-08T10:49:18.000Z</time>
      </trkpt>
      <trkpt lat="48.24873" lon="-4.31212">
        <ele>60</ele>
        <time>2017-01-08T10:49:19.000Z</time>
      </trkpt>
      <trkpt lat="48.24915" lon="-4.31192">
        <ele>58.599998474121</ele>
        <time>2017-01-08T10:49:27.000Z</time>
      </trkpt>
      <trkpt lat="48.24952" lon="-4.31175">
        <ele>58.799999237061</ele>
        <time>2017-01-08T10:49:33.000Z</time>
      </trkpt>
      <trkpt lat="48.24981" lon="-4.31163">
        <ele>59.200000762939</ele>
        <time>2017-01-08T10:49:38.000Z</time>
      </trkpt>
      <trkpt lat="48.25007" lon="-4.31155">
        <ele>59.599998474121</ele>
        <time>2017-01-08T10:49:43.000Z</time>
      </trkpt>
      <trkpt lat="48.25024" lon="-4.31147">
        <ele>60.200000762939</ele>
        <time>2017-01-08T10:49:47.000Z</time>
      </trkpt>
      <trkpt lat="48.25035" lon="-4.31142">
        <ele>60.799999237061</ele>
        <time>2017-01-08T10:49:50.000Z</time>
      </trkpt>
      <trkpt lat="48.25061" lon="-4.3113">
        <ele>62.200000762939</ele>
        <time>2017-01-08T10:49:57.000Z</time>
      </trkpt>
      <trkpt lat="48.25078" lon="-4.31121">
        <ele>63.200000762939</ele>
        <time>2017-01-08T10:50:02.000Z</time>
      </trkpt>
      <trkpt lat="48.251" lon="-4.31114">
        <ele>64.199996948242</ele>
        <time>2017-01-08T10:50:07.000Z</time>
      </trkpt>
      <trkpt lat="48.25111" lon="-4.31109">
        <ele>64.599998474121</ele>
        <time>2017-01-08T10:50:10.000Z</time>
      </trkpt>
      <trkpt lat="48.25127" lon="-4.31103">
        <ele>65.400001525879</ele>
        <time>2017-01-08T10:50:15.000Z</time>
      </trkpt>
      <trkpt lat="48.25144" lon="-4.31092">
        <ele>66.199996948242</ele>
        <time>2017-01-08T10:50:21.000Z</time>
      </trkpt>
      <trkpt lat="48.25166" lon="-4.31084">
        <ele>67.199996948242</ele>
        <time>2017-01-08T10:50:27.000Z</time>
      </trkpt>
      <trkpt lat="48.25184" lon="-4.31079">
        <ele>67.800003051758</ele>
        <time>2017-01-08T10:50:32.000Z</time>
      </trkpt>
      <trkpt lat="48.252" lon="-4.31073">
        <ele>68.199996948242</ele>
        <time>2017-01-08T10:50:37.000Z</time>
      </trkpt>
      <trkpt lat="48.25223" lon="-4.31067">
        <ele>68.599998474121</ele>
        <time>2017-01-08T10:50:44.000Z</time>
      </trkpt>
      <trkpt lat="48.25241" lon="-4.31059">
        <ele>68.800003051758</ele>
        <time>2017-01-08T10:50:50.000Z</time>
      </trkpt>
      <trkpt lat="48.25259" lon="-4.31051">
        <ele>69</ele>
        <time>2017-01-08T10:50:56.000Z</time>
      </trkpt>
      <trkpt lat="48.25276" lon="-4.31044">
        <ele>69.800003051758</ele>
        <time>2017-01-08T10:51:02.000Z</time>
      </trkpt>
      <trkpt lat="48.25289" lon="-4.31039">
        <ele>70.599998474121</ele>
        <time>2017-01-08T10:51:07.000Z</time>
      </trkpt>
      <trkpt lat="48.25304" lon="-4.31034">
        <ele>71.400001525879</ele>
        <time>2017-01-08T10:51:12.000Z</time>
      </trkpt>
      <trkpt lat="48.25318" lon="-4.31029">
        <ele>72</ele>
        <time>2017-01-08T10:51:17.000Z</time>
      </trkpt>
      <trkpt lat="48.25331" lon="-4.31023">
        <ele>72.800003051758</ele>
        <time>2017-01-08T10:51:23.000Z</time>
      </trkpt>
      <trkpt lat="48.25344" lon="-4.31019">
        <ele>73.599998474121</ele>
        <time>2017-01-08T10:51:28.000Z</time>
      </trkpt>
      <trkpt lat="48.25356" lon="-4.31015">
        <ele>74.199996948242</ele>
        <time>2017-01-08T10:51:34.000Z</time>
      </trkpt>
      <trkpt lat="48.25369" lon="-4.31011">
        <ele>75</ele>
        <time>2017-01-08T10:51:39.000Z</time>
      </trkpt>
      <trkpt lat="48.25389" lon="-4.31007">
        <ele>76.199996948242</ele>
        <time>2017-01-08T10:51:47.000Z</time>
      </trkpt>
      <trkpt lat="48.25406" lon="-4.31004">
        <ele>77.199996948242</ele>
        <time>2017-01-08T10:51:54.000Z</time>
      </trkpt>
      <trkpt lat="48.25421" lon="-4.31001">
        <ele>78</ele>
        <time>2017-01-08T10:52:00.000Z</time>
      </trkpt>
      <trkpt lat="48.25433" lon="-4.30996">
        <ele>78.599998474121</ele>
        <time>2017-01-08T10:52:06.000Z</time>
      </trkpt>
      <trkpt lat="48.2544" lon="-4.30988">
        <ele>78.800003051758</ele>
        <time>2017-01-08T10:52:10.000Z</time>
      </trkpt>
      <trkpt lat="48.25441" lon="-4.30969">
        <ele>79.599998474121</ele>
        <time>2017-01-08T10:52:16.000Z</time>
      </trkpt>
      <trkpt lat="48.25441" lon="-4.30942">
        <ele>81</ele>
        <time>2017-01-08T10:52:23.000Z</time>
      </trkpt>
      <trkpt lat="48.25441" lon="-4.30908">
        <ele>81</ele>
        <time>2017-01-08T10:52:31.000Z</time>
      </trkpt>
      <trkpt lat="48.25446" lon="-4.30883">
        <ele>80.800003051758</ele>
        <time>2017-01-08T10:52:37.000Z</time>
      </trkpt>
      <trkpt lat="48.25457" lon="-4.3087">
        <ele>81</ele>
        <time>2017-01-08T10:52:42.000Z</time>
      </trkpt>
      <trkpt lat="48.25469" lon="-4.3086">
        <ele>81.400001525879</ele>
        <time>2017-01-08T10:52:47.000Z</time>
      </trkpt>
      <trkpt lat="48.25478" lon="-4.30852">
        <ele>81.800003051758</ele>
        <time>2017-01-08T10:52:51.000Z</time>
      </trkpt>
      <trkpt lat="48.2549" lon="-4.30842">
        <ele>82.400001525879</ele>
        <time>2017-01-08T10:52:57.000Z</time>
      </trkpt>
      <trkpt lat="48.25503" lon="-4.3083">
        <ele>83</ele>
        <time>2017-01-08T10:53:04.000Z</time>
      </trkpt>
      <trkpt lat="48.25517" lon="-4.30818">
        <ele>83.800003051758</ele>
        <time>2017-01-08T10:53:11.000Z</time>
      </trkpt>
      <trkpt lat="48.25524" lon="-4.30813">
        <ele>84.400001525879</ele>
        <time>2017-01-08T10:53:15.000Z</time>
      </trkpt>
      <trkpt lat="48.25535" lon="-4.30806">
        <ele>85.400001525879</ele>
        <time>2017-01-08T10:53:21.000Z</time>
      </trkpt>
      <trkpt lat="48.25546" lon="-4.30795">
        <ele>86.199996948242</ele>
        <time>2017-01-08T10:53:27.000Z</time>
      </trkpt>
      <trkpt lat="48.25553" lon="-4.30782">
        <ele>87</ele>
        <time>2017-01-08T10:53:32.000Z</time>
      </trkpt>
      <trkpt lat="48.25553" lon="-4.30761">
        <ele>87.400001525879</ele>
        <time>2017-01-08T10:53:38.000Z</time>
      </trkpt>
      <trkpt lat="48.2555" lon="-4.30736">
        <ele>87.599998474121</ele>
        <time>2017-01-08T10:53:44.000Z</time>
      </trkpt>
      <trkpt lat="48.25547" lon="-4.30704">
        <ele>87.199996948242</ele>
        <time>2017-01-08T10:53:52.000Z</time>
      </trkpt>
      <trkpt lat="48.25548" lon="-4.30677">
        <ele>87.599998474121</ele>
        <time>2017-01-08T10:54:00.000Z</time>
      </trkpt>
      <trkpt lat="48.25559" lon="-4.30675">
        <ele>88.800003051758</ele>
        <time>2017-01-08T10:54:06.000Z</time>
      </trkpt>
      <trkpt lat="48.25567" lon="-4.30677">
        <ele>89.400001525879</ele>
        <time>2017-01-08T10:54:11.000Z</time>
      </trkpt>
      <trkpt lat="48.25582" lon="-4.30678">
        <ele>90.800003051758</ele>
        <time>2017-01-08T10:54:18.000Z</time>
      </trkpt>
      <trkpt lat="48.25595" lon="-4.3068">
        <ele>92.199996948242</ele>
        <time>2017-01-08T10:54:24.000Z</time>
      </trkpt>
      <trkpt lat="48.25611" lon="-4.30682">
        <ele>93.199996948242</ele>
        <time>2017-01-08T10:54:31.000Z</time>
      </trkpt>
      <trkpt lat="48.25628" lon="-4.30684">
        <ele>94.800003051758</ele>
        <time>2017-01-08T10:54:38.000Z</time>
      </trkpt>
      <trkpt lat="48.25656" lon="-4.30686">
        <ele>97</ele>
        <time>2017-01-08T10:54:48.000Z</time>
      </trkpt>
      <trkpt lat="48.25681" lon="-4.30689">
        <ele>99.199996948242</ele>
        <time>2017-01-08T10:54:57.000Z</time>
      </trkpt>
      <trkpt lat="48.25698" lon="-4.3069">
        <ele>100</ele>
        <time>2017-01-08T10:55:03.000Z</time>
      </trkpt>
      <trkpt lat="48.25721" lon="-4.3069">
        <ele>101</ele>
        <time>2017-01-08T10:55:11.000Z</time>
      </trkpt>
      <trkpt lat="48.25728" lon="-4.30676">
        <ele>101.59999847412</ele>
        <time>2017-01-08T10:55:15.000Z</time>
      </trkpt>
      <trkpt lat="48.25729" lon="-4.30646">
        <ele>102</ele>
        <time>2017-01-08T10:55:21.000Z</time>
      </trkpt>
      <trkpt lat="48.25729" lon="-4.30613">
        <ele>102</ele>
        <time>2017-01-08T10:55:28.000Z</time>
      </trkpt>
      <trkpt lat="48.2573" lon="-4.3058">
        <ele>102</ele>
        <time>2017-01-08T10:55:35.000Z</time>
      </trkpt>
      <trkpt lat="48.2573" lon="-4.30544">
        <ele>102</ele>
        <time>2017-01-08T10:55:42.000Z</time>
      </trkpt>
      <trkpt lat="48.2573" lon="-4.30522">
        <ele>102.19999694824</ele>
        <time>2017-01-08T10:55:47.000Z</time>
      </trkpt>
      <trkpt lat="48.2573" lon="-4.30519">
        <ele>102.19999694824</ele>
        <time>2017-01-08T10:55:48.000Z</time>
      </trkpt>
      <trkpt lat="48.2573" lon="-4.30519">
        <ele>102.19999694824</ele>
        <time>2017-01-08T10:55:48.000Z</time>
      </trkpt>
      <trkpt lat="48.2573" lon="-4.30491">
        <ele>102.59999847412</ele>
        <time>2017-01-08T10:55:54.000Z</time>
      </trkpt>
      <trkpt lat="48.2573" lon="-4.30459">
        <ele>102.80000305176</ele>
        <time>2017-01-08T10:56:00.000Z</time>
      </trkpt>
      <trkpt lat="48.2573" lon="-4.30422">
        <ele>103</ele>
        <time>2017-01-08T10:56:07.000Z</time>
      </trkpt>
      <trkpt lat="48.25736" lon="-4.30392">
        <ele>103.40000152588</ele>
        <time>2017-01-08T10:56:13.000Z</time>
      </trkpt>
      <trkpt lat="48.25756" lon="-4.30378">
        <ele>104.59999847412</ele>
        <time>2017-01-08T10:56:18.000Z</time>
      </trkpt>
      <trkpt lat="48.25787" lon="-4.30365">
        <ele>106.19999694824</ele>
        <time>2017-01-08T10:56:25.000Z</time>
      </trkpt>
      <trkpt lat="48.25815" lon="-4.30354">
        <ele>107.40000152588</ele>
        <time>2017-01-08T10:56:32.000Z</time>
      </trkpt>
      <trkpt lat="48.25837" lon="-4.30348">
        <ele>108.40000152588</ele>
        <time>2017-01-08T10:56:38.000Z</time>
      </trkpt>
      <trkpt lat="48.25863" lon="-4.30343">
        <ele>109</ele>
        <time>2017-01-08T10:56:45.000Z</time>
      </trkpt>
      <trkpt lat="48.25894" lon="-4.3034">
        <ele>109.19999694824</ele>
        <time>2017-01-08T10:56:53.000Z</time>
      </trkpt>
      <trkpt lat="48.2593" lon="-4.30339">
        <ele>109.59999847412</ele>
        <time>2017-01-08T10:57:02.000Z</time>
      </trkpt>
      <trkpt lat="48.25967" lon="-4.3034">
        <ele>109</ele>
        <time>2017-01-08T10:57:10.000Z</time>
      </trkpt>
      <trkpt lat="48.26005" lon="-4.30345">
        <ele>108.59999847412</ele>
        <time>2017-01-08T10:57:17.000Z</time>
      </trkpt>
      <trkpt lat="48.26042" lon="-4.30352">
        <ele>108.80000305176</ele>
        <time>2017-01-08T10:57:24.000Z</time>
      </trkpt>
      <trkpt lat="48.26069" lon="-4.30356">
        <ele>108.80000305176</ele>
        <time>2017-01-08T10:57:29.000Z</time>
      </trkpt>
      <trkpt lat="48.26099" lon="-4.30363">
        <ele>109</ele>
        <time>2017-01-08T10:57:35.000Z</time>
      </trkpt>
      <trkpt lat="48.26138" lon="-4.3037">
        <ele>109.59999847412</ele>
        <time>2017-01-08T10:57:43.000Z</time>
      </trkpt>
      <trkpt lat="48.26179" lon="-4.30383">
        <ele>110.19999694824</ele>
        <time>2017-01-08T10:57:51.000Z</time>
      </trkpt>
      <trkpt lat="48.26221" lon="-4.304">
        <ele>110</ele>
        <time>2017-01-08T10:57:59.000Z</time>
      </trkpt>
      <trkpt lat="48.2626" lon="-4.30413">
        <ele>109.59999847412</ele>
        <time>2017-01-08T10:58:06.000Z</time>
      </trkpt>
      <trkpt lat="48.26315" lon="-4.30433">
        <ele>108.19999694824</ele>
        <time>2017-01-08T10:58:16.000Z</time>
      </trkpt>
      <trkpt lat="48.26356" lon="-4.30454">
        <ele>106.40000152588</ele>
        <time>2017-01-08T10:58:23.000Z</time>
      </trkpt>
      <trkpt lat="48.264" lon="-4.30479">
        <ele>103.59999847412</ele>
        <time>2017-01-08T10:58:30.000Z</time>
      </trkpt>
      <trkpt lat="48.26422" lon="-4.30478">
        <ele>102.80000305176</ele>
        <time>2017-01-08T10:58:34.000Z</time>
      </trkpt>
      <trkpt lat="48.26429" lon="-4.30472">
        <ele>102.80000305176</ele>
        <time>2017-01-08T10:58:36.000Z</time>
      </trkpt>
      <trkpt lat="48.26434" lon="-4.30465">
        <ele>102.59999847412</ele>
        <time>2017-01-08T10:58:38.000Z</time>
      </trkpt>
      <trkpt lat="48.26445" lon="-4.30461">
        <ele>102.40000152588</ele>
        <time>2017-01-08T10:58:43.000Z</time>
      </trkpt>
      <trkpt lat="48.26449" lon="-4.30476">
        <ele>102.19999694824</ele>
        <time>2017-01-08T10:58:46.000Z</time>
      </trkpt>
      <trkpt lat="48.26461" lon="-4.30488">
        <ele>101.80000305176</ele>
        <time>2017-01-08T10:58:49.000Z</time>
      </trkpt>
      <trkpt lat="48.265" lon="-4.30517">
        <ele>100.40000152588</ele>
        <time>2017-01-08T10:58:57.000Z</time>
      </trkpt>
      <trkpt lat="48.26544" lon="-4.3055">
        <ele>98.400001525879</ele>
        <time>2017-01-08T10:59:05.000Z</time>
      </trkpt>
      <trkpt lat="48.26603" lon="-4.30595">
        <ele>95.199996948242</ele>
        <time>2017-01-08T10:59:16.000Z</time>
      </trkpt>
      <trkpt lat="48.2661" lon="-4.30618">
        <ele>94</ele>
        <time>2017-01-08T10:59:20.000Z</time>
      </trkpt>
      <trkpt lat="48.26599" lon="-4.30673">
        <ele>94.199996948242</ele>
        <time>2017-01-08T10:59:27.000Z</time>
      </trkpt>
      <trkpt lat="48.26583" lon="-4.30741">
        <ele>93</ele>
        <time>2017-01-08T10:59:34.000Z</time>
      </trkpt>
      <trkpt lat="48.26573" lon="-4.308">
        <ele>92.400001525879</ele>
        <time>2017-01-08T10:59:40.000Z</time>
      </trkpt>
      <trkpt lat="48.26569" lon="-4.30831">
        <ele>92.599998474121</ele>
        <time>2017-01-08T10:59:44.000Z</time>
      </trkpt>
      <trkpt lat="48.26569" lon="-4.30837">
        <ele>92.599998474121</ele>
        <time>2017-01-08T10:59:45.000Z</time>
      </trkpt>
      <trkpt lat="48.26576" lon="-4.30857">
        <ele>92.199996948242</ele>
        <time>2017-01-08T10:59:49.000Z</time>
      </trkpt>
      <trkpt lat="48.26595" lon="-4.30875">
        <ele>91.400001525879</ele>
        <time>2017-01-08T10:59:54.000Z</time>
      </trkpt>
      <trkpt lat="48.26599" lon="-4.3088">
        <ele>91.400001525879</ele>
        <time>2017-01-08T10:59:55.000Z</time>
      </trkpt>
      <trkpt lat="48.26633" lon="-4.30917">
        <ele>89.800003051758</ele>
        <time>2017-01-08T11:00:03.000Z</time>
      </trkpt>
      <trkpt lat="48.26674" lon="-4.30942">
        <ele>87.400001525879</ele>
        <time>2017-01-08T11:00:10.000Z</time>
      </trkpt>
      <trkpt lat="48.26713" lon="-4.30966">
        <ele>83.199996948242</ele>
        <time>2017-01-08T11:00:15.000Z</time>
      </trkpt>
      <trkpt lat="48.26761" lon="-4.30994">
        <ele>77.199996948242</ele>
        <time>2017-01-08T11:00:20.000Z</time>
      </trkpt>
      <trkpt lat="48.26815" lon="-4.31024">
        <ele>70.199996948242</ele>
        <time>2017-01-08T11:00:25.000Z</time>
      </trkpt>
      <trkpt lat="48.26891" lon="-4.31049">
        <ele>61</ele>
        <time>2017-01-08T11:00:31.000Z</time>
      </trkpt>
      <trkpt lat="48.26966" lon="-4.31072">
        <ele>53.400001525879</ele>
        <time>2017-01-08T11:00:36.000Z</time>
      </trkpt>
      <trkpt lat="48.27039" lon="-4.31103">
        <ele>48</ele>
        <time>2017-01-08T11:00:41.000Z</time>
      </trkpt>
      <trkpt lat="48.27085" lon="-4.31142">
        <ele>43.599998474121</ele>
        <time>2017-01-08T11:00:45.000Z</time>
      </trkpt>
      <trkpt lat="48.271" lon="-4.3116">
        <ele>43.200000762939</ele>
        <time>2017-01-08T11:00:47.000Z</time>
      </trkpt>
      <trkpt lat="48.27112" lon="-4.31175">
        <ele>43.599998474121</ele>
        <time>2017-01-08T11:00:51.000Z</time>
      </trkpt>
      <trkpt lat="48.2711" lon="-4.31174">
        <ele>43.400001525879</ele>
        <time>2017-01-08T11:00:53.000Z</time>
      </trkpt>
      <trkpt lat="48.27101" lon="-4.31164">
        <ele>43.200000762939</ele>
        <time>2017-01-08T11:00:58.000Z</time>
      </trkpt>
      <trkpt lat="48.27086" lon="-4.31148">
        <ele>43.400001525879</ele>
        <time>2017-01-08T11:01:01.000Z</time>
      </trkpt>
      <trkpt lat="48.27058" lon="-4.31119">
        <ele>46</ele>
        <time>2017-01-08T11:01:05.000Z</time>
      </trkpt>
      <trkpt lat="48.2702" lon="-4.31093">
        <ele>49</ele>
        <time>2017-01-08T11:01:10.000Z</time>
      </trkpt>
      <trkpt lat="48.27008" lon="-4.31086">
        <ele>49.400001525879</ele>
        <time>2017-01-08T11:01:12.000Z</time>
      </trkpt>
      <trkpt lat="48.27001" lon="-4.3107">
        <ele>49.599998474121</ele>
        <time>2017-01-08T11:01:16.000Z</time>
      </trkpt>
      <trkpt lat="48.27008" lon="-4.31056">
        <ele>48.400001525879</ele>
        <time>2017-01-08T11:01:19.000Z</time>
      </trkpt>
      <trkpt lat="48.27022" lon="-4.31026">
        <ele>46.799999237061</ele>
        <time>2017-01-08T11:01:25.000Z</time>
      </trkpt>
      <trkpt lat="48.27024" lon="-4.3102">
        <ele>46.799999237061</ele>
        <time>2017-01-08T11:01:26.000Z</time>
      </trkpt>
      <trkpt lat="48.27028" lon="-4.31009">
        <ele>46.799999237061</ele>
        <time>2017-01-08T11:01:28.000Z</time>
      </trkpt>
      <trkpt lat="48.27038" lon="-4.30978">
        <ele>47.400001525879</ele>
        <time>2017-01-08T11:01:33.000Z</time>
      </trkpt>
      <trkpt lat="48.27044" lon="-4.30949">
        <ele>48</ele>
        <time>2017-01-08T11:01:37.000Z</time>
      </trkpt>
      <trkpt lat="48.27046" lon="-4.30939">
        <ele>48.200000762939</ele>
        <time>2017-01-08T11:01:39.000Z</time>
      </trkpt>
      <trkpt lat="48.27048" lon="-4.30929">
        <ele>48.599998474121</ele>
        <time>2017-01-08T11:01:43.000Z</time>
      </trkpt>
      <trkpt lat="48.27049" lon="-4.30922">
        <ele>48.799999237061</ele>
        <time>2017-01-08T11:01:48.000Z</time>
      </trkpt>
      <trkpt lat="48.27056" lon="-4.30895">
        <ele>49.599998474121</ele>
        <time>2017-01-08T11:01:53.000Z</time>
      </trkpt>
      <trkpt lat="48.2706" lon="-4.30885">
        <ele>50.400001525879</ele>
        <time>2017-01-08T11:01:56.000Z</time>
      </trkpt>
      <trkpt lat="48.27061" lon="-4.30885">
        <ele>50.200000762939</ele>
        <time>2017-01-08T11:02:00.000Z</time>
      </trkpt>
      <trkpt lat="48.27075" lon="-4.30857">
        <ele>50.599998474121</ele>
        <time>2017-01-08T11:02:17.000Z</time>
      </trkpt>
      <trkpt lat="48.27082" lon="-4.30837">
        <ele>49.599998474121</ele>
        <time>2017-01-08T11:02:21.000Z</time>
      </trkpt>
      <trkpt lat="48.27092" lon="-4.30811">
        <ele>48.400001525879</ele>
        <time>2017-01-08T11:02:26.000Z</time>
      </trkpt>
      <trkpt lat="48.27094" lon="-4.308">
        <ele>48.400001525879</ele>
        <time>2017-01-08T11:02:28.000Z</time>
      </trkpt>
      <trkpt lat="48.27095" lon="-4.30785">
        <ele>48.200000762939</ele>
        <time>2017-01-08T11:02:30.000Z</time>
      </trkpt>
      <trkpt lat="48.27093" lon="-4.30746">
        <ele>48.400001525879</ele>
        <time>2017-01-08T11:02:35.000Z</time>
      </trkpt>
      <trkpt lat="48.27094" lon="-4.3073">
        <ele>48.400001525879</ele>
        <time>2017-01-08T11:02:37.000Z</time>
      </trkpt>
      <trkpt lat="48.27093" lon="-4.3069">
        <ele>48.400001525879</ele>
        <time>2017-01-08T11:02:42.000Z</time>
      </trkpt>
      <trkpt lat="48.27094" lon="-4.30651">
        <ele>48.400001525879</ele>
        <time>2017-01-08T11:02:47.000Z</time>
      </trkpt>
      <trkpt lat="48.27093" lon="-4.30635">
        <ele>48.400001525879</ele>
        <time>2017-01-08T11:02:49.000Z</time>
      </trkpt>
      <trkpt lat="48.27098" lon="-4.30608">
        <ele>48</ele>
        <time>2017-01-08T11:02:53.000Z</time>
      </trkpt>
      <trkpt lat="48.27114" lon="-4.30584">
        <ele>47.200000762939</ele>
        <time>2017-01-08T11:02:58.000Z</time>
      </trkpt>
      <trkpt lat="48.27118" lon="-4.30578">
        <ele>47.200000762939</ele>
        <time>2017-01-08T11:02:59.000Z</time>
      </trkpt>
      <trkpt lat="48.27131" lon="-4.30548">
        <ele>47</ele>
        <time>2017-01-08T11:03:03.000Z</time>
      </trkpt>
      <trkpt lat="48.27139" lon="-4.3052">
        <ele>47</ele>
        <time>2017-01-08T11:03:06.000Z</time>
      </trkpt>
      <trkpt lat="48.27142" lon="-4.30473">
        <ele>47</ele>
        <time>2017-01-08T11:03:11.000Z</time>
      </trkpt>
      <trkpt lat="48.27143" lon="-4.30455">
        <ele>47.400001525879</ele>
        <time>2017-01-08T11:03:13.000Z</time>
      </trkpt>
      <trkpt lat="48.27144" lon="-4.30438">
        <ele>47.799999237061</ele>
        <time>2017-01-08T11:03:15.000Z</time>
      </trkpt>
      <trkpt lat="48.27149" lon="-4.30411">
        <ele>47.599998474121</ele>
        <time>2017-01-08T11:03:18.000Z</time>
      </trkpt>
      <trkpt lat="48.27157" lon="-4.30384">
        <ele>47.200000762939</ele>
        <time>2017-01-08T11:03:21.000Z</time>
      </trkpt>
      <trkpt lat="48.2719" lon="-4.30317">
        <ele>43.799999237061</ele>
        <time>2017-01-08T11:03:28.000Z</time>
      </trkpt>
      <trkpt lat="48.272" lon="-4.30296">
        <ele>43</ele>
        <time>2017-01-08T11:03:30.000Z</time>
      </trkpt>
      <trkpt lat="48.27231" lon="-4.30232">
        <ele>39.200000762939</ele>
        <time>2017-01-08T11:03:36.000Z</time>
      </trkpt>
      <trkpt lat="48.27236" lon="-4.3022">
        <ele>38.599998474121</ele>
        <time>2017-01-08T11:03:37.000Z</time>
      </trkpt>
      <trkpt lat="48.27246" lon="-4.30184">
        <ele>37.599998474121</ele>
        <time>2017-01-08T11:03:40.000Z</time>
      </trkpt>
      <trkpt lat="48.27256" lon="-4.30106">
        <ele>37</ele>
        <time>2017-01-08T11:03:46.000Z</time>
      </trkpt>
      <trkpt lat="48.27258" lon="-4.3006">
        <ele>36</ele>
        <time>2017-01-08T11:03:50.000Z</time>
      </trkpt>
      <trkpt lat="48.27257" lon="-4.30007">
        <ele>35.799999237061</ele>
        <time>2017-01-08T11:03:55.000Z</time>
      </trkpt>
      <trkpt lat="48.27256" lon="-4.29941">
        <ele>35.400001525879</ele>
        <time>2017-01-08T11:04:01.000Z</time>
      </trkpt>
      <trkpt lat="48.27261" lon="-4.29879">
        <ele>35.200000762939</ele>
        <time>2017-01-08T11:04:07.000Z</time>
      </trkpt>
      <trkpt lat="48.27263" lon="-4.29826">
        <ele>35</ele>
        <time>2017-01-08T11:04:12.000Z</time>
      </trkpt>
      <trkpt lat="48.27268" lon="-4.29769">
        <ele>34.599998474121</ele>
        <time>2017-01-08T11:04:18.000Z</time>
      </trkpt>
      <trkpt lat="48.27272" lon="-4.29745">
        <ele>34</ele>
        <time>2017-01-08T11:04:21.000Z</time>
      </trkpt>
      <trkpt lat="48.27272" lon="-4.29709">
        <ele>33.400001525879</ele>
        <time>2017-01-08T11:04:26.000Z</time>
      </trkpt>
      <trkpt lat="48.2727" lon="-4.29684">
        <ele>33.200000762939</ele>
        <time>2017-01-08T11:04:29.000Z</time>
      </trkpt>
      <trkpt lat="48.27269" lon="-4.29635">
        <ele>33.400001525879</ele>
        <time>2017-01-08T11:04:35.000Z</time>
      </trkpt>
      <trkpt lat="48.2727" lon="-4.2962">
        <ele>33.200000762939</ele>
        <time>2017-01-08T11:04:37.000Z</time>
      </trkpt>
      <trkpt lat="48.27274" lon="-4.29576">
        <ele>31.60000038147</ele>
        <time>2017-01-08T11:04:42.000Z</time>
      </trkpt>
      <trkpt lat="48.27295" lon="-4.29535">
        <ele>28.200000762939</ele>
        <time>2017-01-08T11:04:48.000Z</time>
      </trkpt>
      <trkpt lat="48.27308" lon="-4.29491">
        <ele>25.200000762939</ele>
        <time>2017-01-08T11:04:53.000Z</time>
      </trkpt>
      <trkpt lat="48.27318" lon="-4.29465">
        <ele>23.200000762939</ele>
        <time>2017-01-08T11:04:56.000Z</time>
      </trkpt>
      <trkpt lat="48.27324" lon="-4.29442">
        <ele>21.200000762939</ele>
        <time>2017-01-08T11:05:00.000Z</time>
      </trkpt>
      <trkpt lat="48.27333" lon="-4.29429">
        <ele>19.200000762939</ele>
        <time>2017-01-08T11:05:04.000Z</time>
      </trkpt>
      <trkpt lat="48.27336" lon="-4.29427">
        <ele>18.799999237061</ele>
        <time>2017-01-08T11:05:05.000Z</time>
      </trkpt>
      <trkpt lat="48.27345" lon="-4.29426">
        <ele>18.200000762939</ele>
        <time>2017-01-08T11:05:11.000Z</time>
      </trkpt>
      <trkpt lat="48.27347" lon="-4.2943">
        <ele>18.39999961853</ele>
        <time>2017-01-08T11:05:18.000Z</time>
      </trkpt>
      <trkpt lat="48.27347" lon="-4.2943">
        <ele>18.60000038147</ele>
        <time>2017-01-08T11:05:19.000Z</time>
      </trkpt>
      <trkpt lat="48.27357" lon="-4.29432">
        <ele>20.200000762939</ele>
        <time>2017-01-08T11:05:31.000Z</time>
      </trkpt>
      <trkpt lat="48.2736" lon="-4.29429">
        <ele>20.39999961853</ele>
        <time>2017-01-08T11:05:36.000Z</time>
      </trkpt>
      <trkpt lat="48.27366" lon="-4.29432">
        <ele>21.799999237061</ele>
        <time>2017-01-08T11:05:42.000Z</time>
      </trkpt>
      <trkpt lat="48.27371" lon="-4.29431">
        <ele>22.39999961853</ele>
        <time>2017-01-08T11:05:46.000Z</time>
      </trkpt>
      <trkpt lat="48.27377" lon="-4.29421">
        <ele>22.39999961853</ele>
        <time>2017-01-08T11:05:52.000Z</time>
      </trkpt>
      <trkpt lat="48.27379" lon="-4.294">
        <ele>20.60000038147</ele>
        <time>2017-01-08T11:05:57.000Z</time>
      </trkpt>
      <trkpt lat="48.2738" lon="-4.2937">
        <ele>18</ele>
        <time>2017-01-08T11:06:01.000Z</time>
      </trkpt>
      <trkpt lat="48.2738" lon="-4.29365">
        <ele>17.39999961853</ele>
        <time>2017-01-08T11:06:02.000Z</time>
      </trkpt>
      <trkpt lat="48.27382" lon="-4.29363">
        <ele>17.60000038147</ele>
        <time>2017-01-08T11:06:04.000Z</time>
      </trkpt>
      <trkpt lat="48.27375" lon="-4.29353">
        <ele>15.60000038147</ele>
        <time>2017-01-08T11:06:09.000Z</time>
      </trkpt>
      <trkpt lat="48.27366" lon="-4.29323">
        <ele>13.39999961853</ele>
        <time>2017-01-08T11:06:13.000Z</time>
      </trkpt>
      <trkpt lat="48.27354" lon="-4.29295">
        <ele>11.800000190735</ele>
        <time>2017-01-08T11:06:17.000Z</time>
      </trkpt>
      <trkpt lat="48.27347" lon="-4.29261">
        <ele>11.199999809265</ele>
        <time>2017-01-08T11:06:21.000Z</time>
      </trkpt>
      <trkpt lat="48.27351" lon="-4.29225">
        <ele>12</ele>
        <time>2017-01-08T11:06:25.000Z</time>
      </trkpt>
      <trkpt lat="48.27353" lon="-4.29209">
        <ele>12.39999961853</ele>
        <time>2017-01-08T11:06:27.000Z</time>
      </trkpt>
      <trkpt lat="48.27353" lon="-4.29151">
        <ele>14</ele>
        <time>2017-01-08T11:06:35.000Z</time>
      </trkpt>
      <trkpt lat="48.27354" lon="-4.29091">
        <ele>15.39999961853</ele>
        <time>2017-01-08T11:06:42.000Z</time>
      </trkpt>
      <trkpt lat="48.27352" lon="-4.29043">
        <ele>16.60000038147</ele>
        <time>2017-01-08T11:06:48.000Z</time>
      </trkpt>
      <trkpt lat="48.27348" lon="-4.28995">
        <ele>15.800000190735</ele>
        <time>2017-01-08T11:06:54.000Z</time>
      </trkpt>
      <trkpt lat="48.27346" lon="-4.28953">
        <ele>14.39999961853</ele>
        <time>2017-01-08T11:06:59.000Z</time>
      </trkpt>
      <trkpt lat="48.27335" lon="-4.28917">
        <ele>16.200000762939</ele>
        <time>2017-01-08T11:07:04.000Z</time>
      </trkpt>
      <trkpt lat="48.27326" lon="-4.28874">
        <ele>17.799999237061</ele>
        <time>2017-01-08T11:07:10.000Z</time>
      </trkpt>
      <trkpt lat="48.27324" lon="-4.28849">
        <ele>18.39999961853</ele>
        <time>2017-01-08T11:07:14.000Z</time>
      </trkpt>
      <trkpt lat="48.27319" lon="-4.28826">
        <ele>19.200000762939</ele>
        <time>2017-01-08T11:07:18.000Z</time>
      </trkpt>
      <trkpt lat="48.27312" lon="-4.28787">
        <ele>21.200000762939</ele>
        <time>2017-01-08T11:07:24.000Z</time>
      </trkpt>
      <trkpt lat="48.2731" lon="-4.28774">
        <ele>22.200000762939</ele>
        <time>2017-01-08T11:07:26.000Z</time>
      </trkpt>
      <trkpt lat="48.27308" lon="-4.28752">
        <ele>23.60000038147</ele>
        <time>2017-01-08T11:07:29.000Z</time>
      </trkpt>
      <trkpt lat="48.27314" lon="-4.28725">
        <ele>23.39999961853</ele>
        <time>2017-01-08T11:07:33.000Z</time>
      </trkpt>
      <trkpt lat="48.27319" lon="-4.28712">
        <ele>23</ele>
        <time>2017-01-08T11:07:35.000Z</time>
      </trkpt>
      <trkpt lat="48.2733" lon="-4.28687">
        <ele>22.39999961853</ele>
        <time>2017-01-08T11:07:40.000Z</time>
      </trkpt>
      <trkpt lat="48.27341" lon="-4.28659">
        <ele>23.39999961853</ele>
        <time>2017-01-08T11:07:47.000Z</time>
      </trkpt>
      <trkpt lat="48.27347" lon="-4.28636">
        <ele>25</ele>
        <time>2017-01-08T11:07:52.000Z</time>
      </trkpt>
      <trkpt lat="48.27358" lon="-4.28619">
        <ele>25.60000038147</ele>
        <time>2017-01-08T11:07:56.000Z</time>
      </trkpt>
      <trkpt lat="48.27368" lon="-4.28613">
        <ele>24.799999237061</ele>
        <time>2017-01-08T11:07:59.000Z</time>
      </trkpt>
      <trkpt lat="48.27377" lon="-4.28592">
        <ele>25.39999961853</ele>
        <time>2017-01-08T11:08:06.000Z</time>
      </trkpt>
      <trkpt lat="48.27386" lon="-4.28574">
        <ele>25.60000038147</ele>
        <time>2017-01-08T11:08:11.000Z</time>
      </trkpt>
      <trkpt lat="48.27402" lon="-4.2854">
        <ele>26.200000762939</ele>
        <time>2017-01-08T11:08:18.000Z</time>
      </trkpt>
      <trkpt lat="48.27407" lon="-4.28527">
        <ele>26.39999961853</ele>
        <time>2017-01-08T11:08:20.000Z</time>
      </trkpt>
      <trkpt lat="48.27412" lon="-4.28514">
        <ele>26.60000038147</ele>
        <time>2017-01-08T11:08:22.000Z</time>
      </trkpt>
      <trkpt lat="48.27417" lon="-4.28495">
        <ele>27.39999961853</ele>
        <time>2017-01-08T11:08:27.000Z</time>
      </trkpt>
      <trkpt lat="48.27416" lon="-4.28492">
        <ele>27.60000038147</ele>
        <time>2017-01-08T11:08:28.000Z</time>
      </trkpt>
      <trkpt lat="48.27426" lon="-4.28477">
        <ele>27.39999961853</ele>
        <time>2017-01-08T11:08:34.000Z</time>
      </trkpt>
      <trkpt lat="48.27431" lon="-4.2846">
        <ele>28</ele>
        <time>2017-01-08T11:08:38.000Z</time>
      </trkpt>
      <trkpt lat="48.27434" lon="-4.28444">
        <ele>28.39999961853</ele>
        <time>2017-01-08T11:08:41.000Z</time>
      </trkpt>
      <trkpt lat="48.27436" lon="-4.28416">
        <ele>29.799999237061</ele>
        <time>2017-01-08T11:08:47.000Z</time>
      </trkpt>
      <trkpt lat="48.27439" lon="-4.28393">
        <ele>30.799999237061</ele>
        <time>2017-01-08T11:08:52.000Z</time>
      </trkpt>
      <trkpt lat="48.27445" lon="-4.28363">
        <ele>32</ele>
        <time>2017-01-08T11:08:58.000Z</time>
      </trkpt>
      <trkpt lat="48.27455" lon="-4.28344">
        <ele>30.60000038147</ele>
        <time>2017-01-08T11:09:03.000Z</time>
      </trkpt>
      <trkpt lat="48.27468" lon="-4.28326">
        <ele>28.200000762939</ele>
        <time>2017-01-08T11:09:08.000Z</time>
      </trkpt>
      <trkpt lat="48.27479" lon="-4.28305">
        <ele>27.200000762939</ele>
        <time>2017-01-08T11:09:14.000Z</time>
      </trkpt>
      <trkpt lat="48.27487" lon="-4.2829">
        <ele>26.799999237061</ele>
        <time>2017-01-08T11:09:18.000Z</time>
      </trkpt>
      <trkpt lat="48.27497" lon="-4.28269">
        <ele>24.799999237061</ele>
        <time>2017-01-08T11:09:24.000Z</time>
      </trkpt>
      <trkpt lat="48.27504" lon="-4.28239">
        <ele>22.799999237061</ele>
        <time>2017-01-08T11:09:31.000Z</time>
      </trkpt>
      <trkpt lat="48.27505" lon="-4.28211">
        <ele>22.799999237061</ele>
        <time>2017-01-08T11:09:37.000Z</time>
      </trkpt>
      <trkpt lat="48.27505" lon="-4.28184">
        <ele>21.60000038147</ele>
        <time>2017-01-08T11:09:43.000Z</time>
      </trkpt>
      <trkpt lat="48.27506" lon="-4.28163">
        <ele>18</ele>
        <time>2017-01-08T11:09:48.000Z</time>
      </trkpt>
      <trkpt lat="48.27499" lon="-4.28139">
        <ele>17.60000038147</ele>
        <time>2017-01-08T11:09:53.000Z</time>
      </trkpt>
      <trkpt lat="48.2749" lon="-4.28111">
        <ele>20.60000038147</ele>
        <time>2017-01-08T11:09:59.000Z</time>
      </trkpt>
      <trkpt lat="48.27482" lon="-4.28088">
        <ele>31.60000038147</ele>
        <time>2017-01-08T11:10:04.000Z</time>
      </trkpt>
      <trkpt lat="48.27472" lon="-4.28071">
        <ele>41.799999237061</ele>
        <time>2017-01-08T11:10:08.000Z</time>
      </trkpt>
      <trkpt lat="48.27447" lon="-4.28042">
        <ele>36.200000762939</ele>
        <time>2017-01-08T11:10:15.000Z</time>
      </trkpt>
      <trkpt lat="48.27438" lon="-4.28018">
        <ele>31.799999237061</ele>
        <time>2017-01-08T11:10:19.000Z</time>
      </trkpt>
      <trkpt lat="48.2742" lon="-4.27982">
        <ele>22.39999961853</ele>
        <time>2017-01-08T11:10:26.000Z</time>
      </trkpt>
      <trkpt lat="48.27411" lon="-4.27961">
        <ele>18.799999237061</ele>
        <time>2017-01-08T11:10:30.000Z</time>
      </trkpt>
      <trkpt lat="48.27401" lon="-4.27946">
        <ele>19</ele>
        <time>2017-01-08T11:10:35.000Z</time>
      </trkpt>
      <trkpt lat="48.27392" lon="-4.27931">
        <ele>24</ele>
        <time>2017-01-08T11:10:40.000Z</time>
      </trkpt>
      <trkpt lat="48.27383" lon="-4.2792">
        <ele>28.799999237061</ele>
        <time>2017-01-08T11:10:44.000Z</time>
      </trkpt>
      <trkpt lat="48.27371" lon="-4.27907">
        <ele>30</ele>
        <time>2017-01-08T11:10:49.000Z</time>
      </trkpt>
      <trkpt lat="48.27351" lon="-4.27888">
        <ele>27</ele>
        <time>2017-01-08T11:10:55.000Z</time>
      </trkpt>
      <trkpt lat="48.27336" lon="-4.27877">
        <ele>25.799999237061</ele>
        <time>2017-01-08T11:10:59.000Z</time>
      </trkpt>
      <trkpt lat="48.27328" lon="-4.27874">
        <ele>24.200000762939</ele>
        <time>2017-01-08T11:11:01.000Z</time>
      </trkpt>
      <trkpt lat="48.27319" lon="-4.27874">
        <ele>23</ele>
        <time>2017-01-08T11:11:04.000Z</time>
      </trkpt>
      <trkpt lat="48.27297" lon="-4.2788">
        <ele>20.60000038147</ele>
        <time>2017-01-08T11:11:09.000Z</time>
      </trkpt>
      <trkpt lat="48.27283" lon="-4.27894">
        <ele>21.200000762939</ele>
        <time>2017-01-08T11:11:14.000Z</time>
      </trkpt>
      <trkpt lat="48.27278" lon="-4.27907">
        <ele>23</ele>
        <time>2017-01-08T11:11:19.000Z</time>
      </trkpt>
      <trkpt lat="48.27276" lon="-4.27917">
        <ele>24.39999961853</ele>
        <time>2017-01-08T11:11:23.000Z</time>
      </trkpt>
      <trkpt lat="48.2727" lon="-4.27928">
        <ele>25.60000038147</ele>
        <time>2017-01-08T11:11:27.000Z</time>
      </trkpt>
      <trkpt lat="48.27257" lon="-4.27941">
        <ele>27</ele>
        <time>2017-01-08T11:11:35.000Z</time>
      </trkpt>
      <trkpt lat="48.2725" lon="-4.27956">
        <ele>28.60000038147</ele>
        <time>2017-01-08T11:11:41.000Z</time>
      </trkpt>
      <trkpt lat="48.2724" lon="-4.27974">
        <ele>30.200000762939</ele>
        <time>2017-01-08T11:11:48.000Z</time>
      </trkpt>
      <trkpt lat="48.27233" lon="-4.27989">
        <ele>31.60000038147</ele>
        <time>2017-01-08T11:11:54.000Z</time>
      </trkpt>
      <trkpt lat="48.27227" lon="-4.28001">
        <ele>32.799999237061</ele>
        <time>2017-01-08T11:11:59.000Z</time>
      </trkpt>
      <trkpt lat="48.27222" lon="-4.28012">
        <ele>34</ele>
        <time>2017-01-08T11:12:04.000Z</time>
      </trkpt>
      <trkpt lat="48.27214" lon="-4.28026">
        <ele>35.400001525879</ele>
        <time>2017-01-08T11:12:09.000Z</time>
      </trkpt>
      <trkpt lat="48.27205" lon="-4.28042">
        <ele>36.599998474121</ele>
        <time>2017-01-08T11:12:15.000Z</time>
      </trkpt>
      <trkpt lat="48.27197" lon="-4.28056">
        <ele>37.400001525879</ele>
        <time>2017-01-08T11:12:21.000Z</time>
      </trkpt>
      <trkpt lat="48.27196" lon="-4.28058">
        <ele>37.400001525879</ele>
        <time>2017-01-08T11:12:22.000Z</time>
      </trkpt>
      <trkpt lat="48.2719" lon="-4.28071">
        <ele>38.400001525879</ele>
        <time>2017-01-08T11:12:28.000Z</time>
      </trkpt>
      <trkpt lat="48.27188" lon="-4.28073">
        <ele>38.400001525879</ele>
        <time>2017-01-08T11:12:29.000Z</time>
      </trkpt>
      <trkpt lat="48.27185" lon="-4.28078">
        <ele>38.599998474121</ele>
        <time>2017-01-08T11:12:31.000Z</time>
      </trkpt>
      <trkpt lat="48.27182" lon="-4.2808">
        <ele>38.599998474121</ele>
        <time>2017-01-08T11:12:34.000Z</time>
      </trkpt>
      <trkpt lat="48.27179" lon="-4.2808">
        <ele>38.400001525879</ele>
        <time>2017-01-08T11:12:36.000Z</time>
      </trkpt>
      <trkpt lat="48.27178" lon="-4.28078">
        <ele>38.400001525879</ele>
        <time>2017-01-08T11:12:38.000Z</time>
      </trkpt>
      <trkpt lat="48.27176" lon="-4.28067">
        <ele>37.400001525879</ele>
        <time>2017-01-08T11:12:44.000Z</time>
      </trkpt>
      <trkpt lat="48.27169" lon="-4.28045">
        <ele>35.599998474121</ele>
        <time>2017-01-08T11:12:49.000Z</time>
      </trkpt>
      <trkpt lat="48.27163" lon="-4.28014">
        <ele>33.799999237061</ele>
        <time>2017-01-08T11:12:53.000Z</time>
      </trkpt>
      <trkpt lat="48.27156" lon="-4.27977">
        <ele>32</ele>
        <time>2017-01-08T11:12:57.000Z</time>
      </trkpt>
      <trkpt lat="48.27148" lon="-4.27935">
        <ele>32</ele>
        <time>2017-01-08T11:13:01.000Z</time>
      </trkpt>
      <trkpt lat="48.27158" lon="-4.27886">
        <ele>26.60000038147</ele>
        <time>2017-01-08T11:13:06.000Z</time>
      </trkpt>
      <trkpt lat="48.27165" lon="-4.27876">
        <ele>24.799999237061</ele>
        <time>2017-01-08T11:13:08.000Z</time>
      </trkpt>
      <trkpt lat="48.27172" lon="-4.27866">
        <ele>23.200000762939</ele>
        <time>2017-01-08T11:13:10.000Z</time>
      </trkpt>
      <trkpt lat="48.27176" lon="-4.27854">
        <ele>22.200000762939</ele>
        <time>2017-01-08T11:13:12.000Z</time>
      </trkpt>
      <trkpt lat="48.27177" lon="-4.27832">
        <ele>22.39999961853</ele>
        <time>2017-01-08T11:13:18.000Z</time>
      </trkpt>
      <trkpt lat="48.27177" lon="-4.27823">
        <ele>22.799999237061</ele>
        <time>2017-01-08T11:13:22.000Z</time>
      </trkpt>
      <trkpt lat="48.27178" lon="-4.27812">
        <ele>22.60000038147</ele>
        <time>2017-01-08T11:13:28.000Z</time>
      </trkpt>
      <trkpt lat="48.27179" lon="-4.27809">
        <ele>22.60000038147</ele>
        <time>2017-01-08T11:13:29.000Z</time>
      </trkpt>
      <trkpt lat="48.2718" lon="-4.2779">
        <ele>22.799999237061</ele>
        <time>2017-01-08T11:13:35.000Z</time>
      </trkpt>
      <trkpt lat="48.27181" lon="-4.2777">
        <ele>23.39999961853</ele>
        <time>2017-01-08T11:13:40.000Z</time>
      </trkpt>
      <trkpt lat="48.2718" lon="-4.27766">
        <ele>23.60000038147</ele>
        <time>2017-01-08T11:13:41.000Z</time>
      </trkpt>
      <trkpt lat="48.2718" lon="-4.2774">
        <ele>24.799999237061</ele>
        <time>2017-01-08T11:13:48.000Z</time>
      </trkpt>
      <trkpt lat="48.2718" lon="-4.27716">
        <ele>26</ele>
        <time>2017-01-08T11:13:53.000Z</time>
      </trkpt>
      <trkpt lat="48.2718" lon="-4.27711">
        <ele>26.200000762939</ele>
        <time>2017-01-08T11:13:54.000Z</time>
      </trkpt>
      <trkpt lat="48.27179" lon="-4.27677">
        <ele>27</ele>
        <time>2017-01-08T11:14:01.000Z</time>
      </trkpt>
      <trkpt lat="48.27178" lon="-4.27654">
        <ele>27</ele>
        <time>2017-01-08T11:14:05.000Z</time>
      </trkpt>
      <trkpt lat="48.27179" lon="-4.27632">
        <ele>26.39999961853</ele>
        <time>2017-01-08T11:14:09.000Z</time>
      </trkpt>
      <trkpt lat="48.2718" lon="-4.27612">
        <ele>26</ele>
        <time>2017-01-08T11:14:13.000Z</time>
      </trkpt>
      <trkpt lat="48.27178" lon="-4.27586">
        <ele>25.200000762939</ele>
        <time>2017-01-08T11:14:18.000Z</time>
      </trkpt>
      <trkpt lat="48.27172" lon="-4.27552">
        <ele>25.60000038147</ele>
        <time>2017-01-08T11:14:23.000Z</time>
      </trkpt>
      <trkpt lat="48.27171" lon="-4.27539">
        <ele>25.39999961853</ele>
        <time>2017-01-08T11:14:25.000Z</time>
      </trkpt>
      <trkpt lat="48.27167" lon="-4.27508">
        <ele>24.39999961853</ele>
        <time>2017-01-08T11:14:30.000Z</time>
      </trkpt>
      <trkpt lat="48.27164" lon="-4.27493">
        <ele>23.60000038147</ele>
        <time>2017-01-08T11:14:33.000Z</time>
      </trkpt>
      <trkpt lat="48.27159" lon="-4.27459">
        <ele>22.39999961853</ele>
        <time>2017-01-08T11:14:39.000Z</time>
      </trkpt>
      <trkpt lat="48.27151" lon="-4.27432">
        <ele>29</ele>
        <time>2017-01-08T11:14:45.000Z</time>
      </trkpt>
      <trkpt lat="48.27146" lon="-4.27411">
        <ele>36.400001525879</ele>
        <time>2017-01-08T11:14:50.000Z</time>
      </trkpt>
      <trkpt lat="48.27137" lon="-4.27377">
        <ele>38.599998474121</ele>
        <time>2017-01-08T11:14:56.000Z</time>
      </trkpt>
      <trkpt lat="48.2713" lon="-4.27347">
        <ele>38</ele>
        <time>2017-01-08T11:15:02.000Z</time>
      </trkpt>
      <trkpt lat="48.27118" lon="-4.27321">
        <ele>36.599998474121</ele>
        <time>2017-01-08T11:15:07.000Z</time>
      </trkpt>
      <trkpt lat="48.27109" lon="-4.27302">
        <ele>34</ele>
        <time>2017-01-08T11:15:12.000Z</time>
      </trkpt>
      <trkpt lat="48.271" lon="-4.27284">
        <ele>31.799999237061</ele>
        <time>2017-01-08T11:15:17.000Z</time>
      </trkpt>
      <trkpt lat="48.27098" lon="-4.27281">
        <ele>31.200000762939</ele>
        <time>2017-01-08T11:15:18.000Z</time>
      </trkpt>
      <trkpt lat="48.27094" lon="-4.27267">
        <ele>29.799999237061</ele>
        <time>2017-01-08T11:15:22.000Z</time>
      </trkpt>
      <trkpt lat="48.27087" lon="-4.27236">
        <ele>27.200000762939</ele>
        <time>2017-01-08T11:15:28.000Z</time>
      </trkpt>
      <trkpt lat="48.2708" lon="-4.27202">
        <ele>24.39999961853</ele>
        <time>2017-01-08T11:15:34.000Z</time>
      </trkpt>
      <trkpt lat="48.2707" lon="-4.27178">
        <ele>29.39999961853</ele>
        <time>2017-01-08T11:15:40.000Z</time>
      </trkpt>
      <trkpt lat="48.27055" lon="-4.27156">
        <ele>37.799999237061</ele>
        <time>2017-01-08T11:15:46.000Z</time>
      </trkpt>
      <trkpt lat="48.2704" lon="-4.27138">
        <ele>34</ele>
        <time>2017-01-08T11:15:50.000Z</time>
      </trkpt>
      <trkpt lat="48.27032" lon="-4.27131">
        <ele>32.400001525879</ele>
        <time>2017-01-08T11:15:52.000Z</time>
      </trkpt>
      <trkpt lat="48.27026" lon="-4.27118">
        <ele>29.39999961853</ele>
        <time>2017-01-08T11:15:55.000Z</time>
      </trkpt>
      <trkpt lat="48.27018" lon="-4.27108">
        <ele>27.60000038147</ele>
        <time>2017-01-08T11:15:57.000Z</time>
      </trkpt>
      <trkpt lat="48.27005" lon="-4.27084">
        <ele>25</ele>
        <time>2017-01-08T11:16:02.000Z</time>
      </trkpt>
      <trkpt lat="48.26998" lon="-4.27071">
        <ele>24.200000762939</ele>
        <time>2017-01-08T11:16:05.000Z</time>
      </trkpt>
      <trkpt lat="48.26979" lon="-4.27039">
        <ele>23.799999237061</ele>
        <time>2017-01-08T11:16:13.000Z</time>
      </trkpt>
      <trkpt lat="48.26965" lon="-4.27025">
        <ele>26.60000038147</ele>
        <time>2017-01-08T11:16:18.000Z</time>
      </trkpt>
      <trkpt lat="48.26943" lon="-4.27014">
        <ele>33</ele>
        <time>2017-01-08T11:16:24.000Z</time>
      </trkpt>
      <trkpt lat="48.26938" lon="-4.27017">
        <ele>33.400001525879</ele>
        <time>2017-01-08T11:16:26.000Z</time>
      </trkpt>
      <trkpt lat="48.26932" lon="-4.27004">
        <ele>31.39999961853</ele>
        <time>2017-01-08T11:16:31.000Z</time>
      </trkpt>
      <trkpt lat="48.26933" lon="-4.26981">
        <ele>28</ele>
        <time>2017-01-08T11:16:37.000Z</time>
      </trkpt>
      <trkpt lat="48.26933" lon="-4.26959">
        <ele>25</ele>
        <time>2017-01-08T11:16:42.000Z</time>
      </trkpt>
      <trkpt lat="48.26933" lon="-4.26956">
        <ele>24.60000038147</ele>
        <time>2017-01-08T11:16:43.000Z</time>
      </trkpt>
      <trkpt lat="48.26918" lon="-4.26934">
        <ele>26</ele>
        <time>2017-01-08T11:16:50.000Z</time>
      </trkpt>
      <trkpt lat="48.26908" lon="-4.2692">
        <ele>28.60000038147</ele>
        <time>2017-01-08T11:16:55.000Z</time>
      </trkpt>
      <trkpt lat="48.26901" lon="-4.26913">
        <ele>30.200000762939</ele>
        <time>2017-01-08T11:17:00.000Z</time>
      </trkpt>
      <trkpt lat="48.269" lon="-4.26912">
        <ele>30.39999961853</ele>
        <time>2017-01-08T11:17:03.000Z</time>
      </trkpt>
      <trkpt lat="48.26887" lon="-4.26912">
        <ele>32.599998474121</ele>
        <time>2017-01-08T11:17:09.000Z</time>
      </trkpt>
      <trkpt lat="48.26878" lon="-4.26913">
        <ele>33.799999237061</ele>
        <time>2017-01-08T11:17:13.000Z</time>
      </trkpt>
      <trkpt lat="48.26869" lon="-4.26903">
        <ele>32.799999237061</ele>
        <time>2017-01-08T11:17:19.000Z</time>
      </trkpt>
      <trkpt lat="48.26854" lon="-4.26885">
        <ele>31.200000762939</ele>
        <time>2017-01-08T11:17:24.000Z</time>
      </trkpt>
      <trkpt lat="48.2685" lon="-4.26864">
        <ele>29.200000762939</ele>
        <time>2017-01-08T11:17:28.000Z</time>
      </trkpt>
      <trkpt lat="48.26858" lon="-4.26838">
        <ele>28.200000762939</ele>
        <time>2017-01-08T11:17:33.000Z</time>
      </trkpt>
      <trkpt lat="48.2686" lon="-4.2682">
        <ele>27.60000038147</ele>
        <time>2017-01-08T11:17:37.000Z</time>
      </trkpt>
      <trkpt lat="48.26862" lon="-4.26786">
        <ele>26.39999961853</ele>
        <time>2017-01-08T11:17:42.000Z</time>
      </trkpt>
      <trkpt lat="48.26858" lon="-4.26762">
        <ele>25</ele>
        <time>2017-01-08T11:17:45.000Z</time>
      </trkpt>
      <trkpt lat="48.26848" lon="-4.26733">
        <ele>22.200000762939</ele>
        <time>2017-01-08T11:17:49.000Z</time>
      </trkpt>
      <trkpt lat="48.26835" lon="-4.26699">
        <ele>21.799999237061</ele>
        <time>2017-01-08T11:17:54.000Z</time>
      </trkpt>
      <trkpt lat="48.26828" lon="-4.26685">
        <ele>22.200000762939</ele>
        <time>2017-01-08T11:17:56.000Z</time>
      </trkpt>
      <trkpt lat="48.26817" lon="-4.26656">
        <ele>22</ele>
        <time>2017-01-08T11:18:00.000Z</time>
      </trkpt>
      <trkpt lat="48.26806" lon="-4.26611">
        <ele>23</ele>
        <time>2017-01-08T11:18:05.000Z</time>
      </trkpt>
      <trkpt lat="48.26804" lon="-4.26595">
        <ele>26.200000762939</ele>
        <time>2017-01-08T11:18:07.000Z</time>
      </trkpt>
      <trkpt lat="48.26797" lon="-4.26567">
        <ele>30.200000762939</ele>
        <time>2017-01-08T11:18:11.000Z</time>
      </trkpt>
      <trkpt lat="48.2679" lon="-4.26539">
        <ele>29</ele>
        <time>2017-01-08T11:18:16.000Z</time>
      </trkpt>
      <trkpt lat="48.2679" lon="-4.26527">
        <ele>29.39999961853</ele>
        <time>2017-01-08T11:18:19.000Z</time>
      </trkpt>
      <trkpt lat="48.26785" lon="-4.26502">
        <ele>29.200000762939</ele>
        <time>2017-01-08T11:18:26.000Z</time>
      </trkpt>
      <trkpt lat="48.2678" lon="-4.26474">
        <ele>27.799999237061</ele>
        <time>2017-01-08T11:18:32.000Z</time>
      </trkpt>
      <trkpt lat="48.26772" lon="-4.2644">
        <ele>25.799999237061</ele>
        <time>2017-01-08T11:18:39.000Z</time>
      </trkpt>
      <trkpt lat="48.26765" lon="-4.26403">
        <ele>25.39999961853</ele>
        <time>2017-01-08T11:18:46.000Z</time>
      </trkpt>
      <trkpt lat="48.26758" lon="-4.26368">
        <ele>27</ele>
        <time>2017-01-08T11:18:54.000Z</time>
      </trkpt>
      <trkpt lat="48.26752" lon="-4.26346">
        <ele>26.200000762939</ele>
        <time>2017-01-08T11:18:59.000Z</time>
      </trkpt>
      <trkpt lat="48.26746" lon="-4.26324">
        <ele>25.60000038147</ele>
        <time>2017-01-08T11:19:05.000Z</time>
      </trkpt>
      <trkpt lat="48.26745" lon="-4.2632">
        <ele>25.60000038147</ele>
        <time>2017-01-08T11:19:06.000Z</time>
      </trkpt>
      <trkpt lat="48.26742" lon="-4.263">
        <ele>24.39999961853</ele>
        <time>2017-01-08T11:19:11.000Z</time>
      </trkpt>
      <trkpt lat="48.26736" lon="-4.26285">
        <ele>24.799999237061</ele>
        <time>2017-01-08T11:19:16.000Z</time>
      </trkpt>
      <trkpt lat="48.26734" lon="-4.26277">
        <ele>25.39999961853</ele>
        <time>2017-01-08T11:19:19.000Z</time>
      </trkpt>
      <trkpt lat="48.26728" lon="-4.26248">
        <ele>31.200000762939</ele>
        <time>2017-01-08T11:19:25.000Z</time>
      </trkpt>
      <trkpt lat="48.26721" lon="-4.26212">
        <ele>30.60000038147</ele>
        <time>2017-01-08T11:19:31.000Z</time>
      </trkpt>
      <trkpt lat="48.26719" lon="-4.262">
        <ele>28.799999237061</ele>
        <time>2017-01-08T11:19:33.000Z</time>
      </trkpt>
      <trkpt lat="48.26712" lon="-4.26183">
        <ele>26</ele>
        <time>2017-01-08T11:19:36.000Z</time>
      </trkpt>
      <trkpt lat="48.26709" lon="-4.26167">
        <ele>26.200000762939</ele>
        <time>2017-01-08T11:19:39.000Z</time>
      </trkpt>
      <trkpt lat="48.26699" lon="-4.26143">
        <ele>22.799999237061</ele>
        <time>2017-01-08T11:19:45.000Z</time>
      </trkpt>
      <trkpt lat="48.26694" lon="-4.26138">
        <ele>21.799999237061</ele>
        <time>2017-01-08T11:19:47.000Z</time>
      </trkpt>
      <trkpt lat="48.26685" lon="-4.26147">
        <ele>22.39999961853</ele>
        <time>2017-01-08T11:19:53.000Z</time>
      </trkpt>
      <trkpt lat="48.26684" lon="-4.2615">
        <ele>22.799999237061</ele>
        <time>2017-01-08T11:19:54.000Z</time>
      </trkpt>
      <trkpt lat="48.26684" lon="-4.26168">
        <ele>24.799999237061</ele>
        <time>2017-01-08T11:20:00.000Z</time>
      </trkpt>
      <trkpt lat="48.26681" lon="-4.2619">
        <ele>27.39999961853</ele>
        <time>2017-01-08T11:20:06.000Z</time>
      </trkpt>
      <trkpt lat="48.26684" lon="-4.26211">
        <ele>30.39999961853</ele>
        <time>2017-01-08T11:20:12.000Z</time>
      </trkpt>
      <trkpt lat="48.26685" lon="-4.2623">
        <ele>33.799999237061</ele>
        <time>2017-01-08T11:20:18.000Z</time>
      </trkpt>
      <trkpt lat="48.26682" lon="-4.26252">
        <ele>37.400001525879</ele>
        <time>2017-01-08T11:20:25.000Z</time>
      </trkpt>
      <trkpt lat="48.26685" lon="-4.26277">
        <ele>40.599998474121</ele>
        <time>2017-01-08T11:20:32.000Z</time>
      </trkpt>
      <trkpt lat="48.26685" lon="-4.26288">
        <ele>41.200000762939</ele>
        <time>2017-01-08T11:20:35.000Z</time>
      </trkpt>
      <trkpt lat="48.26693" lon="-4.26311">
        <ele>40.400001525879</ele>
        <time>2017-01-08T11:20:43.000Z</time>
      </trkpt>
      <trkpt lat="48.26693" lon="-4.26321">
        <ele>41.200000762939</ele>
        <time>2017-01-08T11:20:46.000Z</time>
      </trkpt>
      <trkpt lat="48.26695" lon="-4.26342">
        <ele>42.200000762939</ele>
        <time>2017-01-08T11:20:53.000Z</time>
      </trkpt>
      <trkpt lat="48.26698" lon="-4.26369">
        <ele>44.400001525879</ele>
        <time>2017-01-08T11:21:01.000Z</time>
      </trkpt>
      <trkpt lat="48.267" lon="-4.2639">
        <ele>45.799999237061</ele>
        <time>2017-01-08T11:21:07.000Z</time>
      </trkpt>
      <trkpt lat="48.26703" lon="-4.26409">
        <ele>46.799999237061</ele>
        <time>2017-01-08T11:21:12.000Z</time>
      </trkpt>
      <trkpt lat="48.26706" lon="-4.26437">
        <ele>47.200000762939</ele>
        <time>2017-01-08T11:21:21.000Z</time>
      </trkpt>
      <trkpt lat="48.26706" lon="-4.26453">
        <ele>47.799999237061</ele>
        <time>2017-01-08T11:21:28.000Z</time>
      </trkpt>
      <trkpt lat="48.26708" lon="-4.26469">
        <ele>48.200000762939</ele>
        <time>2017-01-08T11:21:35.000Z</time>
      </trkpt>
      <trkpt lat="48.2671" lon="-4.2649">
        <ele>49.400001525879</ele>
        <time>2017-01-08T11:21:43.000Z</time>
      </trkpt>
      <trkpt lat="48.26711" lon="-4.26512">
        <ele>50.200000762939</ele>
        <time>2017-01-08T11:21:49.000Z</time>
      </trkpt>
      <trkpt lat="48.26714" lon="-4.26547">
        <ele>51</ele>
        <time>2017-01-08T11:21:58.000Z</time>
      </trkpt>
      <trkpt lat="48.26716" lon="-4.2657">
        <ele>51</ele>
        <time>2017-01-08T11:22:04.000Z</time>
      </trkpt>
      <trkpt lat="48.26725" lon="-4.26571">
        <ele>47.599998474121</ele>
        <time>2017-01-08T11:22:08.000Z</time>
      </trkpt>
      <trkpt lat="48.2673" lon="-4.26552">
        <ele>44.400001525879</ele>
        <time>2017-01-08T11:22:12.000Z</time>
      </trkpt>
      <trkpt lat="48.26731" lon="-4.26548">
        <ele>43.799999237061</ele>
        <time>2017-01-08T11:22:13.000Z</time>
      </trkpt>
      <trkpt lat="48.26753" lon="-4.26497">
        <ele>32.400001525879</ele>
        <time>2017-01-08T11:22:24.000Z</time>
      </trkpt>
      <trkpt lat="48.26773" lon="-4.26465">
        <ele>27.200000762939</ele>
        <time>2017-01-08T11:22:31.000Z</time>
      </trkpt>
      <trkpt lat="48.26798" lon="-4.26435">
        <ele>25.60000038147</ele>
        <time>2017-01-08T11:22:38.000Z</time>
      </trkpt>
      <trkpt lat="48.26825" lon="-4.26408">
        <ele>25.200000762939</ele>
        <time>2017-01-08T11:22:45.000Z</time>
      </trkpt>
      <trkpt lat="48.26835" lon="-4.26396">
        <ele>25.200000762939</ele>
        <time>2017-01-08T11:22:48.000Z</time>
      </trkpt>
      <trkpt lat="48.26854" lon="-4.26377">
        <ele>60.799999237061</ele>
        <time>2017-01-08T11:22:53.000Z</time>
      </trkpt>
      <trkpt lat="48.26898" lon="-4.26343">
        <ele>63.200000762939</ele>
        <time>2017-01-08T11:23:04.000Z</time>
      </trkpt>
      <trkpt lat="48.26925" lon="-4.26323">
        <ele>63.599998474121</ele>
        <time>2017-01-08T11:23:11.000Z</time>
      </trkpt>
      <trkpt lat="48.26953" lon="-4.26301">
        <ele>63.799999237061</ele>
        <time>2017-01-08T11:23:18.000Z</time>
      </trkpt>
      <trkpt lat="48.26958" lon="-4.26297">
        <ele>63.799999237061</ele>
        <time>2017-01-08T11:23:19.000Z</time>
      </trkpt>
      <trkpt lat="48.26965" lon="-4.2629">
        <ele>64</ele>
        <time>2017-01-08T11:23:21.000Z</time>
      </trkpt>
      <trkpt lat="48.27006" lon="-4.26273">
        <ele>9</ele>
        <time>2017-01-08T11:23:29.000Z</time>
      </trkpt>
      <trkpt lat="48.27011" lon="-4.2627">
        <ele>9</ele>
        <time>2017-01-08T11:23:30.000Z</time>
      </trkpt>
      <trkpt lat="48.27037" lon="-4.26259">
        <ele>28</ele>
        <time>2017-01-08T11:23:35.000Z</time>
      </trkpt>
      <trkpt lat="48.27069" lon="-4.26249">
        <ele>30.200000762939</ele>
        <time>2017-01-08T11:23:41.000Z</time>
      </trkpt>
      <trkpt lat="48.27109" lon="-4.26245">
        <ele>34.599998474121</ele>
        <time>2017-01-08T11:23:48.000Z</time>
      </trkpt>
      <trkpt lat="48.27139" lon="-4.26251">
        <ele>42.400001525879</ele>
        <time>2017-01-08T11:23:54.000Z</time>
      </trkpt>
      <trkpt lat="48.27152" lon="-4.26244">
        <ele>47.599998474121</ele>
        <time>2017-01-08T11:23:57.000Z</time>
      </trkpt>
      <trkpt lat="48.27145" lon="-4.26234">
        <ele>47.400001525879</ele>
        <time>2017-01-08T11:23:59.000Z</time>
      </trkpt>
      <trkpt lat="48.27135" lon="-4.26228">
        <ele>45.599998474121</ele>
        <time>2017-01-08T11:24:01.000Z</time>
      </trkpt>
      <trkpt lat="48.27117" lon="-4.26217">
        <ele>42.599998474121</ele>
        <time>2017-01-08T11:24:04.000Z</time>
      </trkpt>
      <trkpt lat="48.27088" lon="-4.26193">
        <ele>38.400001525879</ele>
        <time>2017-01-08T11:24:09.000Z</time>
      </trkpt>
      <trkpt lat="48.27076" lon="-4.26191">
        <ele>34.400001525879</ele>
        <time>2017-01-08T11:24:12.000Z</time>
      </trkpt>
      <trkpt lat="48.27076" lon="-4.2619">
        <ele>34.200000762939</ele>
        <time>2017-01-08T11:24:15.000Z</time>
      </trkpt>
      <trkpt lat="48.27067" lon="-4.26173">
        <ele>34.200000762939</ele>
        <time>2017-01-08T11:24:21.000Z</time>
      </trkpt>
      <trkpt lat="48.27065" lon="-4.26163">
        <ele>35.400001525879</ele>
        <time>2017-01-08T11:24:25.000Z</time>
      </trkpt>
      <trkpt lat="48.27065" lon="-4.26163">
        <ele>35.400001525879</ele>
        <time>2017-01-08T11:24:27.000Z</time>
      </trkpt>
    </trkseg>
  </trk>
</gpx>